<?xml version="1.0" encoding="UTF-8" standalone="no" ?>
<gpx xmlns="http://www.topografix.com/GPX/1/1" xmlns:xsi="http://www.w3.org/2001/XMLSchema-instance" xsi:schemaLocation="http://www.topografix.com/GPX/1/1 http://www.topografix.com/GPX/1/1/gpx.xsd" version="1.1" creator="VisuGPX - https://www.visugpx.com">
  <metadata>
    <name>2025 03 29 pointe de la grande combe</name>
    <desc><![CDATA[2025 03 29 pointe de la grande combe
sortie GEMSA]]></desc>
  </metadata>
  <trk>
    <name><![CDATA[2025 03 29 pointe de la grande combe]]></name>
    <desc><![CDATA[comment ...]]></desc>
    <extensions>
      <line xmlns="http://www.topografix.com/GPX/gpx_style/0/2">
        <color>0000FF</color>
        <width>4</width>
      </line>
    </extensions>
    <trkseg>
      <trkpt lat="45.66421" lon="6.54915">
        <ele>1263</ele>
        <time>2025-03-29T07:01:56Z</time>
      </trkpt>
      <trkpt lat="45.66421" lon="6.54915">
        <ele>1263</ele>
        <time>2025-03-29T07:01:58Z</time>
      </trkpt>
      <trkpt lat="45.66427" lon="6.54907">
        <ele>1266</ele>
        <time>2025-03-29T07:02:02Z</time>
      </trkpt>
      <trkpt lat="45.66432" lon="6.54906">
        <ele>1267</ele>
        <time>2025-03-29T07:02:20Z</time>
      </trkpt>
      <trkpt lat="45.66436" lon="6.54905">
        <ele>1270</ele>
        <time>2025-03-29T07:03:17Z</time>
      </trkpt>
      <trkpt lat="45.6644" lon="6.54898">
        <ele>1273</ele>
        <time>2025-03-29T07:03:44Z</time>
      </trkpt>
      <trkpt lat="45.66438" lon="6.54894">
        <ele>1275</ele>
        <time>2025-03-29T07:04:18Z</time>
      </trkpt>
      <trkpt lat="45.66433" lon="6.54894">
        <ele>1275</ele>
        <time>2025-03-29T07:04:22Z</time>
      </trkpt>
      <trkpt lat="45.66432" lon="6.54889">
        <ele>1275</ele>
        <time>2025-03-29T07:04:27Z</time>
      </trkpt>
      <trkpt lat="45.6643" lon="6.54885">
        <ele>1278</ele>
        <time>2025-03-29T07:04:33Z</time>
      </trkpt>
      <trkpt lat="45.66427" lon="6.54883">
        <ele>1279</ele>
        <time>2025-03-29T07:04:37Z</time>
      </trkpt>
      <trkpt lat="45.66417" lon="6.54883">
        <ele>1283</ele>
        <time>2025-03-29T07:04:49Z</time>
      </trkpt>
      <trkpt lat="45.66413" lon="6.5488">
        <ele>1284</ele>
        <time>2025-03-29T07:04:54Z</time>
      </trkpt>
      <trkpt lat="45.6641" lon="6.54882">
        <ele>1283</ele>
        <time>2025-03-29T07:05:36Z</time>
      </trkpt>
      <trkpt lat="45.66411" lon="6.54879">
        <ele>1282</ele>
        <time>2025-03-29T07:05:43Z</time>
      </trkpt>
      <trkpt lat="45.66409" lon="6.54876">
        <ele>1282</ele>
        <time>2025-03-29T07:05:46Z</time>
      </trkpt>
      <trkpt lat="45.66407" lon="6.54873">
        <ele>1282</ele>
        <time>2025-03-29T07:05:52Z</time>
      </trkpt>
      <trkpt lat="45.66404" lon="6.54876">
        <ele>1282</ele>
        <time>2025-03-29T07:06:11Z</time>
      </trkpt>
      <trkpt lat="45.66405" lon="6.54875">
        <ele>1285</ele>
        <time>2025-03-29T07:06:52Z</time>
      </trkpt>
      <trkpt lat="45.66406" lon="6.5487">
        <ele>1287</ele>
        <time>2025-03-29T07:07:11Z</time>
      </trkpt>
      <trkpt lat="45.66408" lon="6.54871">
        <ele>1291</ele>
        <time>2025-03-29T07:07:24Z</time>
      </trkpt>
      <trkpt lat="45.66412" lon="6.54877">
        <ele>1294</ele>
        <time>2025-03-29T07:07:43Z</time>
      </trkpt>
      <trkpt lat="45.66412" lon="6.54876">
        <ele>1297</ele>
        <time>2025-03-29T07:08:08Z</time>
      </trkpt>
      <trkpt lat="45.66412" lon="6.54873">
        <ele>1298</ele>
        <time>2025-03-29T07:08:29Z</time>
      </trkpt>
      <trkpt lat="45.66415" lon="6.54875">
        <ele>1299</ele>
        <time>2025-03-29T07:08:53Z</time>
      </trkpt>
      <trkpt lat="45.66414" lon="6.54873">
        <ele>1301</ele>
        <time>2025-03-29T07:10:02Z</time>
      </trkpt>
      <trkpt lat="45.66411" lon="6.5487">
        <ele>1303</ele>
        <time>2025-03-29T07:11:30Z</time>
      </trkpt>
      <trkpt lat="45.6641" lon="6.54866">
        <ele>1303</ele>
        <time>2025-03-29T07:11:34Z</time>
      </trkpt>
      <trkpt lat="45.66412" lon="6.5486">
        <ele>1302</ele>
        <time>2025-03-29T07:12:50Z</time>
      </trkpt>
      <trkpt lat="45.66415" lon="6.54845">
        <ele>1302</ele>
        <time>2025-03-29T07:12:52Z</time>
      </trkpt>
      <trkpt lat="45.66421" lon="6.54831">
        <ele>1301</ele>
        <time>2025-03-29T07:12:54Z</time>
      </trkpt>
      <trkpt lat="45.66431" lon="6.54816">
        <ele>1299</ele>
        <time>2025-03-29T07:12:56Z</time>
      </trkpt>
      <trkpt lat="45.66444" lon="6.54801">
        <ele>1296</ele>
        <time>2025-03-29T07:12:58Z</time>
      </trkpt>
      <trkpt lat="45.6646" lon="6.5479">
        <ele>1294</ele>
        <time>2025-03-29T07:13:00Z</time>
      </trkpt>
      <trkpt lat="45.66475" lon="6.54775">
        <ele>1292</ele>
        <time>2025-03-29T07:13:02Z</time>
      </trkpt>
      <trkpt lat="45.66491" lon="6.54763">
        <ele>1289</ele>
        <time>2025-03-29T07:13:04Z</time>
      </trkpt>
      <trkpt lat="45.66511" lon="6.54751">
        <ele>1286</ele>
        <time>2025-03-29T07:13:06Z</time>
      </trkpt>
      <trkpt lat="45.66537" lon="6.54724">
        <ele>1283</ele>
        <time>2025-03-29T07:13:09Z</time>
      </trkpt>
      <trkpt lat="45.66555" lon="6.54712">
        <ele>1280</ele>
        <time>2025-03-29T07:13:11Z</time>
      </trkpt>
      <trkpt lat="45.66571" lon="6.54687">
        <ele>1275</ele>
        <time>2025-03-29T07:13:13Z</time>
      </trkpt>
      <trkpt lat="45.66588" lon="6.54668">
        <ele>1272</ele>
        <time>2025-03-29T07:13:15Z</time>
      </trkpt>
      <trkpt lat="45.66612" lon="6.54634">
        <ele>1269</ele>
        <time>2025-03-29T07:13:18Z</time>
      </trkpt>
      <trkpt lat="45.66622" lon="6.54603">
        <ele>1266</ele>
        <time>2025-03-29T07:13:20Z</time>
      </trkpt>
      <trkpt lat="45.6663" lon="6.54574">
        <ele>1263</ele>
        <time>2025-03-29T07:13:22Z</time>
      </trkpt>
      <trkpt lat="45.6666" lon="6.54556">
        <ele>1256</ele>
        <time>2025-03-29T07:13:25Z</time>
      </trkpt>
      <trkpt lat="45.6668" lon="6.5454">
        <ele>1250</ele>
        <time>2025-03-29T07:13:27Z</time>
      </trkpt>
      <trkpt lat="45.66702" lon="6.54528">
        <ele>1246</ele>
        <time>2025-03-29T07:13:29Z</time>
      </trkpt>
      <trkpt lat="45.6672" lon="6.5451">
        <ele>1243</ele>
        <time>2025-03-29T07:13:31Z</time>
      </trkpt>
      <trkpt lat="45.66737" lon="6.54504">
        <ele>1241</ele>
        <time>2025-03-29T07:13:33Z</time>
      </trkpt>
      <trkpt lat="45.66813" lon="6.54429">
        <ele>1235</ele>
        <time>2025-03-29T07:13:47Z</time>
      </trkpt>
      <trkpt lat="45.66905" lon="6.54374">
        <ele>1229</ele>
        <time>2025-03-29T07:14:07Z</time>
      </trkpt>
      <trkpt lat="45.66914" lon="6.54366">
        <ele>1228</ele>
        <time>2025-03-29T07:14:09Z</time>
      </trkpt>
      <trkpt lat="45.6693" lon="6.54359">
        <ele>1227</ele>
        <time>2025-03-29T07:14:12Z</time>
      </trkpt>
      <trkpt lat="45.6695" lon="6.54363">
        <ele>1225</ele>
        <time>2025-03-29T07:14:16Z</time>
      </trkpt>
      <trkpt lat="45.66976" lon="6.54349">
        <ele>1222</ele>
        <time>2025-03-29T07:14:22Z</time>
      </trkpt>
      <trkpt lat="45.67011" lon="6.54358">
        <ele>1220</ele>
        <time>2025-03-29T07:14:28Z</time>
      </trkpt>
      <trkpt lat="45.67023" lon="6.54358">
        <ele>1219</ele>
        <time>2025-03-29T07:14:30Z</time>
      </trkpt>
      <trkpt lat="45.67053" lon="6.5433">
        <ele>1215</ele>
        <time>2025-03-29T07:14:36Z</time>
      </trkpt>
      <trkpt lat="45.67061" lon="6.54317">
        <ele>1213</ele>
        <time>2025-03-29T07:14:38Z</time>
      </trkpt>
      <trkpt lat="45.67087" lon="6.54292">
        <ele>1210</ele>
        <time>2025-03-29T07:14:45Z</time>
      </trkpt>
      <trkpt lat="45.67102" lon="6.54274">
        <ele>1209</ele>
        <time>2025-03-29T07:14:50Z</time>
      </trkpt>
      <trkpt lat="45.6711" lon="6.54254">
        <ele>1207</ele>
        <time>2025-03-29T07:14:54Z</time>
      </trkpt>
      <trkpt lat="45.67119" lon="6.54217">
        <ele>1204</ele>
        <time>2025-03-29T07:15:01Z</time>
      </trkpt>
      <trkpt lat="45.67117" lon="6.54169">
        <ele>1202</ele>
        <time>2025-03-29T07:15:11Z</time>
      </trkpt>
      <trkpt lat="45.67109" lon="6.54142">
        <ele>1201</ele>
        <time>2025-03-29T07:15:17Z</time>
      </trkpt>
      <trkpt lat="45.67106" lon="6.54135">
        <ele>1201</ele>
        <time>2025-03-29T07:15:19Z</time>
      </trkpt>
      <trkpt lat="45.67104" lon="6.54126">
        <ele>1201</ele>
        <time>2025-03-29T07:15:21Z</time>
      </trkpt>
      <trkpt lat="45.67106" lon="6.54116">
        <ele>1201</ele>
        <time>2025-03-29T07:15:23Z</time>
      </trkpt>
      <trkpt lat="45.67114" lon="6.54098">
        <ele>1201</ele>
        <time>2025-03-29T07:15:28Z</time>
      </trkpt>
      <trkpt lat="45.67118" lon="6.54093">
        <ele>1202</ele>
        <time>2025-03-29T07:15:30Z</time>
      </trkpt>
      <trkpt lat="45.67127" lon="6.54087">
        <ele>1202</ele>
        <time>2025-03-29T07:15:35Z</time>
      </trkpt>
      <trkpt lat="45.67129" lon="6.54083">
        <ele>1202</ele>
        <time>2025-03-29T07:15:37Z</time>
      </trkpt>
      <trkpt lat="45.67129" lon="6.54083">
        <ele>1205</ele>
        <time>2025-03-29T07:21:20Z</time>
      </trkpt>
      <trkpt lat="45.6713" lon="6.54066">
        <ele>1202</ele>
        <time>2025-03-29T07:21:51Z</time>
      </trkpt>
      <trkpt lat="45.67131" lon="6.54041">
        <ele>1205</ele>
        <time>2025-03-29T07:22:09Z</time>
      </trkpt>
      <trkpt lat="45.67132" lon="6.54034">
        <ele>1205</ele>
        <time>2025-03-29T07:22:13Z</time>
      </trkpt>
      <trkpt lat="45.67153" lon="6.53998">
        <ele>1209</ele>
        <time>2025-03-29T07:22:43Z</time>
      </trkpt>
      <trkpt lat="45.67161" lon="6.53986">
        <ele>1210</ele>
        <time>2025-03-29T07:22:56Z</time>
      </trkpt>
      <trkpt lat="45.6717" lon="6.53977">
        <ele>1213</ele>
        <time>2025-03-29T07:23:09Z</time>
      </trkpt>
      <trkpt lat="45.67174" lon="6.53974">
        <ele>1214</ele>
        <time>2025-03-29T07:23:14Z</time>
      </trkpt>
      <trkpt lat="45.67177" lon="6.5397">
        <ele>1214</ele>
        <time>2025-03-29T07:23:26Z</time>
      </trkpt>
      <trkpt lat="45.67179" lon="6.53964">
        <ele>1214</ele>
        <time>2025-03-29T07:23:32Z</time>
      </trkpt>
      <trkpt lat="45.67176" lon="6.53941">
        <ele>1214</ele>
        <time>2025-03-29T07:24:43Z</time>
      </trkpt>
      <trkpt lat="45.67177" lon="6.53919">
        <ele>1213</ele>
        <time>2025-03-29T07:24:56Z</time>
      </trkpt>
      <trkpt lat="45.67178" lon="6.53913">
        <ele>1214</ele>
        <time>2025-03-29T07:25:00Z</time>
      </trkpt>
      <trkpt lat="45.6718" lon="6.53908">
        <ele>1214</ele>
        <time>2025-03-29T07:25:04Z</time>
      </trkpt>
      <trkpt lat="45.67191" lon="6.53866">
        <ele>1221</ele>
        <time>2025-03-29T07:25:35Z</time>
      </trkpt>
      <trkpt lat="45.67194" lon="6.53856">
        <ele>1221</ele>
        <time>2025-03-29T07:25:43Z</time>
      </trkpt>
      <trkpt lat="45.67195" lon="6.5385">
        <ele>1222</ele>
        <time>2025-03-29T07:25:47Z</time>
      </trkpt>
      <trkpt lat="45.67197" lon="6.53838">
        <ele>1223</ele>
        <time>2025-03-29T07:25:57Z</time>
      </trkpt>
      <trkpt lat="45.67196" lon="6.53834">
        <ele>1223</ele>
        <time>2025-03-29T07:26:00Z</time>
      </trkpt>
      <trkpt lat="45.67189" lon="6.53825">
        <ele>1222</ele>
        <time>2025-03-29T07:26:13Z</time>
      </trkpt>
      <trkpt lat="45.67186" lon="6.5382">
        <ele>1223</ele>
        <time>2025-03-29T07:26:20Z</time>
      </trkpt>
      <trkpt lat="45.67186" lon="6.53809">
        <ele>1224</ele>
        <time>2025-03-29T07:26:28Z</time>
      </trkpt>
      <trkpt lat="45.67185" lon="6.53785">
        <ele>1227</ele>
        <time>2025-03-29T07:26:47Z</time>
      </trkpt>
      <trkpt lat="45.67185" lon="6.53779">
        <ele>1228</ele>
        <time>2025-03-29T07:26:51Z</time>
      </trkpt>
      <trkpt lat="45.67174" lon="6.53768">
        <ele>1228</ele>
        <time>2025-03-29T07:27:09Z</time>
      </trkpt>
      <trkpt lat="45.67171" lon="6.53758">
        <ele>1229</ele>
        <time>2025-03-29T07:27:17Z</time>
      </trkpt>
      <trkpt lat="45.67168" lon="6.53748">
        <ele>1229</ele>
        <time>2025-03-29T07:27:27Z</time>
      </trkpt>
      <trkpt lat="45.67159" lon="6.5374">
        <ele>1232</ele>
        <time>2025-03-29T07:27:41Z</time>
      </trkpt>
      <trkpt lat="45.67157" lon="6.53736">
        <ele>1233</ele>
        <time>2025-03-29T07:27:45Z</time>
      </trkpt>
      <trkpt lat="45.67151" lon="6.53704">
        <ele>1236</ele>
        <time>2025-03-29T07:28:12Z</time>
      </trkpt>
      <trkpt lat="45.6715" lon="6.53701">
        <ele>1236</ele>
        <time>2025-03-29T07:28:16Z</time>
      </trkpt>
      <trkpt lat="45.67145" lon="6.53694">
        <ele>1238</ele>
        <time>2025-03-29T07:28:24Z</time>
      </trkpt>
      <trkpt lat="45.67141" lon="6.53685">
        <ele>1239</ele>
        <time>2025-03-29T07:28:32Z</time>
      </trkpt>
      <trkpt lat="45.67137" lon="6.53675">
        <ele>1242</ele>
        <time>2025-03-29T07:28:43Z</time>
      </trkpt>
      <trkpt lat="45.67132" lon="6.53668">
        <ele>1241</ele>
        <time>2025-03-29T07:28:51Z</time>
      </trkpt>
      <trkpt lat="45.67131" lon="6.53663">
        <ele>1242</ele>
        <time>2025-03-29T07:28:55Z</time>
      </trkpt>
      <trkpt lat="45.67128" lon="6.53651">
        <ele>1243</ele>
        <time>2025-03-29T07:29:06Z</time>
      </trkpt>
      <trkpt lat="45.67126" lon="6.53646">
        <ele>1243</ele>
        <time>2025-03-29T07:29:10Z</time>
      </trkpt>
      <trkpt lat="45.67124" lon="6.53642">
        <ele>1244</ele>
        <time>2025-03-29T07:29:15Z</time>
      </trkpt>
      <trkpt lat="45.67121" lon="6.5364">
        <ele>1245</ele>
        <time>2025-03-29T07:29:19Z</time>
      </trkpt>
      <trkpt lat="45.67118" lon="6.53635">
        <ele>1245</ele>
        <time>2025-03-29T07:29:24Z</time>
      </trkpt>
      <trkpt lat="45.67112" lon="6.53619">
        <ele>1246</ele>
        <time>2025-03-29T07:29:40Z</time>
      </trkpt>
      <trkpt lat="45.67111" lon="6.53615">
        <ele>1247</ele>
        <time>2025-03-29T07:29:44Z</time>
      </trkpt>
      <trkpt lat="45.67103" lon="6.5361">
        <ele>1247</ele>
        <time>2025-03-29T07:29:53Z</time>
      </trkpt>
      <trkpt lat="45.671" lon="6.53606">
        <ele>1248</ele>
        <time>2025-03-29T07:29:57Z</time>
      </trkpt>
      <trkpt lat="45.67095" lon="6.53597">
        <ele>1248</ele>
        <time>2025-03-29T07:30:06Z</time>
      </trkpt>
      <trkpt lat="45.67075" lon="6.53575">
        <ele>1252</ele>
        <time>2025-03-29T07:30:35Z</time>
      </trkpt>
      <trkpt lat="45.67063" lon="6.53556">
        <ele>1257</ele>
        <time>2025-03-29T07:30:56Z</time>
      </trkpt>
      <trkpt lat="45.6706" lon="6.53532">
        <ele>1259</ele>
        <time>2025-03-29T07:31:12Z</time>
      </trkpt>
      <trkpt lat="45.6706" lon="6.53521">
        <ele>1259</ele>
        <time>2025-03-29T07:31:20Z</time>
      </trkpt>
      <trkpt lat="45.67056" lon="6.53521">
        <ele>1260</ele>
        <time>2025-03-29T07:31:43Z</time>
      </trkpt>
      <trkpt lat="45.67054" lon="6.53524">
        <ele>1260</ele>
        <time>2025-03-29T07:31:54Z</time>
      </trkpt>
      <trkpt lat="45.67051" lon="6.53523">
        <ele>1260</ele>
        <time>2025-03-29T07:32:13Z</time>
      </trkpt>
      <trkpt lat="45.67046" lon="6.53522">
        <ele>1259</ele>
        <time>2025-03-29T07:32:18Z</time>
      </trkpt>
      <trkpt lat="45.67034" lon="6.53515">
        <ele>1261</ele>
        <time>2025-03-29T07:32:33Z</time>
      </trkpt>
      <trkpt lat="45.67031" lon="6.53512">
        <ele>1262</ele>
        <time>2025-03-29T07:32:39Z</time>
      </trkpt>
      <trkpt lat="45.67023" lon="6.5351">
        <ele>1262</ele>
        <time>2025-03-29T07:32:47Z</time>
      </trkpt>
      <trkpt lat="45.67019" lon="6.53508">
        <ele>1262</ele>
        <time>2025-03-29T07:32:51Z</time>
      </trkpt>
      <trkpt lat="45.6701" lon="6.53498">
        <ele>1264</ele>
        <time>2025-03-29T07:33:03Z</time>
      </trkpt>
      <trkpt lat="45.67006" lon="6.53496">
        <ele>1265</ele>
        <time>2025-03-29T07:33:08Z</time>
      </trkpt>
      <trkpt lat="45.67004" lon="6.53496">
        <ele>1267</ele>
        <time>2025-03-29T07:33:45Z</time>
      </trkpt>
      <trkpt lat="45.67003" lon="6.53499">
        <ele>1267</ele>
        <time>2025-03-29T07:33:51Z</time>
      </trkpt>
      <trkpt lat="45.67" lon="6.53499">
        <ele>1267</ele>
        <time>2025-03-29T07:33:57Z</time>
      </trkpt>
      <trkpt lat="45.66997" lon="6.53503">
        <ele>1268</ele>
        <time>2025-03-29T07:34:16Z</time>
      </trkpt>
      <trkpt lat="45.6698" lon="6.53517">
        <ele>1272</ele>
        <time>2025-03-29T07:34:42Z</time>
      </trkpt>
      <trkpt lat="45.66976" lon="6.53523">
        <ele>1272</ele>
        <time>2025-03-29T07:34:47Z</time>
      </trkpt>
      <trkpt lat="45.66971" lon="6.53525">
        <ele>1272</ele>
        <time>2025-03-29T07:34:51Z</time>
      </trkpt>
      <trkpt lat="45.66969" lon="6.53528">
        <ele>1272</ele>
        <time>2025-03-29T07:34:55Z</time>
      </trkpt>
      <trkpt lat="45.66969" lon="6.53532">
        <ele>1273</ele>
        <time>2025-03-29T07:34:59Z</time>
      </trkpt>
      <trkpt lat="45.66968" lon="6.53538">
        <ele>1275</ele>
        <time>2025-03-29T07:35:03Z</time>
      </trkpt>
      <trkpt lat="45.66966" lon="6.53542">
        <ele>1276</ele>
        <time>2025-03-29T07:35:07Z</time>
      </trkpt>
      <trkpt lat="45.66965" lon="6.53546">
        <ele>1279</ele>
        <time>2025-03-29T07:35:11Z</time>
      </trkpt>
      <trkpt lat="45.66963" lon="6.53554">
        <ele>1279</ele>
        <time>2025-03-29T07:35:16Z</time>
      </trkpt>
      <trkpt lat="45.66959" lon="6.53573">
        <ele>1281</ele>
        <time>2025-03-29T07:35:29Z</time>
      </trkpt>
      <trkpt lat="45.66956" lon="6.53579">
        <ele>1283</ele>
        <time>2025-03-29T07:35:34Z</time>
      </trkpt>
      <trkpt lat="45.66955" lon="6.53584">
        <ele>1283</ele>
        <time>2025-03-29T07:35:38Z</time>
      </trkpt>
      <trkpt lat="45.66952" lon="6.53598">
        <ele>1287</ele>
        <time>2025-03-29T07:35:48Z</time>
      </trkpt>
      <trkpt lat="45.66954" lon="6.53604">
        <ele>1287</ele>
        <time>2025-03-29T07:35:52Z</time>
      </trkpt>
      <trkpt lat="45.66954" lon="6.53611">
        <ele>1288</ele>
        <time>2025-03-29T07:35:58Z</time>
      </trkpt>
      <trkpt lat="45.66954" lon="6.53618">
        <ele>1288</ele>
        <time>2025-03-29T07:36:03Z</time>
      </trkpt>
      <trkpt lat="45.66955" lon="6.53627">
        <ele>1288</ele>
        <time>2025-03-29T07:36:10Z</time>
      </trkpt>
      <trkpt lat="45.66955" lon="6.53636">
        <ele>1288</ele>
        <time>2025-03-29T07:36:17Z</time>
      </trkpt>
      <trkpt lat="45.6695" lon="6.53658">
        <ele>1289</ele>
        <time>2025-03-29T07:36:35Z</time>
      </trkpt>
      <trkpt lat="45.66949" lon="6.53664">
        <ele>1289</ele>
        <time>2025-03-29T07:36:41Z</time>
      </trkpt>
      <trkpt lat="45.66947" lon="6.5367">
        <ele>1291</ele>
        <time>2025-03-29T07:36:46Z</time>
      </trkpt>
      <trkpt lat="45.66948" lon="6.53675">
        <ele>1292</ele>
        <time>2025-03-29T07:36:50Z</time>
      </trkpt>
      <trkpt lat="45.66947" lon="6.53688">
        <ele>1293</ele>
        <time>2025-03-29T07:36:59Z</time>
      </trkpt>
      <trkpt lat="45.66948" lon="6.53701">
        <ele>1295</ele>
        <time>2025-03-29T07:37:08Z</time>
      </trkpt>
      <trkpt lat="45.66946" lon="6.53706">
        <ele>1296</ele>
        <time>2025-03-29T07:37:12Z</time>
      </trkpt>
      <trkpt lat="45.66946" lon="6.53713">
        <ele>1297</ele>
        <time>2025-03-29T07:37:18Z</time>
      </trkpt>
      <trkpt lat="45.66945" lon="6.53719">
        <ele>1297</ele>
        <time>2025-03-29T07:37:22Z</time>
      </trkpt>
      <trkpt lat="45.66949" lon="6.53735">
        <ele>1298</ele>
        <time>2025-03-29T07:37:35Z</time>
      </trkpt>
      <trkpt lat="45.66953" lon="6.5374">
        <ele>1298</ele>
        <time>2025-03-29T07:37:40Z</time>
      </trkpt>
      <trkpt lat="45.66957" lon="6.53748">
        <ele>1297</ele>
        <time>2025-03-29T07:37:46Z</time>
      </trkpt>
      <trkpt lat="45.66962" lon="6.53757">
        <ele>1299</ele>
        <time>2025-03-29T07:37:53Z</time>
      </trkpt>
      <trkpt lat="45.66962" lon="6.53763">
        <ele>1299</ele>
        <time>2025-03-29T07:37:57Z</time>
      </trkpt>
      <trkpt lat="45.66961" lon="6.53767">
        <ele>1299</ele>
        <time>2025-03-29T07:38:01Z</time>
      </trkpt>
      <trkpt lat="45.66944" lon="6.53786">
        <ele>1302</ele>
        <time>2025-03-29T07:38:23Z</time>
      </trkpt>
      <trkpt lat="45.66922" lon="6.53798">
        <ele>1306</ele>
        <time>2025-03-29T07:38:46Z</time>
      </trkpt>
      <trkpt lat="45.66911" lon="6.53814">
        <ele>1303</ele>
        <time>2025-03-29T07:39:00Z</time>
      </trkpt>
      <trkpt lat="45.66907" lon="6.5382">
        <ele>1301</ele>
        <time>2025-03-29T07:39:04Z</time>
      </trkpt>
      <trkpt lat="45.66904" lon="6.53825">
        <ele>1301</ele>
        <time>2025-03-29T07:39:08Z</time>
      </trkpt>
      <trkpt lat="45.669" lon="6.53832">
        <ele>1301</ele>
        <time>2025-03-29T07:39:14Z</time>
      </trkpt>
      <trkpt lat="45.66899" lon="6.53838">
        <ele>1301</ele>
        <time>2025-03-29T07:39:18Z</time>
      </trkpt>
      <trkpt lat="45.66897" lon="6.53845">
        <ele>1300</ele>
        <time>2025-03-29T07:39:23Z</time>
      </trkpt>
      <trkpt lat="45.66896" lon="6.53851">
        <ele>1300</ele>
        <time>2025-03-29T07:39:27Z</time>
      </trkpt>
      <trkpt lat="45.66895" lon="6.53857">
        <ele>1299</ele>
        <time>2025-03-29T07:39:31Z</time>
      </trkpt>
      <trkpt lat="45.66897" lon="6.53877">
        <ele>1298</ele>
        <time>2025-03-29T07:39:43Z</time>
      </trkpt>
      <trkpt lat="45.66898" lon="6.53883">
        <ele>1298</ele>
        <time>2025-03-29T07:39:47Z</time>
      </trkpt>
      <trkpt lat="45.66899" lon="6.53891">
        <ele>1299</ele>
        <time>2025-03-29T07:39:52Z</time>
      </trkpt>
      <trkpt lat="45.66899" lon="6.53896">
        <ele>1299</ele>
        <time>2025-03-29T07:39:56Z</time>
      </trkpt>
      <trkpt lat="45.669" lon="6.53903">
        <ele>1299</ele>
        <time>2025-03-29T07:40:01Z</time>
      </trkpt>
      <trkpt lat="45.66905" lon="6.53917">
        <ele>1301</ele>
        <time>2025-03-29T07:40:14Z</time>
      </trkpt>
      <trkpt lat="45.66907" lon="6.53921">
        <ele>1302</ele>
        <time>2025-03-29T07:40:18Z</time>
      </trkpt>
      <trkpt lat="45.66907" lon="6.53925">
        <ele>1303</ele>
        <time>2025-03-29T07:40:22Z</time>
      </trkpt>
      <trkpt lat="45.66909" lon="6.53929">
        <ele>1304</ele>
        <time>2025-03-29T07:40:26Z</time>
      </trkpt>
      <trkpt lat="45.66909" lon="6.53933">
        <ele>1305</ele>
        <time>2025-03-29T07:40:30Z</time>
      </trkpt>
      <trkpt lat="45.66909" lon="6.53937">
        <ele>1307</ele>
        <time>2025-03-29T07:40:34Z</time>
      </trkpt>
      <trkpt lat="45.66912" lon="6.53948">
        <ele>1309</ele>
        <time>2025-03-29T07:40:43Z</time>
      </trkpt>
      <trkpt lat="45.66914" lon="6.53953">
        <ele>1308</ele>
        <time>2025-03-29T07:40:48Z</time>
      </trkpt>
      <trkpt lat="45.66914" lon="6.53958">
        <ele>1309</ele>
        <time>2025-03-29T07:40:52Z</time>
      </trkpt>
      <trkpt lat="45.66912" lon="6.53962">
        <ele>1310</ele>
        <time>2025-03-29T07:40:57Z</time>
      </trkpt>
      <trkpt lat="45.66907" lon="6.53967">
        <ele>1311</ele>
        <time>2025-03-29T07:41:05Z</time>
      </trkpt>
      <trkpt lat="45.66904" lon="6.53976">
        <ele>1313</ele>
        <time>2025-03-29T07:41:16Z</time>
      </trkpt>
      <trkpt lat="45.66902" lon="6.53979">
        <ele>1313</ele>
        <time>2025-03-29T07:41:20Z</time>
      </trkpt>
      <trkpt lat="45.66879" lon="6.53996">
        <ele>1318</ele>
        <time>2025-03-29T07:41:53Z</time>
      </trkpt>
      <trkpt lat="45.66868" lon="6.5401">
        <ele>1317</ele>
        <time>2025-03-29T07:42:09Z</time>
      </trkpt>
      <trkpt lat="45.66854" lon="6.54028">
        <ele>1319</ele>
        <time>2025-03-29T07:42:30Z</time>
      </trkpt>
      <trkpt lat="45.6685" lon="6.5403">
        <ele>1320</ele>
        <time>2025-03-29T07:42:34Z</time>
      </trkpt>
      <trkpt lat="45.66848" lon="6.54027">
        <ele>1319</ele>
        <time>2025-03-29T07:42:40Z</time>
      </trkpt>
      <trkpt lat="45.66848" lon="6.54023">
        <ele>1320</ele>
        <time>2025-03-29T07:42:50Z</time>
      </trkpt>
      <trkpt lat="45.66847" lon="6.54019">
        <ele>1320</ele>
        <time>2025-03-29T07:42:54Z</time>
      </trkpt>
      <trkpt lat="45.66845" lon="6.54014">
        <ele>1321</ele>
        <time>2025-03-29T07:43:01Z</time>
      </trkpt>
      <trkpt lat="45.66842" lon="6.54012">
        <ele>1322</ele>
        <time>2025-03-29T07:43:05Z</time>
      </trkpt>
      <trkpt lat="45.66838" lon="6.54014">
        <ele>1322</ele>
        <time>2025-03-29T07:43:10Z</time>
      </trkpt>
      <trkpt lat="45.66831" lon="6.54025">
        <ele>1324</ele>
        <time>2025-03-29T07:43:23Z</time>
      </trkpt>
      <trkpt lat="45.66831" lon="6.54029">
        <ele>1325</ele>
        <time>2025-03-29T07:43:27Z</time>
      </trkpt>
      <trkpt lat="45.66822" lon="6.54044">
        <ele>1331</ele>
        <time>2025-03-29T07:43:48Z</time>
      </trkpt>
      <trkpt lat="45.6682" lon="6.54045">
        <ele>1331</ele>
        <time>2025-03-29T07:43:52Z</time>
      </trkpt>
      <trkpt lat="45.66818" lon="6.54044">
        <ele>1331</ele>
        <time>2025-03-29T07:43:55Z</time>
      </trkpt>
      <trkpt lat="45.66817" lon="6.54041">
        <ele>1330</ele>
        <time>2025-03-29T07:43:59Z</time>
      </trkpt>
      <trkpt lat="45.66813" lon="6.54036">
        <ele>1330</ele>
        <time>2025-03-29T07:44:06Z</time>
      </trkpt>
      <trkpt lat="45.66812" lon="6.54032">
        <ele>1331</ele>
        <time>2025-03-29T07:44:10Z</time>
      </trkpt>
      <trkpt lat="45.6681" lon="6.54027">
        <ele>1333</ele>
        <time>2025-03-29T07:44:16Z</time>
      </trkpt>
      <trkpt lat="45.66809" lon="6.54024">
        <ele>1335</ele>
        <time>2025-03-29T07:44:20Z</time>
      </trkpt>
      <trkpt lat="45.66807" lon="6.54021">
        <ele>1335</ele>
        <time>2025-03-29T07:44:24Z</time>
      </trkpt>
      <trkpt lat="45.66803" lon="6.54017">
        <ele>1336</ele>
        <time>2025-03-29T07:44:31Z</time>
      </trkpt>
      <trkpt lat="45.66801" lon="6.54022">
        <ele>1337</ele>
        <time>2025-03-29T07:44:35Z</time>
      </trkpt>
      <trkpt lat="45.66799" lon="6.54024">
        <ele>1337</ele>
        <time>2025-03-29T07:44:40Z</time>
      </trkpt>
      <trkpt lat="45.66789" lon="6.54025">
        <ele>1340</ele>
        <time>2025-03-29T07:44:52Z</time>
      </trkpt>
      <trkpt lat="45.66787" lon="6.54026">
        <ele>1341</ele>
        <time>2025-03-29T07:44:56Z</time>
      </trkpt>
      <trkpt lat="45.6678" lon="6.54035">
        <ele>1342</ele>
        <time>2025-03-29T07:45:05Z</time>
      </trkpt>
      <trkpt lat="45.66777" lon="6.54038">
        <ele>1342</ele>
        <time>2025-03-29T07:45:09Z</time>
      </trkpt>
      <trkpt lat="45.66775" lon="6.54053">
        <ele>1345</ele>
        <time>2025-03-29T07:45:22Z</time>
      </trkpt>
      <trkpt lat="45.66775" lon="6.54065">
        <ele>1347</ele>
        <time>2025-03-29T07:45:34Z</time>
      </trkpt>
      <trkpt lat="45.66778" lon="6.54075">
        <ele>1350</ele>
        <time>2025-03-29T07:45:44Z</time>
      </trkpt>
      <trkpt lat="45.66777" lon="6.5408">
        <ele>1352</ele>
        <time>2025-03-29T07:45:50Z</time>
      </trkpt>
      <trkpt lat="45.66772" lon="6.54083">
        <ele>1353</ele>
        <time>2025-03-29T07:45:58Z</time>
      </trkpt>
      <trkpt lat="45.6677" lon="6.54087">
        <ele>1353</ele>
        <time>2025-03-29T07:46:04Z</time>
      </trkpt>
      <trkpt lat="45.6677" lon="6.54097">
        <ele>1355</ele>
        <time>2025-03-29T07:46:13Z</time>
      </trkpt>
      <trkpt lat="45.66769" lon="6.541">
        <ele>1355</ele>
        <time>2025-03-29T07:46:16Z</time>
      </trkpt>
      <trkpt lat="45.66768" lon="6.54102">
        <ele>1354</ele>
        <time>2025-03-29T07:46:20Z</time>
      </trkpt>
      <trkpt lat="45.66767" lon="6.54104">
        <ele>1355</ele>
        <time>2025-03-29T07:46:23Z</time>
      </trkpt>
      <trkpt lat="45.66764" lon="6.54103">
        <ele>1355</ele>
        <time>2025-03-29T07:46:27Z</time>
      </trkpt>
      <trkpt lat="45.6676" lon="6.54105">
        <ele>1356</ele>
        <time>2025-03-29T07:46:33Z</time>
      </trkpt>
      <trkpt lat="45.66759" lon="6.54108">
        <ele>1356</ele>
        <time>2025-03-29T07:46:37Z</time>
      </trkpt>
      <trkpt lat="45.66757" lon="6.54111">
        <ele>1356</ele>
        <time>2025-03-29T07:46:41Z</time>
      </trkpt>
      <trkpt lat="45.6675" lon="6.54116">
        <ele>1359</ele>
        <time>2025-03-29T07:46:54Z</time>
      </trkpt>
      <trkpt lat="45.66745" lon="6.54126">
        <ele>1361</ele>
        <time>2025-03-29T07:47:07Z</time>
      </trkpt>
      <trkpt lat="45.66744" lon="6.54131">
        <ele>1362</ele>
        <time>2025-03-29T07:47:12Z</time>
      </trkpt>
      <trkpt lat="45.66744" lon="6.54135">
        <ele>1362</ele>
        <time>2025-03-29T07:47:16Z</time>
      </trkpt>
      <trkpt lat="45.66745" lon="6.54144">
        <ele>1364</ele>
        <time>2025-03-29T07:47:24Z</time>
      </trkpt>
      <trkpt lat="45.66745" lon="6.54148">
        <ele>1364</ele>
        <time>2025-03-29T07:47:28Z</time>
      </trkpt>
      <trkpt lat="45.66743" lon="6.5415">
        <ele>1365</ele>
        <time>2025-03-29T07:47:32Z</time>
      </trkpt>
      <trkpt lat="45.66742" lon="6.54153">
        <ele>1366</ele>
        <time>2025-03-29T07:47:36Z</time>
      </trkpt>
      <trkpt lat="45.66744" lon="6.54159">
        <ele>1368</ele>
        <time>2025-03-29T07:47:43Z</time>
      </trkpt>
      <trkpt lat="45.66744" lon="6.54162">
        <ele>1368</ele>
        <time>2025-03-29T07:47:46Z</time>
      </trkpt>
      <trkpt lat="45.66744" lon="6.54167">
        <ele>1369</ele>
        <time>2025-03-29T07:47:50Z</time>
      </trkpt>
      <trkpt lat="45.66741" lon="6.54171">
        <ele>1370</ele>
        <time>2025-03-29T07:47:55Z</time>
      </trkpt>
      <trkpt lat="45.66739" lon="6.54176">
        <ele>1370</ele>
        <time>2025-03-29T07:48:03Z</time>
      </trkpt>
      <trkpt lat="45.66738" lon="6.54179">
        <ele>1370</ele>
        <time>2025-03-29T07:48:07Z</time>
      </trkpt>
      <trkpt lat="45.66736" lon="6.54181">
        <ele>1369</ele>
        <time>2025-03-29T07:48:11Z</time>
      </trkpt>
      <trkpt lat="45.66734" lon="6.54184">
        <ele>1369</ele>
        <time>2025-03-29T07:48:15Z</time>
      </trkpt>
      <trkpt lat="45.66732" lon="6.54186">
        <ele>1369</ele>
        <time>2025-03-29T07:48:19Z</time>
      </trkpt>
      <trkpt lat="45.66727" lon="6.54187">
        <ele>1371</ele>
        <time>2025-03-29T07:48:28Z</time>
      </trkpt>
      <trkpt lat="45.66721" lon="6.54185">
        <ele>1372</ele>
        <time>2025-03-29T07:48:37Z</time>
      </trkpt>
      <trkpt lat="45.66703" lon="6.54173">
        <ele>1378</ele>
        <time>2025-03-29T07:49:06Z</time>
      </trkpt>
      <trkpt lat="45.66688" lon="6.54158">
        <ele>1381</ele>
        <time>2025-03-29T07:49:33Z</time>
      </trkpt>
      <trkpt lat="45.66684" lon="6.54152">
        <ele>1382</ele>
        <time>2025-03-29T07:49:41Z</time>
      </trkpt>
      <trkpt lat="45.6668" lon="6.54143">
        <ele>1383</ele>
        <time>2025-03-29T07:49:51Z</time>
      </trkpt>
      <trkpt lat="45.66678" lon="6.54138">
        <ele>1383</ele>
        <time>2025-03-29T07:49:56Z</time>
      </trkpt>
      <trkpt lat="45.66676" lon="6.54134">
        <ele>1383</ele>
        <time>2025-03-29T07:50:00Z</time>
      </trkpt>
      <trkpt lat="45.66668" lon="6.54127">
        <ele>1385</ele>
        <time>2025-03-29T07:50:15Z</time>
      </trkpt>
      <trkpt lat="45.66665" lon="6.54124">
        <ele>1387</ele>
        <time>2025-03-29T07:50:19Z</time>
      </trkpt>
      <trkpt lat="45.66663" lon="6.5412">
        <ele>1388</ele>
        <time>2025-03-29T07:50:25Z</time>
      </trkpt>
      <trkpt lat="45.66658" lon="6.54118">
        <ele>1389</ele>
        <time>2025-03-29T07:50:33Z</time>
      </trkpt>
      <trkpt lat="45.66655" lon="6.54114">
        <ele>1389</ele>
        <time>2025-03-29T07:50:39Z</time>
      </trkpt>
      <trkpt lat="45.66653" lon="6.5411">
        <ele>1390</ele>
        <time>2025-03-29T07:50:42Z</time>
      </trkpt>
      <trkpt lat="45.66651" lon="6.54107">
        <ele>1390</ele>
        <time>2025-03-29T07:50:46Z</time>
      </trkpt>
      <trkpt lat="45.66647" lon="6.54104">
        <ele>1390</ele>
        <time>2025-03-29T07:50:53Z</time>
      </trkpt>
      <trkpt lat="45.66644" lon="6.54101">
        <ele>1391</ele>
        <time>2025-03-29T07:50:58Z</time>
      </trkpt>
      <trkpt lat="45.66642" lon="6.54099">
        <ele>1392</ele>
        <time>2025-03-29T07:51:02Z</time>
      </trkpt>
      <trkpt lat="45.66638" lon="6.54095">
        <ele>1393</ele>
        <time>2025-03-29T07:51:08Z</time>
      </trkpt>
      <trkpt lat="45.66636" lon="6.54091">
        <ele>1393</ele>
        <time>2025-03-29T07:51:12Z</time>
      </trkpt>
      <trkpt lat="45.66634" lon="6.54086">
        <ele>1396</ele>
        <time>2025-03-29T07:51:20Z</time>
      </trkpt>
      <trkpt lat="45.6663" lon="6.54083">
        <ele>1396</ele>
        <time>2025-03-29T07:51:27Z</time>
      </trkpt>
      <trkpt lat="45.66628" lon="6.54075">
        <ele>1397</ele>
        <time>2025-03-29T07:51:36Z</time>
      </trkpt>
      <trkpt lat="45.66626" lon="6.54068">
        <ele>1398</ele>
        <time>2025-03-29T07:51:42Z</time>
      </trkpt>
      <trkpt lat="45.66623" lon="6.54056">
        <ele>1400</ele>
        <time>2025-03-29T07:51:55Z</time>
      </trkpt>
      <trkpt lat="45.66623" lon="6.54048">
        <ele>1400</ele>
        <time>2025-03-29T07:52:01Z</time>
      </trkpt>
      <trkpt lat="45.66622" lon="6.5404">
        <ele>1401</ele>
        <time>2025-03-29T07:52:09Z</time>
      </trkpt>
      <trkpt lat="45.66622" lon="6.54033">
        <ele>1402</ele>
        <time>2025-03-29T07:52:16Z</time>
      </trkpt>
      <trkpt lat="45.66618" lon="6.54026">
        <ele>1403</ele>
        <time>2025-03-29T07:52:23Z</time>
      </trkpt>
      <trkpt lat="45.66602" lon="6.54001">
        <ele>1409</ele>
        <time>2025-03-29T07:52:54Z</time>
      </trkpt>
      <trkpt lat="45.666" lon="6.53997">
        <ele>1409</ele>
        <time>2025-03-29T07:52:58Z</time>
      </trkpt>
      <trkpt lat="45.66599" lon="6.53994">
        <ele>1409</ele>
        <time>2025-03-29T07:53:02Z</time>
      </trkpt>
      <trkpt lat="45.66596" lon="6.53992">
        <ele>1410</ele>
        <time>2025-03-29T07:53:06Z</time>
      </trkpt>
      <trkpt lat="45.66592" lon="6.53986">
        <ele>1410</ele>
        <time>2025-03-29T07:53:13Z</time>
      </trkpt>
      <trkpt lat="45.6659" lon="6.53982">
        <ele>1411</ele>
        <time>2025-03-29T07:53:18Z</time>
      </trkpt>
      <trkpt lat="45.66592" lon="6.53978">
        <ele>1411</ele>
        <time>2025-03-29T07:53:24Z</time>
      </trkpt>
      <trkpt lat="45.66595" lon="6.53977">
        <ele>1412</ele>
        <time>2025-03-29T07:53:28Z</time>
      </trkpt>
      <trkpt lat="45.66604" lon="6.53979">
        <ele>1413</ele>
        <time>2025-03-29T07:53:38Z</time>
      </trkpt>
      <trkpt lat="45.6662" lon="6.5399">
        <ele>1419</ele>
        <time>2025-03-29T07:54:03Z</time>
      </trkpt>
      <trkpt lat="45.66623" lon="6.53991">
        <ele>1420</ele>
        <time>2025-03-29T07:54:07Z</time>
      </trkpt>
      <trkpt lat="45.66628" lon="6.53993">
        <ele>1420</ele>
        <time>2025-03-29T07:54:15Z</time>
      </trkpt>
      <trkpt lat="45.66634" lon="6.53995">
        <ele>1421</ele>
        <time>2025-03-29T07:54:23Z</time>
      </trkpt>
      <trkpt lat="45.66637" lon="6.53992">
        <ele>1421</ele>
        <time>2025-03-29T07:54:27Z</time>
      </trkpt>
      <trkpt lat="45.66644" lon="6.53982">
        <ele>1423</ele>
        <time>2025-03-29T07:54:41Z</time>
      </trkpt>
      <trkpt lat="45.66649" lon="6.53976">
        <ele>1425</ele>
        <time>2025-03-29T07:54:50Z</time>
      </trkpt>
      <trkpt lat="45.66651" lon="6.53974">
        <ele>1426</ele>
        <time>2025-03-29T07:54:54Z</time>
      </trkpt>
      <trkpt lat="45.66652" lon="6.53971">
        <ele>1427</ele>
        <time>2025-03-29T07:54:58Z</time>
      </trkpt>
      <trkpt lat="45.66659" lon="6.53959">
        <ele>1430</ele>
        <time>2025-03-29T07:55:14Z</time>
      </trkpt>
      <trkpt lat="45.6666" lon="6.53955">
        <ele>1431</ele>
        <time>2025-03-29T07:55:19Z</time>
      </trkpt>
      <trkpt lat="45.66663" lon="6.53942">
        <ele>1433</ele>
        <time>2025-03-29T07:55:32Z</time>
      </trkpt>
      <trkpt lat="45.66664" lon="6.53934">
        <ele>1434</ele>
        <time>2025-03-29T07:55:41Z</time>
      </trkpt>
      <trkpt lat="45.66665" lon="6.53921">
        <ele>1434</ele>
        <time>2025-03-29T07:55:53Z</time>
      </trkpt>
      <trkpt lat="45.66668" lon="6.53909">
        <ele>1435</ele>
        <time>2025-03-29T07:56:05Z</time>
      </trkpt>
      <trkpt lat="45.66668" lon="6.53904">
        <ele>1436</ele>
        <time>2025-03-29T07:56:11Z</time>
      </trkpt>
      <trkpt lat="45.66668" lon="6.53896">
        <ele>1437</ele>
        <time>2025-03-29T07:56:20Z</time>
      </trkpt>
      <trkpt lat="45.66668" lon="6.53884">
        <ele>1438</ele>
        <time>2025-03-29T07:56:31Z</time>
      </trkpt>
      <trkpt lat="45.66669" lon="6.5388">
        <ele>1438</ele>
        <time>2025-03-29T07:56:35Z</time>
      </trkpt>
      <trkpt lat="45.66669" lon="6.53871">
        <ele>1439</ele>
        <time>2025-03-29T07:56:43Z</time>
      </trkpt>
      <trkpt lat="45.66669" lon="6.53865">
        <ele>1440</ele>
        <time>2025-03-29T07:56:49Z</time>
      </trkpt>
      <trkpt lat="45.66668" lon="6.53854">
        <ele>1441</ele>
        <time>2025-03-29T07:57:01Z</time>
      </trkpt>
      <trkpt lat="45.66668" lon="6.53848">
        <ele>1443</ele>
        <time>2025-03-29T07:57:07Z</time>
      </trkpt>
      <trkpt lat="45.66669" lon="6.53844">
        <ele>1444</ele>
        <time>2025-03-29T07:57:12Z</time>
      </trkpt>
      <trkpt lat="45.66668" lon="6.53839">
        <ele>1444</ele>
        <time>2025-03-29T07:57:16Z</time>
      </trkpt>
      <trkpt lat="45.66669" lon="6.53835">
        <ele>1445</ele>
        <time>2025-03-29T07:57:20Z</time>
      </trkpt>
      <trkpt lat="45.6667" lon="6.53829">
        <ele>1447</ele>
        <time>2025-03-29T07:57:26Z</time>
      </trkpt>
      <trkpt lat="45.66668" lon="6.53824">
        <ele>1447</ele>
        <time>2025-03-29T07:57:32Z</time>
      </trkpt>
      <trkpt lat="45.66667" lon="6.53811">
        <ele>1448</ele>
        <time>2025-03-29T07:57:44Z</time>
      </trkpt>
      <trkpt lat="45.66667" lon="6.53805">
        <ele>1449</ele>
        <time>2025-03-29T07:57:49Z</time>
      </trkpt>
      <trkpt lat="45.66667" lon="6.53795">
        <ele>1451</ele>
        <time>2025-03-29T07:58:00Z</time>
      </trkpt>
      <trkpt lat="45.66666" lon="6.53789">
        <ele>1452</ele>
        <time>2025-03-29T07:58:06Z</time>
      </trkpt>
      <trkpt lat="45.66665" lon="6.53779">
        <ele>1452</ele>
        <time>2025-03-29T07:58:16Z</time>
      </trkpt>
      <trkpt lat="45.66666" lon="6.53774">
        <ele>1452</ele>
        <time>2025-03-29T07:58:22Z</time>
      </trkpt>
      <trkpt lat="45.66676" lon="6.53758">
        <ele>1456</ele>
        <time>2025-03-29T07:58:41Z</time>
      </trkpt>
      <trkpt lat="45.66678" lon="6.53757">
        <ele>1457</ele>
        <time>2025-03-29T07:58:45Z</time>
      </trkpt>
      <trkpt lat="45.6668" lon="6.53753">
        <ele>1458</ele>
        <time>2025-03-29T07:58:51Z</time>
      </trkpt>
      <trkpt lat="45.66685" lon="6.5375">
        <ele>1458</ele>
        <time>2025-03-29T07:58:59Z</time>
      </trkpt>
      <trkpt lat="45.66687" lon="6.53745">
        <ele>1459</ele>
        <time>2025-03-29T07:59:05Z</time>
      </trkpt>
      <trkpt lat="45.66687" lon="6.53738">
        <ele>1460</ele>
        <time>2025-03-29T07:59:10Z</time>
      </trkpt>
      <trkpt lat="45.66684" lon="6.53734">
        <ele>1462</ele>
        <time>2025-03-29T07:59:16Z</time>
      </trkpt>
      <trkpt lat="45.66679" lon="6.53733">
        <ele>1462</ele>
        <time>2025-03-29T07:59:21Z</time>
      </trkpt>
      <trkpt lat="45.66675" lon="6.53731">
        <ele>1462</ele>
        <time>2025-03-29T07:59:28Z</time>
      </trkpt>
      <trkpt lat="45.66669" lon="6.53734">
        <ele>1461</ele>
        <time>2025-03-29T07:59:36Z</time>
      </trkpt>
      <trkpt lat="45.66661" lon="6.53741">
        <ele>1462</ele>
        <time>2025-03-29T07:59:50Z</time>
      </trkpt>
      <trkpt lat="45.66657" lon="6.53743">
        <ele>1462</ele>
        <time>2025-03-29T07:59:57Z</time>
      </trkpt>
      <trkpt lat="45.66642" lon="6.53753">
        <ele>1467</ele>
        <time>2025-03-29T08:00:22Z</time>
      </trkpt>
      <trkpt lat="45.66636" lon="6.53753">
        <ele>1469</ele>
        <time>2025-03-29T08:00:30Z</time>
      </trkpt>
      <trkpt lat="45.66633" lon="6.53754">
        <ele>1470</ele>
        <time>2025-03-29T08:00:34Z</time>
      </trkpt>
      <trkpt lat="45.66627" lon="6.53752">
        <ele>1470</ele>
        <time>2025-03-29T08:00:43Z</time>
      </trkpt>
      <trkpt lat="45.66624" lon="6.5375">
        <ele>1470</ele>
        <time>2025-03-29T08:00:47Z</time>
      </trkpt>
      <trkpt lat="45.66622" lon="6.53748">
        <ele>1470</ele>
        <time>2025-03-29T08:00:50Z</time>
      </trkpt>
      <trkpt lat="45.66621" lon="6.53743">
        <ele>1470</ele>
        <time>2025-03-29T08:00:56Z</time>
      </trkpt>
      <trkpt lat="45.66622" lon="6.5374">
        <ele>1472</ele>
        <time>2025-03-29T08:01:01Z</time>
      </trkpt>
      <trkpt lat="45.66625" lon="6.53738">
        <ele>1473</ele>
        <time>2025-03-29T08:01:05Z</time>
      </trkpt>
      <trkpt lat="45.66636" lon="6.53735">
        <ele>1476</ele>
        <time>2025-03-29T08:01:17Z</time>
      </trkpt>
      <trkpt lat="45.6665" lon="6.53725">
        <ele>1478</ele>
        <time>2025-03-29T08:01:35Z</time>
      </trkpt>
      <trkpt lat="45.66652" lon="6.53723">
        <ele>1480</ele>
        <time>2025-03-29T08:01:39Z</time>
      </trkpt>
      <trkpt lat="45.66656" lon="6.53718">
        <ele>1481</ele>
        <time>2025-03-29T08:01:46Z</time>
      </trkpt>
      <trkpt lat="45.66658" lon="6.53715">
        <ele>1482</ele>
        <time>2025-03-29T08:01:50Z</time>
      </trkpt>
      <trkpt lat="45.66661" lon="6.53712">
        <ele>1482</ele>
        <time>2025-03-29T08:01:54Z</time>
      </trkpt>
      <trkpt lat="45.66662" lon="6.53709">
        <ele>1483</ele>
        <time>2025-03-29T08:01:58Z</time>
      </trkpt>
      <trkpt lat="45.66664" lon="6.53706">
        <ele>1484</ele>
        <time>2025-03-29T08:02:02Z</time>
      </trkpt>
      <trkpt lat="45.66666" lon="6.53702">
        <ele>1485</ele>
        <time>2025-03-29T08:02:06Z</time>
      </trkpt>
      <trkpt lat="45.66665" lon="6.53698">
        <ele>1486</ele>
        <time>2025-03-29T08:02:10Z</time>
      </trkpt>
      <trkpt lat="45.66665" lon="6.53691">
        <ele>1487</ele>
        <time>2025-03-29T08:02:15Z</time>
      </trkpt>
      <trkpt lat="45.66663" lon="6.53688">
        <ele>1487</ele>
        <time>2025-03-29T08:02:19Z</time>
      </trkpt>
      <trkpt lat="45.66657" lon="6.53682">
        <ele>1486</ele>
        <time>2025-03-29T08:02:28Z</time>
      </trkpt>
      <trkpt lat="45.66652" lon="6.53676">
        <ele>1486</ele>
        <time>2025-03-29T08:02:35Z</time>
      </trkpt>
      <trkpt lat="45.6665" lon="6.53672">
        <ele>1486</ele>
        <time>2025-03-29T08:02:39Z</time>
      </trkpt>
      <trkpt lat="45.66644" lon="6.53665">
        <ele>1486</ele>
        <time>2025-03-29T08:02:47Z</time>
      </trkpt>
      <trkpt lat="45.66641" lon="6.5366">
        <ele>1487</ele>
        <time>2025-03-29T08:02:53Z</time>
      </trkpt>
      <trkpt lat="45.66636" lon="6.53654">
        <ele>1487</ele>
        <time>2025-03-29T08:03:00Z</time>
      </trkpt>
      <trkpt lat="45.66628" lon="6.53642">
        <ele>1488</ele>
        <time>2025-03-29T08:03:13Z</time>
      </trkpt>
      <trkpt lat="45.66623" lon="6.53633">
        <ele>1489</ele>
        <time>2025-03-29T08:03:22Z</time>
      </trkpt>
      <trkpt lat="45.66619" lon="6.53625">
        <ele>1491</ele>
        <time>2025-03-29T08:03:30Z</time>
      </trkpt>
      <trkpt lat="45.66617" lon="6.53621">
        <ele>1491</ele>
        <time>2025-03-29T08:03:36Z</time>
      </trkpt>
      <trkpt lat="45.66604" lon="6.53592">
        <ele>1498</ele>
        <time>2025-03-29T08:04:09Z</time>
      </trkpt>
      <trkpt lat="45.66599" lon="6.53583">
        <ele>1500</ele>
        <time>2025-03-29T08:04:21Z</time>
      </trkpt>
      <trkpt lat="45.66596" lon="6.53582">
        <ele>1501</ele>
        <time>2025-03-29T08:04:25Z</time>
      </trkpt>
      <trkpt lat="45.66592" lon="6.53576">
        <ele>1501</ele>
        <time>2025-03-29T08:04:34Z</time>
      </trkpt>
      <trkpt lat="45.6659" lon="6.53574">
        <ele>1501</ele>
        <time>2025-03-29T08:04:38Z</time>
      </trkpt>
      <trkpt lat="45.66582" lon="6.53568">
        <ele>1503</ele>
        <time>2025-03-29T08:04:50Z</time>
      </trkpt>
      <trkpt lat="45.6658" lon="6.53565">
        <ele>1504</ele>
        <time>2025-03-29T08:04:54Z</time>
      </trkpt>
      <trkpt lat="45.66575" lon="6.53561">
        <ele>1506</ele>
        <time>2025-03-29T08:05:02Z</time>
      </trkpt>
      <trkpt lat="45.66572" lon="6.53558">
        <ele>1507</ele>
        <time>2025-03-29T08:05:06Z</time>
      </trkpt>
      <trkpt lat="45.66571" lon="6.53557">
        <ele>1507</ele>
        <time>2025-03-29T08:05:10Z</time>
      </trkpt>
      <trkpt lat="45.66568" lon="6.53557">
        <ele>1506</ele>
        <time>2025-03-29T08:05:14Z</time>
      </trkpt>
      <trkpt lat="45.66566" lon="6.53556">
        <ele>1507</ele>
        <time>2025-03-29T08:08:22Z</time>
      </trkpt>
      <trkpt lat="45.66566" lon="6.53561">
        <ele>1505</ele>
        <time>2025-03-29T08:13:02Z</time>
      </trkpt>
      <trkpt lat="45.66568" lon="6.53564">
        <ele>1504</ele>
        <time>2025-03-29T08:13:06Z</time>
      </trkpt>
      <trkpt lat="45.66569" lon="6.5357">
        <ele>1504</ele>
        <time>2025-03-29T08:13:10Z</time>
      </trkpt>
      <trkpt lat="45.66573" lon="6.53578">
        <ele>1505</ele>
        <time>2025-03-29T08:13:18Z</time>
      </trkpt>
      <trkpt lat="45.66575" lon="6.5358">
        <ele>1506</ele>
        <time>2025-03-29T08:13:26Z</time>
      </trkpt>
      <trkpt lat="45.6658" lon="6.5359">
        <ele>1508</ele>
        <time>2025-03-29T08:13:35Z</time>
      </trkpt>
      <trkpt lat="45.66583" lon="6.53599">
        <ele>1510</ele>
        <time>2025-03-29T08:13:44Z</time>
      </trkpt>
      <trkpt lat="45.66588" lon="6.53625">
        <ele>1514</ele>
        <time>2025-03-29T08:14:05Z</time>
      </trkpt>
      <trkpt lat="45.66587" lon="6.53631">
        <ele>1515</ele>
        <time>2025-03-29T08:14:09Z</time>
      </trkpt>
      <trkpt lat="45.66583" lon="6.5364">
        <ele>1516</ele>
        <time>2025-03-29T08:14:17Z</time>
      </trkpt>
      <trkpt lat="45.66581" lon="6.53644">
        <ele>1517</ele>
        <time>2025-03-29T08:14:21Z</time>
      </trkpt>
      <trkpt lat="45.66574" lon="6.53648">
        <ele>1518</ele>
        <time>2025-03-29T08:14:30Z</time>
      </trkpt>
      <trkpt lat="45.66572" lon="6.53648">
        <ele>1518</ele>
        <time>2025-03-29T08:14:32Z</time>
      </trkpt>
      <trkpt lat="45.6657" lon="6.53649">
        <ele>1519</ele>
        <time>2025-03-29T08:14:35Z</time>
      </trkpt>
      <trkpt lat="45.66562" lon="6.53648">
        <ele>1521</ele>
        <time>2025-03-29T08:14:43Z</time>
      </trkpt>
      <trkpt lat="45.66553" lon="6.53647">
        <ele>1523</ele>
        <time>2025-03-29T08:14:54Z</time>
      </trkpt>
      <trkpt lat="45.66543" lon="6.53641">
        <ele>1524</ele>
        <time>2025-03-29T08:15:07Z</time>
      </trkpt>
      <trkpt lat="45.6654" lon="6.53639">
        <ele>1525</ele>
        <time>2025-03-29T08:15:11Z</time>
      </trkpt>
      <trkpt lat="45.66527" lon="6.53634">
        <ele>1528</ele>
        <time>2025-03-29T08:15:28Z</time>
      </trkpt>
      <trkpt lat="45.66524" lon="6.53633">
        <ele>1530</ele>
        <time>2025-03-29T08:15:32Z</time>
      </trkpt>
      <trkpt lat="45.66521" lon="6.53632">
        <ele>1530</ele>
        <time>2025-03-29T08:15:36Z</time>
      </trkpt>
      <trkpt lat="45.66519" lon="6.53631">
        <ele>1532</ele>
        <time>2025-03-29T08:15:40Z</time>
      </trkpt>
      <trkpt lat="45.66517" lon="6.53627">
        <ele>1533</ele>
        <time>2025-03-29T08:15:44Z</time>
      </trkpt>
      <trkpt lat="45.66517" lon="6.53612">
        <ele>1534</ele>
        <time>2025-03-29T08:15:57Z</time>
      </trkpt>
      <trkpt lat="45.66517" lon="6.53606">
        <ele>1534</ele>
        <time>2025-03-29T08:16:02Z</time>
      </trkpt>
      <trkpt lat="45.66515" lon="6.53602">
        <ele>1534</ele>
        <time>2025-03-29T08:16:49Z</time>
      </trkpt>
      <trkpt lat="45.66513" lon="6.536">
        <ele>1535</ele>
        <time>2025-03-29T08:16:53Z</time>
      </trkpt>
      <trkpt lat="45.66505" lon="6.53595">
        <ele>1539</ele>
        <time>2025-03-29T08:17:05Z</time>
      </trkpt>
      <trkpt lat="45.66498" lon="6.53593">
        <ele>1541</ele>
        <time>2025-03-29T08:17:12Z</time>
      </trkpt>
      <trkpt lat="45.66494" lon="6.53594">
        <ele>1541</ele>
        <time>2025-03-29T08:17:16Z</time>
      </trkpt>
      <trkpt lat="45.66491" lon="6.53595">
        <ele>1543</ele>
        <time>2025-03-29T08:17:20Z</time>
      </trkpt>
      <trkpt lat="45.66489" lon="6.53591">
        <ele>1543</ele>
        <time>2025-03-29T08:17:25Z</time>
      </trkpt>
      <trkpt lat="45.66484" lon="6.53574">
        <ele>1545</ele>
        <time>2025-03-29T08:17:41Z</time>
      </trkpt>
      <trkpt lat="45.66484" lon="6.5357">
        <ele>1546</ele>
        <time>2025-03-29T08:17:45Z</time>
      </trkpt>
      <trkpt lat="45.66483" lon="6.53566">
        <ele>1548</ele>
        <time>2025-03-29T08:17:51Z</time>
      </trkpt>
      <trkpt lat="45.66481" lon="6.5357">
        <ele>1549</ele>
        <time>2025-03-29T08:17:59Z</time>
      </trkpt>
      <trkpt lat="45.66479" lon="6.53572">
        <ele>1549</ele>
        <time>2025-03-29T08:18:03Z</time>
      </trkpt>
      <trkpt lat="45.66478" lon="6.53574">
        <ele>1550</ele>
        <time>2025-03-29T08:18:10Z</time>
      </trkpt>
      <trkpt lat="45.66477" lon="6.5357">
        <ele>1550</ele>
        <time>2025-03-29T08:18:16Z</time>
      </trkpt>
      <trkpt lat="45.66477" lon="6.53566">
        <ele>1551</ele>
        <time>2025-03-29T08:18:21Z</time>
      </trkpt>
      <trkpt lat="45.66477" lon="6.53562">
        <ele>1551</ele>
        <time>2025-03-29T08:18:34Z</time>
      </trkpt>
      <trkpt lat="45.66477" lon="6.53557">
        <ele>1552</ele>
        <time>2025-03-29T08:18:38Z</time>
      </trkpt>
      <trkpt lat="45.66477" lon="6.53553">
        <ele>1552</ele>
        <time>2025-03-29T08:18:42Z</time>
      </trkpt>
      <trkpt lat="45.66472" lon="6.53541">
        <ele>1554</ele>
        <time>2025-03-29T08:18:55Z</time>
      </trkpt>
      <trkpt lat="45.66469" lon="6.53534">
        <ele>1556</ele>
        <time>2025-03-29T08:19:03Z</time>
      </trkpt>
      <trkpt lat="45.66466" lon="6.53528">
        <ele>1557</ele>
        <time>2025-03-29T08:19:10Z</time>
      </trkpt>
      <trkpt lat="45.66463" lon="6.53522">
        <ele>1559</ele>
        <time>2025-03-29T08:19:19Z</time>
      </trkpt>
      <trkpt lat="45.66461" lon="6.5352">
        <ele>1559</ele>
        <time>2025-03-29T08:19:23Z</time>
      </trkpt>
      <trkpt lat="45.66457" lon="6.53514">
        <ele>1560</ele>
        <time>2025-03-29T08:19:31Z</time>
      </trkpt>
      <trkpt lat="45.66451" lon="6.53495">
        <ele>1564</ele>
        <time>2025-03-29T08:19:55Z</time>
      </trkpt>
      <trkpt lat="45.66441" lon="6.53476">
        <ele>1568</ele>
        <time>2025-03-29T08:20:20Z</time>
      </trkpt>
      <trkpt lat="45.66439" lon="6.53473">
        <ele>1569</ele>
        <time>2025-03-29T08:20:24Z</time>
      </trkpt>
      <trkpt lat="45.66438" lon="6.53471">
        <ele>1569</ele>
        <time>2025-03-29T08:20:29Z</time>
      </trkpt>
      <trkpt lat="45.66436" lon="6.53469">
        <ele>1569</ele>
        <time>2025-03-29T08:20:33Z</time>
      </trkpt>
      <trkpt lat="45.66434" lon="6.53466">
        <ele>1569</ele>
        <time>2025-03-29T08:20:38Z</time>
      </trkpt>
      <trkpt lat="45.66428" lon="6.53459">
        <ele>1571</ele>
        <time>2025-03-29T08:20:49Z</time>
      </trkpt>
      <trkpt lat="45.6642" lon="6.53442">
        <ele>1573</ele>
        <time>2025-03-29T08:21:11Z</time>
      </trkpt>
      <trkpt lat="45.66418" lon="6.53442">
        <ele>1573</ele>
        <time>2025-03-29T08:21:16Z</time>
      </trkpt>
      <trkpt lat="45.66417" lon="6.53445">
        <ele>1573</ele>
        <time>2025-03-29T08:21:20Z</time>
      </trkpt>
      <trkpt lat="45.66415" lon="6.53473">
        <ele>1576</ele>
        <time>2025-03-29T08:21:52Z</time>
      </trkpt>
      <trkpt lat="45.66415" lon="6.53477">
        <ele>1576</ele>
        <time>2025-03-29T08:21:56Z</time>
      </trkpt>
      <trkpt lat="45.66414" lon="6.53489">
        <ele>1578</ele>
        <time>2025-03-29T08:22:10Z</time>
      </trkpt>
      <trkpt lat="45.66413" lon="6.53492">
        <ele>1578</ele>
        <time>2025-03-29T08:22:14Z</time>
      </trkpt>
      <trkpt lat="45.66402" lon="6.53469">
        <ele>1582</ele>
        <time>2025-03-29T08:22:43Z</time>
      </trkpt>
      <trkpt lat="45.66401" lon="6.53466">
        <ele>1583</ele>
        <time>2025-03-29T08:22:46Z</time>
      </trkpt>
      <trkpt lat="45.66398" lon="6.53464">
        <ele>1584</ele>
        <time>2025-03-29T08:22:50Z</time>
      </trkpt>
      <trkpt lat="45.66396" lon="6.53462">
        <ele>1585</ele>
        <time>2025-03-29T08:22:53Z</time>
      </trkpt>
      <trkpt lat="45.66394" lon="6.53459">
        <ele>1586</ele>
        <time>2025-03-29T08:22:57Z</time>
      </trkpt>
      <trkpt lat="45.66391" lon="6.53441">
        <ele>1588</ele>
        <time>2025-03-29T08:23:16Z</time>
      </trkpt>
      <trkpt lat="45.66391" lon="6.53437">
        <ele>1588</ele>
        <time>2025-03-29T08:23:20Z</time>
      </trkpt>
      <trkpt lat="45.66387" lon="6.53423">
        <ele>1589</ele>
        <time>2025-03-29T08:23:36Z</time>
      </trkpt>
      <trkpt lat="45.66378" lon="6.53413">
        <ele>1589</ele>
        <time>2025-03-29T08:23:54Z</time>
      </trkpt>
      <trkpt lat="45.66377" lon="6.53409">
        <ele>1589</ele>
        <time>2025-03-29T08:23:58Z</time>
      </trkpt>
      <trkpt lat="45.66371" lon="6.53393">
        <ele>1592</ele>
        <time>2025-03-29T08:24:17Z</time>
      </trkpt>
      <trkpt lat="45.66358" lon="6.53374">
        <ele>1596</ele>
        <time>2025-03-29T08:24:45Z</time>
      </trkpt>
      <trkpt lat="45.66356" lon="6.53372">
        <ele>1597</ele>
        <time>2025-03-29T08:24:49Z</time>
      </trkpt>
      <trkpt lat="45.66348" lon="6.53362">
        <ele>1600</ele>
        <time>2025-03-29T08:25:07Z</time>
      </trkpt>
      <trkpt lat="45.66346" lon="6.5336">
        <ele>1600</ele>
        <time>2025-03-29T08:25:11Z</time>
      </trkpt>
      <trkpt lat="45.66345" lon="6.53358">
        <ele>1601</ele>
        <time>2025-03-29T08:25:52Z</time>
      </trkpt>
      <trkpt lat="45.66337" lon="6.53353">
        <ele>1602</ele>
        <time>2025-03-29T08:26:00Z</time>
      </trkpt>
      <trkpt lat="45.66315" lon="6.53337">
        <ele>1601</ele>
        <time>2025-03-29T08:26:24Z</time>
      </trkpt>
      <trkpt lat="45.66305" lon="6.53331">
        <ele>1600</ele>
        <time>2025-03-29T08:26:34Z</time>
      </trkpt>
      <trkpt lat="45.66293" lon="6.53325">
        <ele>1600</ele>
        <time>2025-03-29T08:26:48Z</time>
      </trkpt>
      <trkpt lat="45.6629" lon="6.53322">
        <ele>1600</ele>
        <time>2025-03-29T08:26:52Z</time>
      </trkpt>
      <trkpt lat="45.66283" lon="6.53321">
        <ele>1601</ele>
        <time>2025-03-29T08:26:59Z</time>
      </trkpt>
      <trkpt lat="45.6628" lon="6.5332">
        <ele>1600</ele>
        <time>2025-03-29T08:27:03Z</time>
      </trkpt>
      <trkpt lat="45.66278" lon="6.53317">
        <ele>1600</ele>
        <time>2025-03-29T08:27:09Z</time>
      </trkpt>
      <trkpt lat="45.66275" lon="6.53316">
        <ele>1600</ele>
        <time>2025-03-29T08:27:13Z</time>
      </trkpt>
      <trkpt lat="45.66272" lon="6.53318">
        <ele>1600</ele>
        <time>2025-03-29T08:27:17Z</time>
      </trkpt>
      <trkpt lat="45.66268" lon="6.53319">
        <ele>1600</ele>
        <time>2025-03-29T08:27:21Z</time>
      </trkpt>
      <trkpt lat="45.66264" lon="6.53315">
        <ele>1601</ele>
        <time>2025-03-29T08:27:26Z</time>
      </trkpt>
      <trkpt lat="45.6626" lon="6.53312">
        <ele>1602</ele>
        <time>2025-03-29T08:27:33Z</time>
      </trkpt>
      <trkpt lat="45.66256" lon="6.53307">
        <ele>1602</ele>
        <time>2025-03-29T08:27:39Z</time>
      </trkpt>
      <trkpt lat="45.66256" lon="6.53294">
        <ele>1603</ele>
        <time>2025-03-29T08:27:50Z</time>
      </trkpt>
      <trkpt lat="45.66253" lon="6.53288">
        <ele>1604</ele>
        <time>2025-03-29T08:27:56Z</time>
      </trkpt>
      <trkpt lat="45.6625" lon="6.53286">
        <ele>1605</ele>
        <time>2025-03-29T08:28:00Z</time>
      </trkpt>
      <trkpt lat="45.66246" lon="6.53281">
        <ele>1606</ele>
        <time>2025-03-29T08:28:06Z</time>
      </trkpt>
      <trkpt lat="45.66239" lon="6.53272">
        <ele>1607</ele>
        <time>2025-03-29T08:28:16Z</time>
      </trkpt>
      <trkpt lat="45.66226" lon="6.5326">
        <ele>1611</ele>
        <time>2025-03-29T08:28:34Z</time>
      </trkpt>
      <trkpt lat="45.66223" lon="6.53257">
        <ele>1611</ele>
        <time>2025-03-29T08:28:40Z</time>
      </trkpt>
      <trkpt lat="45.66219" lon="6.53256">
        <ele>1613</ele>
        <time>2025-03-29T08:28:46Z</time>
      </trkpt>
      <trkpt lat="45.66216" lon="6.53256">
        <ele>1614</ele>
        <time>2025-03-29T08:28:50Z</time>
      </trkpt>
      <trkpt lat="45.66214" lon="6.53254">
        <ele>1616</ele>
        <time>2025-03-29T08:28:56Z</time>
      </trkpt>
      <trkpt lat="45.66212" lon="6.53257">
        <ele>1616</ele>
        <time>2025-03-29T08:29:02Z</time>
      </trkpt>
      <trkpt lat="45.66214" lon="6.53266">
        <ele>1616</ele>
        <time>2025-03-29T08:29:07Z</time>
      </trkpt>
      <trkpt lat="45.66216" lon="6.5328">
        <ele>1616</ele>
        <time>2025-03-29T08:29:16Z</time>
      </trkpt>
      <trkpt lat="45.66216" lon="6.53285">
        <ele>1616</ele>
        <time>2025-03-29T08:29:20Z</time>
      </trkpt>
      <trkpt lat="45.66216" lon="6.53291">
        <ele>1616</ele>
        <time>2025-03-29T08:29:26Z</time>
      </trkpt>
      <trkpt lat="45.6622" lon="6.53301">
        <ele>1616</ele>
        <time>2025-03-29T08:29:36Z</time>
      </trkpt>
      <trkpt lat="45.66224" lon="6.53321">
        <ele>1618</ele>
        <time>2025-03-29T08:29:56Z</time>
      </trkpt>
      <trkpt lat="45.66225" lon="6.53327">
        <ele>1619</ele>
        <time>2025-03-29T08:30:03Z</time>
      </trkpt>
      <trkpt lat="45.66213" lon="6.53325">
        <ele>1622</ele>
        <time>2025-03-29T08:30:23Z</time>
      </trkpt>
      <trkpt lat="45.6621" lon="6.53323">
        <ele>1624</ele>
        <time>2025-03-29T08:30:27Z</time>
      </trkpt>
      <trkpt lat="45.66205" lon="6.53322">
        <ele>1627</ele>
        <time>2025-03-29T08:30:34Z</time>
      </trkpt>
      <trkpt lat="45.66201" lon="6.53321">
        <ele>1629</ele>
        <time>2025-03-29T08:30:39Z</time>
      </trkpt>
      <trkpt lat="45.66197" lon="6.53324">
        <ele>1629</ele>
        <time>2025-03-29T08:30:48Z</time>
      </trkpt>
      <trkpt lat="45.66192" lon="6.53338">
        <ele>1634</ele>
        <time>2025-03-29T08:31:04Z</time>
      </trkpt>
      <trkpt lat="45.66191" lon="6.53348">
        <ele>1635</ele>
        <time>2025-03-29T08:31:12Z</time>
      </trkpt>
      <trkpt lat="45.66201" lon="6.53374">
        <ele>1637</ele>
        <time>2025-03-29T08:31:41Z</time>
      </trkpt>
      <trkpt lat="45.66201" lon="6.53376">
        <ele>1638</ele>
        <time>2025-03-29T08:31:53Z</time>
      </trkpt>
      <trkpt lat="45.66195" lon="6.53369">
        <ele>1639</ele>
        <time>2025-03-29T08:32:01Z</time>
      </trkpt>
      <trkpt lat="45.66168" lon="6.53354">
        <ele>1644</ele>
        <time>2025-03-29T08:32:32Z</time>
      </trkpt>
      <trkpt lat="45.66164" lon="6.53352">
        <ele>1644</ele>
        <time>2025-03-29T08:32:36Z</time>
      </trkpt>
      <trkpt lat="45.66159" lon="6.53349">
        <ele>1646</ele>
        <time>2025-03-29T08:32:44Z</time>
      </trkpt>
      <trkpt lat="45.66135" lon="6.53331">
        <ele>1650</ele>
        <time>2025-03-29T08:33:13Z</time>
      </trkpt>
      <trkpt lat="45.66122" lon="6.53315">
        <ele>1651</ele>
        <time>2025-03-29T08:33:33Z</time>
      </trkpt>
      <trkpt lat="45.66107" lon="6.533">
        <ele>1654</ele>
        <time>2025-03-29T08:33:55Z</time>
      </trkpt>
      <trkpt lat="45.66103" lon="6.53296">
        <ele>1656</ele>
        <time>2025-03-29T08:34:01Z</time>
      </trkpt>
      <trkpt lat="45.66099" lon="6.53296">
        <ele>1656</ele>
        <time>2025-03-29T08:34:07Z</time>
      </trkpt>
      <trkpt lat="45.66092" lon="6.5329">
        <ele>1660</ele>
        <time>2025-03-29T08:34:20Z</time>
      </trkpt>
      <trkpt lat="45.6609" lon="6.53287">
        <ele>1661</ele>
        <time>2025-03-29T08:34:24Z</time>
      </trkpt>
      <trkpt lat="45.66089" lon="6.53282">
        <ele>1662</ele>
        <time>2025-03-29T08:34:30Z</time>
      </trkpt>
      <trkpt lat="45.66086" lon="6.53278">
        <ele>1662</ele>
        <time>2025-03-29T08:34:34Z</time>
      </trkpt>
      <trkpt lat="45.66083" lon="6.53277">
        <ele>1664</ele>
        <time>2025-03-29T08:34:38Z</time>
      </trkpt>
      <trkpt lat="45.6608" lon="6.53276">
        <ele>1665</ele>
        <time>2025-03-29T08:34:44Z</time>
      </trkpt>
      <trkpt lat="45.66077" lon="6.53271">
        <ele>1666</ele>
        <time>2025-03-29T08:34:53Z</time>
      </trkpt>
      <trkpt lat="45.66073" lon="6.53268">
        <ele>1668</ele>
        <time>2025-03-29T08:35:02Z</time>
      </trkpt>
      <trkpt lat="45.66071" lon="6.53267">
        <ele>1669</ele>
        <time>2025-03-29T08:35:06Z</time>
      </trkpt>
      <trkpt lat="45.66066" lon="6.53261">
        <ele>1670</ele>
        <time>2025-03-29T08:35:15Z</time>
      </trkpt>
      <trkpt lat="45.66063" lon="6.53258">
        <ele>1671</ele>
        <time>2025-03-29T08:35:20Z</time>
      </trkpt>
      <trkpt lat="45.66061" lon="6.53253">
        <ele>1671</ele>
        <time>2025-03-29T08:35:26Z</time>
      </trkpt>
      <trkpt lat="45.66059" lon="6.53252">
        <ele>1671</ele>
        <time>2025-03-29T08:35:32Z</time>
      </trkpt>
      <trkpt lat="45.66056" lon="6.53249">
        <ele>1672</ele>
        <time>2025-03-29T08:35:36Z</time>
      </trkpt>
      <trkpt lat="45.66053" lon="6.53246">
        <ele>1673</ele>
        <time>2025-03-29T08:35:44Z</time>
      </trkpt>
      <trkpt lat="45.66051" lon="6.53242">
        <ele>1673</ele>
        <time>2025-03-29T08:35:51Z</time>
      </trkpt>
      <trkpt lat="45.66047" lon="6.53232">
        <ele>1676</ele>
        <time>2025-03-29T08:36:05Z</time>
      </trkpt>
      <trkpt lat="45.66044" lon="6.53223">
        <ele>1676</ele>
        <time>2025-03-29T08:36:13Z</time>
      </trkpt>
      <trkpt lat="45.66043" lon="6.53219">
        <ele>1676</ele>
        <time>2025-03-29T08:36:17Z</time>
      </trkpt>
      <trkpt lat="45.66041" lon="6.53214">
        <ele>1677</ele>
        <time>2025-03-29T08:36:21Z</time>
      </trkpt>
      <trkpt lat="45.66038" lon="6.5321">
        <ele>1678</ele>
        <time>2025-03-29T08:36:25Z</time>
      </trkpt>
      <trkpt lat="45.66037" lon="6.53204">
        <ele>1678</ele>
        <time>2025-03-29T08:36:29Z</time>
      </trkpt>
      <trkpt lat="45.66035" lon="6.53198">
        <ele>1678</ele>
        <time>2025-03-29T08:36:34Z</time>
      </trkpt>
      <trkpt lat="45.66033" lon="6.53188">
        <ele>1679</ele>
        <time>2025-03-29T08:36:41Z</time>
      </trkpt>
      <trkpt lat="45.66028" lon="6.53172">
        <ele>1679</ele>
        <time>2025-03-29T08:36:54Z</time>
      </trkpt>
      <trkpt lat="45.66027" lon="6.53162">
        <ele>1679</ele>
        <time>2025-03-29T08:37:02Z</time>
      </trkpt>
      <trkpt lat="45.66026" lon="6.53158">
        <ele>1678</ele>
        <time>2025-03-29T08:37:06Z</time>
      </trkpt>
      <trkpt lat="45.66025" lon="6.53141">
        <ele>1677</ele>
        <time>2025-03-29T08:37:19Z</time>
      </trkpt>
      <trkpt lat="45.66021" lon="6.53129">
        <ele>1677</ele>
        <time>2025-03-29T08:37:28Z</time>
      </trkpt>
      <trkpt lat="45.6602" lon="6.53118">
        <ele>1678</ele>
        <time>2025-03-29T08:37:37Z</time>
      </trkpt>
      <trkpt lat="45.66018" lon="6.53103">
        <ele>1677</ele>
        <time>2025-03-29T08:37:49Z</time>
      </trkpt>
      <trkpt lat="45.66016" lon="6.53099">
        <ele>1677</ele>
        <time>2025-03-29T08:37:53Z</time>
      </trkpt>
      <trkpt lat="45.66015" lon="6.53088">
        <ele>1677</ele>
        <time>2025-03-29T08:38:01Z</time>
      </trkpt>
      <trkpt lat="45.66013" lon="6.53078">
        <ele>1679</ele>
        <time>2025-03-29T08:38:10Z</time>
      </trkpt>
      <trkpt lat="45.66012" lon="6.53073">
        <ele>1680</ele>
        <time>2025-03-29T08:38:15Z</time>
      </trkpt>
      <trkpt lat="45.66011" lon="6.53069">
        <ele>1680</ele>
        <time>2025-03-29T08:38:19Z</time>
      </trkpt>
      <trkpt lat="45.66011" lon="6.53063">
        <ele>1681</ele>
        <time>2025-03-29T08:38:24Z</time>
      </trkpt>
      <trkpt lat="45.66012" lon="6.53058">
        <ele>1682</ele>
        <time>2025-03-29T08:38:30Z</time>
      </trkpt>
      <trkpt lat="45.66013" lon="6.53056">
        <ele>1685</ele>
        <time>2025-03-29T08:38:48Z</time>
      </trkpt>
      <trkpt lat="45.66012" lon="6.53053">
        <ele>1686</ele>
        <time>2025-03-29T08:39:06Z</time>
      </trkpt>
      <trkpt lat="45.66014" lon="6.53049">
        <ele>1687</ele>
        <time>2025-03-29T08:39:10Z</time>
      </trkpt>
      <trkpt lat="45.6602" lon="6.53041">
        <ele>1687</ele>
        <time>2025-03-29T08:39:22Z</time>
      </trkpt>
      <trkpt lat="45.66023" lon="6.53037">
        <ele>1687</ele>
        <time>2025-03-29T08:39:26Z</time>
      </trkpt>
      <trkpt lat="45.66022" lon="6.53033">
        <ele>1688</ele>
        <time>2025-03-29T08:39:30Z</time>
      </trkpt>
      <trkpt lat="45.66024" lon="6.53029">
        <ele>1687</ele>
        <time>2025-03-29T08:39:36Z</time>
      </trkpt>
      <trkpt lat="45.66026" lon="6.53025">
        <ele>1687</ele>
        <time>2025-03-29T08:39:40Z</time>
      </trkpt>
      <trkpt lat="45.66027" lon="6.53019">
        <ele>1687</ele>
        <time>2025-03-29T08:39:46Z</time>
      </trkpt>
      <trkpt lat="45.66029" lon="6.53008">
        <ele>1689</ele>
        <time>2025-03-29T08:39:56Z</time>
      </trkpt>
      <trkpt lat="45.66029" lon="6.53001">
        <ele>1690</ele>
        <time>2025-03-29T08:40:04Z</time>
      </trkpt>
      <trkpt lat="45.66028" lon="6.52989">
        <ele>1690</ele>
        <time>2025-03-29T08:40:14Z</time>
      </trkpt>
      <trkpt lat="45.66029" lon="6.52984">
        <ele>1691</ele>
        <time>2025-03-29T08:40:20Z</time>
      </trkpt>
      <trkpt lat="45.66026" lon="6.52983">
        <ele>1691</ele>
        <time>2025-03-29T08:40:26Z</time>
      </trkpt>
      <trkpt lat="45.66025" lon="6.5298">
        <ele>1693</ele>
        <time>2025-03-29T08:40:32Z</time>
      </trkpt>
      <trkpt lat="45.66021" lon="6.52969">
        <ele>1696</ele>
        <time>2025-03-29T08:40:46Z</time>
      </trkpt>
      <trkpt lat="45.66018" lon="6.52972">
        <ele>1697</ele>
        <time>2025-03-29T08:40:54Z</time>
      </trkpt>
      <trkpt lat="45.66016" lon="6.52977">
        <ele>1699</ele>
        <time>2025-03-29T08:41:02Z</time>
      </trkpt>
      <trkpt lat="45.66015" lon="6.52978">
        <ele>1698</ele>
        <time>2025-03-29T08:41:34Z</time>
      </trkpt>
      <trkpt lat="45.66014" lon="6.52974">
        <ele>1698</ele>
        <time>2025-03-29T08:41:40Z</time>
      </trkpt>
      <trkpt lat="45.66012" lon="6.5297">
        <ele>1699</ele>
        <time>2025-03-29T08:41:46Z</time>
      </trkpt>
      <trkpt lat="45.66012" lon="6.52966">
        <ele>1699</ele>
        <time>2025-03-29T08:41:52Z</time>
      </trkpt>
      <trkpt lat="45.66008" lon="6.52968">
        <ele>1699</ele>
        <time>2025-03-29T08:42:12Z</time>
      </trkpt>
      <trkpt lat="45.66006" lon="6.52971">
        <ele>1699</ele>
        <time>2025-03-29T08:42:18Z</time>
      </trkpt>
      <trkpt lat="45.66006" lon="6.52976">
        <ele>1701</ele>
        <time>2025-03-29T08:42:24Z</time>
      </trkpt>
      <trkpt lat="45.66004" lon="6.52975">
        <ele>1704</ele>
        <time>2025-03-29T08:43:00Z</time>
      </trkpt>
      <trkpt lat="45.66002" lon="6.52976">
        <ele>1704</ele>
        <time>2025-03-29T08:43:08Z</time>
      </trkpt>
      <trkpt lat="45.66002" lon="6.52967">
        <ele>1708</ele>
        <time>2025-03-29T08:43:30Z</time>
      </trkpt>
      <trkpt lat="45.66001" lon="6.52963">
        <ele>1709</ele>
        <time>2025-03-29T08:43:40Z</time>
      </trkpt>
      <trkpt lat="45.65998" lon="6.52964">
        <ele>1709</ele>
        <time>2025-03-29T08:43:46Z</time>
      </trkpt>
      <trkpt lat="45.65995" lon="6.52964">
        <ele>1710</ele>
        <time>2025-03-29T08:44:56Z</time>
      </trkpt>
      <trkpt lat="45.65992" lon="6.5296">
        <ele>1711</ele>
        <time>2025-03-29T08:45:04Z</time>
      </trkpt>
      <trkpt lat="45.65989" lon="6.52963">
        <ele>1712</ele>
        <time>2025-03-29T08:46:06Z</time>
      </trkpt>
      <trkpt lat="45.65986" lon="6.52965">
        <ele>1712</ele>
        <time>2025-03-29T08:46:12Z</time>
      </trkpt>
      <trkpt lat="45.65983" lon="6.52967">
        <ele>1712</ele>
        <time>2025-03-29T08:46:16Z</time>
      </trkpt>
      <trkpt lat="45.6598" lon="6.52969">
        <ele>1713</ele>
        <time>2025-03-29T08:46:22Z</time>
      </trkpt>
      <trkpt lat="45.65977" lon="6.52967">
        <ele>1713</ele>
        <time>2025-03-29T08:46:32Z</time>
      </trkpt>
      <trkpt lat="45.65976" lon="6.52962">
        <ele>1715</ele>
        <time>2025-03-29T08:46:38Z</time>
      </trkpt>
      <trkpt lat="45.65972" lon="6.52961">
        <ele>1715</ele>
        <time>2025-03-29T08:46:44Z</time>
      </trkpt>
      <trkpt lat="45.6597" lon="6.52955">
        <ele>1716</ele>
        <time>2025-03-29T08:46:52Z</time>
      </trkpt>
      <trkpt lat="45.65969" lon="6.52951">
        <ele>1717</ele>
        <time>2025-03-29T08:47:02Z</time>
      </trkpt>
      <trkpt lat="45.65967" lon="6.52946">
        <ele>1720</ele>
        <time>2025-03-29T08:47:11Z</time>
      </trkpt>
      <trkpt lat="45.65969" lon="6.5294">
        <ele>1720</ele>
        <time>2025-03-29T08:47:18Z</time>
      </trkpt>
      <trkpt lat="45.65966" lon="6.52941">
        <ele>1721</ele>
        <time>2025-03-29T08:47:31Z</time>
      </trkpt>
      <trkpt lat="45.65962" lon="6.52941">
        <ele>1723</ele>
        <time>2025-03-29T08:47:39Z</time>
      </trkpt>
      <trkpt lat="45.65961" lon="6.52946">
        <ele>1724</ele>
        <time>2025-03-29T08:47:51Z</time>
      </trkpt>
      <trkpt lat="45.65958" lon="6.52949">
        <ele>1726</ele>
        <time>2025-03-29T08:48:00Z</time>
      </trkpt>
      <trkpt lat="45.65956" lon="6.52951">
        <ele>1727</ele>
        <time>2025-03-29T08:48:10Z</time>
      </trkpt>
      <trkpt lat="45.65952" lon="6.52953">
        <ele>1727</ele>
        <time>2025-03-29T08:48:16Z</time>
      </trkpt>
      <trkpt lat="45.6595" lon="6.52953">
        <ele>1727</ele>
        <time>2025-03-29T08:48:20Z</time>
      </trkpt>
      <trkpt lat="45.65947" lon="6.5295">
        <ele>1728</ele>
        <time>2025-03-29T08:48:28Z</time>
      </trkpt>
      <trkpt lat="45.6595" lon="6.52946">
        <ele>1728</ele>
        <time>2025-03-29T08:48:55Z</time>
      </trkpt>
      <trkpt lat="45.65952" lon="6.5294">
        <ele>1728</ele>
        <time>2025-03-29T08:49:05Z</time>
      </trkpt>
      <trkpt lat="45.65949" lon="6.52937">
        <ele>1730</ele>
        <time>2025-03-29T08:49:19Z</time>
      </trkpt>
      <trkpt lat="45.65949" lon="6.52933">
        <ele>1729</ele>
        <time>2025-03-29T08:50:14Z</time>
      </trkpt>
      <trkpt lat="45.6595" lon="6.52929">
        <ele>1731</ele>
        <time>2025-03-29T08:50:54Z</time>
      </trkpt>
      <trkpt lat="45.65953" lon="6.52926">
        <ele>1732</ele>
        <time>2025-03-29T08:51:50Z</time>
      </trkpt>
      <trkpt lat="45.65954" lon="6.52923">
        <ele>1731</ele>
        <time>2025-03-29T08:52:02Z</time>
      </trkpt>
      <trkpt lat="45.65953" lon="6.52918">
        <ele>1731</ele>
        <time>2025-03-29T08:52:10Z</time>
      </trkpt>
      <trkpt lat="45.6595" lon="6.52913">
        <ele>1732</ele>
        <time>2025-03-29T08:52:16Z</time>
      </trkpt>
      <trkpt lat="45.65947" lon="6.52915">
        <ele>1733</ele>
        <time>2025-03-29T08:52:26Z</time>
      </trkpt>
      <trkpt lat="45.65945" lon="6.52917">
        <ele>1734</ele>
        <time>2025-03-29T08:52:32Z</time>
      </trkpt>
      <trkpt lat="45.65942" lon="6.52923">
        <ele>1734</ele>
        <time>2025-03-29T08:52:40Z</time>
      </trkpt>
      <trkpt lat="45.65939" lon="6.52922">
        <ele>1734</ele>
        <time>2025-03-29T08:52:46Z</time>
      </trkpt>
      <trkpt lat="45.65936" lon="6.52921">
        <ele>1736</ele>
        <time>2025-03-29T08:52:50Z</time>
      </trkpt>
      <trkpt lat="45.65933" lon="6.52921">
        <ele>1737</ele>
        <time>2025-03-29T08:52:58Z</time>
      </trkpt>
      <trkpt lat="45.65931" lon="6.52924">
        <ele>1739</ele>
        <time>2025-03-29T08:53:04Z</time>
      </trkpt>
      <trkpt lat="45.65928" lon="6.52925">
        <ele>1740</ele>
        <time>2025-03-29T08:53:12Z</time>
      </trkpt>
      <trkpt lat="45.65928" lon="6.5292">
        <ele>1741</ele>
        <time>2025-03-29T08:53:20Z</time>
      </trkpt>
      <trkpt lat="45.65928" lon="6.52915">
        <ele>1744</ele>
        <time>2025-03-29T08:53:28Z</time>
      </trkpt>
      <trkpt lat="45.65925" lon="6.52914">
        <ele>1745</ele>
        <time>2025-03-29T08:53:36Z</time>
      </trkpt>
      <trkpt lat="45.65922" lon="6.52913">
        <ele>1746</ele>
        <time>2025-03-29T08:53:42Z</time>
      </trkpt>
      <trkpt lat="45.65923" lon="6.52909">
        <ele>1748</ele>
        <time>2025-03-29T08:53:56Z</time>
      </trkpt>
      <trkpt lat="45.65923" lon="6.52904">
        <ele>1749</ele>
        <time>2025-03-29T08:54:02Z</time>
      </trkpt>
      <trkpt lat="45.65921" lon="6.52901">
        <ele>1749</ele>
        <time>2025-03-29T08:54:14Z</time>
      </trkpt>
      <trkpt lat="45.65918" lon="6.52902">
        <ele>1750</ele>
        <time>2025-03-29T08:54:20Z</time>
      </trkpt>
      <trkpt lat="45.65914" lon="6.52902">
        <ele>1752</ele>
        <time>2025-03-29T08:54:28Z</time>
      </trkpt>
      <trkpt lat="45.65913" lon="6.52899">
        <ele>1753</ele>
        <time>2025-03-29T08:54:36Z</time>
      </trkpt>
      <trkpt lat="45.65915" lon="6.52895">
        <ele>1754</ele>
        <time>2025-03-29T08:54:42Z</time>
      </trkpt>
      <trkpt lat="45.65914" lon="6.5289">
        <ele>1754</ele>
        <time>2025-03-29T08:54:54Z</time>
      </trkpt>
      <trkpt lat="45.65913" lon="6.52886">
        <ele>1755</ele>
        <time>2025-03-29T08:55:00Z</time>
      </trkpt>
      <trkpt lat="45.65911" lon="6.52881">
        <ele>1756</ele>
        <time>2025-03-29T08:55:10Z</time>
      </trkpt>
      <trkpt lat="45.65912" lon="6.52876">
        <ele>1757</ele>
        <time>2025-03-29T08:55:16Z</time>
      </trkpt>
      <trkpt lat="45.65912" lon="6.52871">
        <ele>1759</ele>
        <time>2025-03-29T08:55:22Z</time>
      </trkpt>
      <trkpt lat="45.65909" lon="6.52868">
        <ele>1759</ele>
        <time>2025-03-29T08:55:28Z</time>
      </trkpt>
      <trkpt lat="45.65906" lon="6.5287">
        <ele>1760</ele>
        <time>2025-03-29T08:55:32Z</time>
      </trkpt>
      <trkpt lat="45.65907" lon="6.52866">
        <ele>1761</ele>
        <time>2025-03-29T08:55:40Z</time>
      </trkpt>
      <trkpt lat="45.65903" lon="6.52864">
        <ele>1763</ele>
        <time>2025-03-29T08:55:52Z</time>
      </trkpt>
      <trkpt lat="45.65896" lon="6.52862">
        <ele>1765</ele>
        <time>2025-03-29T08:56:06Z</time>
      </trkpt>
      <trkpt lat="45.65894" lon="6.52859">
        <ele>1766</ele>
        <time>2025-03-29T08:56:26Z</time>
      </trkpt>
      <trkpt lat="45.65894" lon="6.52855">
        <ele>1767</ele>
        <time>2025-03-29T08:56:32Z</time>
      </trkpt>
      <trkpt lat="45.65892" lon="6.52854">
        <ele>1769</ele>
        <time>2025-03-29T08:56:42Z</time>
      </trkpt>
      <trkpt lat="45.65889" lon="6.52855">
        <ele>1770</ele>
        <time>2025-03-29T08:56:48Z</time>
      </trkpt>
      <trkpt lat="45.65885" lon="6.52855">
        <ele>1771</ele>
        <time>2025-03-29T08:56:54Z</time>
      </trkpt>
      <trkpt lat="45.65885" lon="6.5285">
        <ele>1771</ele>
        <time>2025-03-29T08:57:11Z</time>
      </trkpt>
      <trkpt lat="45.65887" lon="6.52848">
        <ele>1773</ele>
        <time>2025-03-29T08:57:22Z</time>
      </trkpt>
      <trkpt lat="45.65883" lon="6.52848">
        <ele>1774</ele>
        <time>2025-03-29T08:57:35Z</time>
      </trkpt>
      <trkpt lat="45.6588" lon="6.52847">
        <ele>1774</ele>
        <time>2025-03-29T08:57:43Z</time>
      </trkpt>
      <trkpt lat="45.65881" lon="6.52843">
        <ele>1775</ele>
        <time>2025-03-29T08:57:55Z</time>
      </trkpt>
      <trkpt lat="45.65878" lon="6.52845">
        <ele>1776</ele>
        <time>2025-03-29T08:58:27Z</time>
      </trkpt>
      <trkpt lat="45.65876" lon="6.52841">
        <ele>1779</ele>
        <time>2025-03-29T08:58:35Z</time>
      </trkpt>
      <trkpt lat="45.65871" lon="6.52834">
        <ele>1783</ele>
        <time>2025-03-29T08:58:44Z</time>
      </trkpt>
      <trkpt lat="45.65867" lon="6.52825">
        <ele>1785</ele>
        <time>2025-03-29T08:58:55Z</time>
      </trkpt>
      <trkpt lat="45.65866" lon="6.5282">
        <ele>1785</ele>
        <time>2025-03-29T08:59:00Z</time>
      </trkpt>
      <trkpt lat="45.65863" lon="6.52814">
        <ele>1786</ele>
        <time>2025-03-29T08:59:08Z</time>
      </trkpt>
      <trkpt lat="45.65863" lon="6.52808">
        <ele>1788</ele>
        <time>2025-03-29T08:59:18Z</time>
      </trkpt>
      <trkpt lat="45.65861" lon="6.52803">
        <ele>1789</ele>
        <time>2025-03-29T08:59:27Z</time>
      </trkpt>
      <trkpt lat="45.65859" lon="6.528">
        <ele>1789</ele>
        <time>2025-03-29T09:00:08Z</time>
      </trkpt>
      <trkpt lat="45.65854" lon="6.528">
        <ele>1788</ele>
        <time>2025-03-29T09:00:16Z</time>
      </trkpt>
      <trkpt lat="45.65851" lon="6.528">
        <ele>1788</ele>
        <time>2025-03-29T09:00:25Z</time>
      </trkpt>
      <trkpt lat="45.65847" lon="6.52798">
        <ele>1788</ele>
        <time>2025-03-29T09:00:31Z</time>
      </trkpt>
      <trkpt lat="45.65843" lon="6.52795">
        <ele>1789</ele>
        <time>2025-03-29T09:00:45Z</time>
      </trkpt>
      <trkpt lat="45.65839" lon="6.52785">
        <ele>1794</ele>
        <time>2025-03-29T09:01:16Z</time>
      </trkpt>
      <trkpt lat="45.6584" lon="6.5278">
        <ele>1794</ele>
        <time>2025-03-29T09:01:26Z</time>
      </trkpt>
      <trkpt lat="45.65842" lon="6.52777">
        <ele>1797</ele>
        <time>2025-03-29T09:01:58Z</time>
      </trkpt>
      <trkpt lat="45.65841" lon="6.52776">
        <ele>1799</ele>
        <time>2025-03-29T09:03:13Z</time>
      </trkpt>
      <trkpt lat="45.65838" lon="6.52775">
        <ele>1799</ele>
        <time>2025-03-29T09:05:50Z</time>
      </trkpt>
      <trkpt lat="45.65836" lon="6.52772">
        <ele>1788</ele>
        <time>2025-03-29T09:06:17Z</time>
      </trkpt>
      <trkpt lat="45.65839" lon="6.52773">
        <ele>1786</ele>
        <time>2025-03-29T09:08:18Z</time>
      </trkpt>
      <trkpt lat="45.65837" lon="6.52777">
        <ele>1787</ele>
        <time>2025-03-29T09:14:31Z</time>
      </trkpt>
      <trkpt lat="45.65834" lon="6.52778">
        <ele>1787</ele>
        <time>2025-03-29T09:14:41Z</time>
      </trkpt>
      <trkpt lat="45.6583" lon="6.52779">
        <ele>1790</ele>
        <time>2025-03-29T09:14:47Z</time>
      </trkpt>
      <trkpt lat="45.65826" lon="6.52779">
        <ele>1791</ele>
        <time>2025-03-29T09:14:54Z</time>
      </trkpt>
      <trkpt lat="45.65823" lon="6.5278">
        <ele>1793</ele>
        <time>2025-03-29T09:14:59Z</time>
      </trkpt>
      <trkpt lat="45.65819" lon="6.52782">
        <ele>1794</ele>
        <time>2025-03-29T09:15:08Z</time>
      </trkpt>
      <trkpt lat="45.65815" lon="6.52783">
        <ele>1796</ele>
        <time>2025-03-29T09:15:14Z</time>
      </trkpt>
      <trkpt lat="45.65811" lon="6.52783">
        <ele>1797</ele>
        <time>2025-03-29T09:15:20Z</time>
      </trkpt>
      <trkpt lat="45.6581" lon="6.52779">
        <ele>1801</ele>
        <time>2025-03-29T09:15:31Z</time>
      </trkpt>
      <trkpt lat="45.6581" lon="6.52774">
        <ele>1803</ele>
        <time>2025-03-29T09:15:37Z</time>
      </trkpt>
      <trkpt lat="45.65809" lon="6.52768">
        <ele>1806</ele>
        <time>2025-03-29T09:15:45Z</time>
      </trkpt>
      <trkpt lat="45.65811" lon="6.52763">
        <ele>1807</ele>
        <time>2025-03-29T09:15:53Z</time>
      </trkpt>
      <trkpt lat="45.65811" lon="6.52757">
        <ele>1809</ele>
        <time>2025-03-29T09:15:59Z</time>
      </trkpt>
      <trkpt lat="45.65813" lon="6.52746">
        <ele>1811</ele>
        <time>2025-03-29T09:16:07Z</time>
      </trkpt>
      <trkpt lat="45.65813" lon="6.52739">
        <ele>1811</ele>
        <time>2025-03-29T09:16:16Z</time>
      </trkpt>
      <trkpt lat="45.65809" lon="6.52729">
        <ele>1812</ele>
        <time>2025-03-29T09:16:27Z</time>
      </trkpt>
      <trkpt lat="45.65808" lon="6.52722">
        <ele>1812</ele>
        <time>2025-03-29T09:16:32Z</time>
      </trkpt>
      <trkpt lat="45.65807" lon="6.5271">
        <ele>1813</ele>
        <time>2025-03-29T09:16:42Z</time>
      </trkpt>
      <trkpt lat="45.65802" lon="6.52685">
        <ele>1815</ele>
        <time>2025-03-29T09:16:59Z</time>
      </trkpt>
      <trkpt lat="45.65803" lon="6.52665">
        <ele>1815</ele>
        <time>2025-03-29T09:17:14Z</time>
      </trkpt>
      <trkpt lat="45.65802" lon="6.52659">
        <ele>1815</ele>
        <time>2025-03-29T09:17:18Z</time>
      </trkpt>
      <trkpt lat="45.65797" lon="6.5264">
        <ele>1818</ele>
        <time>2025-03-29T09:17:39Z</time>
      </trkpt>
      <trkpt lat="45.65795" lon="6.52645">
        <ele>1819</ele>
        <time>2025-03-29T09:17:55Z</time>
      </trkpt>
      <trkpt lat="45.65794" lon="6.52649">
        <ele>1818</ele>
        <time>2025-03-29T09:18:02Z</time>
      </trkpt>
      <trkpt lat="45.6579" lon="6.52661">
        <ele>1817</ele>
        <time>2025-03-29T09:18:16Z</time>
      </trkpt>
      <trkpt lat="45.65788" lon="6.52665">
        <ele>1817</ele>
        <time>2025-03-29T09:18:22Z</time>
      </trkpt>
      <trkpt lat="45.65787" lon="6.52669">
        <ele>1817</ele>
        <time>2025-03-29T09:18:26Z</time>
      </trkpt>
      <trkpt lat="45.65786" lon="6.52673">
        <ele>1818</ele>
        <time>2025-03-29T09:18:31Z</time>
      </trkpt>
      <trkpt lat="45.65786" lon="6.52677">
        <ele>1818</ele>
        <time>2025-03-29T09:18:35Z</time>
      </trkpt>
      <trkpt lat="45.65786" lon="6.52681">
        <ele>1819</ele>
        <time>2025-03-29T09:18:38Z</time>
      </trkpt>
      <trkpt lat="45.65784" lon="6.52691">
        <ele>1821</ele>
        <time>2025-03-29T09:18:49Z</time>
      </trkpt>
      <trkpt lat="45.65783" lon="6.52696">
        <ele>1822</ele>
        <time>2025-03-29T09:18:55Z</time>
      </trkpt>
      <trkpt lat="45.65781" lon="6.52693">
        <ele>1823</ele>
        <time>2025-03-29T09:19:07Z</time>
      </trkpt>
      <trkpt lat="45.6578" lon="6.52687">
        <ele>1824</ele>
        <time>2025-03-29T09:19:13Z</time>
      </trkpt>
      <trkpt lat="45.65776" lon="6.52681">
        <ele>1826</ele>
        <time>2025-03-29T09:19:22Z</time>
      </trkpt>
      <trkpt lat="45.65772" lon="6.52681">
        <ele>1827</ele>
        <time>2025-03-29T09:19:34Z</time>
      </trkpt>
      <trkpt lat="45.6577" lon="6.52678">
        <ele>1828</ele>
        <time>2025-03-29T09:19:40Z</time>
      </trkpt>
      <trkpt lat="45.65768" lon="6.52673">
        <ele>1830</ele>
        <time>2025-03-29T09:20:01Z</time>
      </trkpt>
      <trkpt lat="45.65764" lon="6.52675">
        <ele>1831</ele>
        <time>2025-03-29T09:21:26Z</time>
      </trkpt>
      <trkpt lat="45.65761" lon="6.52679">
        <ele>1831</ele>
        <time>2025-03-29T09:21:30Z</time>
      </trkpt>
      <trkpt lat="45.65761" lon="6.52684">
        <ele>1830</ele>
        <time>2025-03-29T09:21:34Z</time>
      </trkpt>
      <trkpt lat="45.65759" lon="6.52689">
        <ele>1830</ele>
        <time>2025-03-29T09:21:38Z</time>
      </trkpt>
      <trkpt lat="45.65756" lon="6.52692">
        <ele>1831</ele>
        <time>2025-03-29T09:21:43Z</time>
      </trkpt>
      <trkpt lat="45.65755" lon="6.52696">
        <ele>1832</ele>
        <time>2025-03-29T09:21:47Z</time>
      </trkpt>
      <trkpt lat="45.65752" lon="6.52698">
        <ele>1832</ele>
        <time>2025-03-29T09:21:50Z</time>
      </trkpt>
      <trkpt lat="45.65751" lon="6.52704">
        <ele>1833</ele>
        <time>2025-03-29T09:21:56Z</time>
      </trkpt>
      <trkpt lat="45.6575" lon="6.52708">
        <ele>1832</ele>
        <time>2025-03-29T09:22:00Z</time>
      </trkpt>
      <trkpt lat="45.65749" lon="6.5271">
        <ele>1833</ele>
        <time>2025-03-29T09:22:04Z</time>
      </trkpt>
      <trkpt lat="45.65748" lon="6.52706">
        <ele>1834</ele>
        <time>2025-03-29T09:22:10Z</time>
      </trkpt>
      <trkpt lat="45.65746" lon="6.52703">
        <ele>1834</ele>
        <time>2025-03-29T09:22:16Z</time>
      </trkpt>
      <trkpt lat="45.65743" lon="6.52706">
        <ele>1837</ele>
        <time>2025-03-29T09:22:28Z</time>
      </trkpt>
      <trkpt lat="45.65736" lon="6.52702">
        <ele>1840</ele>
        <time>2025-03-29T09:22:43Z</time>
      </trkpt>
      <trkpt lat="45.65735" lon="6.52692">
        <ele>1841</ele>
        <time>2025-03-29T09:22:51Z</time>
      </trkpt>
      <trkpt lat="45.65731" lon="6.5269">
        <ele>1842</ele>
        <time>2025-03-29T09:22:55Z</time>
      </trkpt>
      <trkpt lat="45.65727" lon="6.52691">
        <ele>1841</ele>
        <time>2025-03-29T09:22:59Z</time>
      </trkpt>
      <trkpt lat="45.65723" lon="6.52691">
        <ele>1841</ele>
        <time>2025-03-29T09:23:05Z</time>
      </trkpt>
      <trkpt lat="45.65721" lon="6.52687">
        <ele>1842</ele>
        <time>2025-03-29T09:23:15Z</time>
      </trkpt>
      <trkpt lat="45.65721" lon="6.52683">
        <ele>1843</ele>
        <time>2025-03-29T09:23:21Z</time>
      </trkpt>
      <trkpt lat="45.6572" lon="6.52678">
        <ele>1843</ele>
        <time>2025-03-29T09:23:26Z</time>
      </trkpt>
      <trkpt lat="45.65717" lon="6.5268">
        <ele>1844</ele>
        <time>2025-03-29T09:23:32Z</time>
      </trkpt>
      <trkpt lat="45.65716" lon="6.52684">
        <ele>1844</ele>
        <time>2025-03-29T09:23:38Z</time>
      </trkpt>
      <trkpt lat="45.65711" lon="6.52696">
        <ele>1845</ele>
        <time>2025-03-29T09:23:57Z</time>
      </trkpt>
      <trkpt lat="45.65708" lon="6.52696">
        <ele>1847</ele>
        <time>2025-03-29T09:24:11Z</time>
      </trkpt>
      <trkpt lat="45.65706" lon="6.52692">
        <ele>1848</ele>
        <time>2025-03-29T09:24:17Z</time>
      </trkpt>
      <trkpt lat="45.65704" lon="6.52689">
        <ele>1849</ele>
        <time>2025-03-29T09:24:25Z</time>
      </trkpt>
      <trkpt lat="45.65701" lon="6.52686">
        <ele>1849</ele>
        <time>2025-03-29T09:24:35Z</time>
      </trkpt>
      <trkpt lat="45.65698" lon="6.52682">
        <ele>1851</ele>
        <time>2025-03-29T09:24:42Z</time>
      </trkpt>
      <trkpt lat="45.65696" lon="6.52682">
        <ele>1851</ele>
        <time>2025-03-29T09:24:58Z</time>
      </trkpt>
      <trkpt lat="45.65692" lon="6.52682">
        <ele>1852</ele>
        <time>2025-03-29T09:25:31Z</time>
      </trkpt>
      <trkpt lat="45.65689" lon="6.52683">
        <ele>1853</ele>
        <time>2025-03-29T09:25:36Z</time>
      </trkpt>
      <trkpt lat="45.65686" lon="6.52681">
        <ele>1854</ele>
        <time>2025-03-29T09:25:42Z</time>
      </trkpt>
      <trkpt lat="45.65684" lon="6.52678">
        <ele>1859</ele>
        <time>2025-03-29T09:29:52Z</time>
      </trkpt>
      <trkpt lat="45.65681" lon="6.52679">
        <ele>1859</ele>
        <time>2025-03-29T09:30:02Z</time>
      </trkpt>
      <trkpt lat="45.65679" lon="6.52675">
        <ele>1859</ele>
        <time>2025-03-29T09:30:11Z</time>
      </trkpt>
      <trkpt lat="45.65677" lon="6.52664">
        <ele>1863</ele>
        <time>2025-03-29T09:30:26Z</time>
      </trkpt>
      <trkpt lat="45.65674" lon="6.5266">
        <ele>1863</ele>
        <time>2025-03-29T09:30:30Z</time>
      </trkpt>
      <trkpt lat="45.65674" lon="6.52645">
        <ele>1865</ele>
        <time>2025-03-29T09:30:48Z</time>
      </trkpt>
      <trkpt lat="45.65674" lon="6.52635">
        <ele>1865</ele>
        <time>2025-03-29T09:30:59Z</time>
      </trkpt>
      <trkpt lat="45.65671" lon="6.52632">
        <ele>1865</ele>
        <time>2025-03-29T09:31:07Z</time>
      </trkpt>
      <trkpt lat="45.65663" lon="6.52629">
        <ele>1865</ele>
        <time>2025-03-29T09:31:20Z</time>
      </trkpt>
      <trkpt lat="45.65656" lon="6.52631">
        <ele>1866</ele>
        <time>2025-03-29T09:31:33Z</time>
      </trkpt>
      <trkpt lat="45.65654" lon="6.52628">
        <ele>1867</ele>
        <time>2025-03-29T09:31:42Z</time>
      </trkpt>
      <trkpt lat="45.65653" lon="6.52618">
        <ele>1870</ele>
        <time>2025-03-29T09:31:54Z</time>
      </trkpt>
      <trkpt lat="45.65652" lon="6.52613">
        <ele>1871</ele>
        <time>2025-03-29T09:31:58Z</time>
      </trkpt>
      <trkpt lat="45.6565" lon="6.52609">
        <ele>1872</ele>
        <time>2025-03-29T09:32:04Z</time>
      </trkpt>
      <trkpt lat="45.65648" lon="6.52606">
        <ele>1873</ele>
        <time>2025-03-29T09:32:09Z</time>
      </trkpt>
      <trkpt lat="45.65647" lon="6.52602">
        <ele>1874</ele>
        <time>2025-03-29T09:32:16Z</time>
      </trkpt>
      <trkpt lat="45.65648" lon="6.52597">
        <ele>1875</ele>
        <time>2025-03-29T09:32:20Z</time>
      </trkpt>
      <trkpt lat="45.65645" lon="6.52596">
        <ele>1876</ele>
        <time>2025-03-29T09:32:27Z</time>
      </trkpt>
      <trkpt lat="45.65641" lon="6.52598">
        <ele>1877</ele>
        <time>2025-03-29T09:32:35Z</time>
      </trkpt>
      <trkpt lat="45.65637" lon="6.52601">
        <ele>1879</ele>
        <time>2025-03-29T09:32:43Z</time>
      </trkpt>
      <trkpt lat="45.65635" lon="6.52603">
        <ele>1879</ele>
        <time>2025-03-29T09:32:47Z</time>
      </trkpt>
      <trkpt lat="45.65634" lon="6.52607">
        <ele>1879</ele>
        <time>2025-03-29T09:32:53Z</time>
      </trkpt>
      <trkpt lat="45.65632" lon="6.52604">
        <ele>1880</ele>
        <time>2025-03-29T09:33:04Z</time>
      </trkpt>
      <trkpt lat="45.6563" lon="6.52599">
        <ele>1881</ele>
        <time>2025-03-29T09:33:09Z</time>
      </trkpt>
      <trkpt lat="45.65628" lon="6.52589">
        <ele>1884</ele>
        <time>2025-03-29T09:33:23Z</time>
      </trkpt>
      <trkpt lat="45.65628" lon="6.52584">
        <ele>1885</ele>
        <time>2025-03-29T09:33:29Z</time>
      </trkpt>
      <trkpt lat="45.65628" lon="6.5258">
        <ele>1887</ele>
        <time>2025-03-29T09:33:35Z</time>
      </trkpt>
      <trkpt lat="45.65626" lon="6.52569">
        <ele>1888</ele>
        <time>2025-03-29T09:33:48Z</time>
      </trkpt>
      <trkpt lat="45.65626" lon="6.5256">
        <ele>1889</ele>
        <time>2025-03-29T09:33:57Z</time>
      </trkpt>
      <trkpt lat="45.65622" lon="6.52547">
        <ele>1892</ele>
        <time>2025-03-29T09:34:17Z</time>
      </trkpt>
      <trkpt lat="45.65622" lon="6.52541">
        <ele>1893</ele>
        <time>2025-03-29T09:34:24Z</time>
      </trkpt>
      <trkpt lat="45.65619" lon="6.52537">
        <ele>1894</ele>
        <time>2025-03-29T09:34:33Z</time>
      </trkpt>
      <trkpt lat="45.65615" lon="6.52529">
        <ele>1897</ele>
        <time>2025-03-29T09:34:42Z</time>
      </trkpt>
      <trkpt lat="45.65614" lon="6.52525">
        <ele>1898</ele>
        <time>2025-03-29T09:34:46Z</time>
      </trkpt>
      <trkpt lat="45.65613" lon="6.5252">
        <ele>1899</ele>
        <time>2025-03-29T09:34:54Z</time>
      </trkpt>
      <trkpt lat="45.65611" lon="6.52516">
        <ele>1899</ele>
        <time>2025-03-29T09:34:58Z</time>
      </trkpt>
      <trkpt lat="45.65609" lon="6.52512">
        <ele>1900</ele>
        <time>2025-03-29T09:35:03Z</time>
      </trkpt>
      <trkpt lat="45.65609" lon="6.52507">
        <ele>1900</ele>
        <time>2025-03-29T09:35:07Z</time>
      </trkpt>
      <trkpt lat="45.656" lon="6.5248">
        <ele>1904</ele>
        <time>2025-03-29T09:35:40Z</time>
      </trkpt>
      <trkpt lat="45.65599" lon="6.52475">
        <ele>1904</ele>
        <time>2025-03-29T09:35:46Z</time>
      </trkpt>
      <trkpt lat="45.65599" lon="6.52471">
        <ele>1906</ele>
        <time>2025-03-29T09:35:50Z</time>
      </trkpt>
      <trkpt lat="45.65595" lon="6.5246">
        <ele>1907</ele>
        <time>2025-03-29T09:36:04Z</time>
      </trkpt>
      <trkpt lat="45.65595" lon="6.52427">
        <ele>1910</ele>
        <time>2025-03-29T09:36:39Z</time>
      </trkpt>
      <trkpt lat="45.65592" lon="6.52409">
        <ele>1914</ele>
        <time>2025-03-29T09:36:57Z</time>
      </trkpt>
      <trkpt lat="45.6559" lon="6.52405">
        <ele>1915</ele>
        <time>2025-03-29T09:37:02Z</time>
      </trkpt>
      <trkpt lat="45.65589" lon="6.524">
        <ele>1915</ele>
        <time>2025-03-29T09:37:07Z</time>
      </trkpt>
      <trkpt lat="45.65586" lon="6.52387">
        <ele>1916</ele>
        <time>2025-03-29T09:37:23Z</time>
      </trkpt>
      <trkpt lat="45.65586" lon="6.52382">
        <ele>1917</ele>
        <time>2025-03-29T09:37:28Z</time>
      </trkpt>
      <trkpt lat="45.65583" lon="6.52373">
        <ele>1918</ele>
        <time>2025-03-29T09:37:39Z</time>
      </trkpt>
      <trkpt lat="45.65582" lon="6.52369">
        <ele>1918</ele>
        <time>2025-03-29T09:37:44Z</time>
      </trkpt>
      <trkpt lat="45.65579" lon="6.52365">
        <ele>1919</ele>
        <time>2025-03-29T09:37:50Z</time>
      </trkpt>
      <trkpt lat="45.65578" lon="6.52361">
        <ele>1919</ele>
        <time>2025-03-29T09:37:56Z</time>
      </trkpt>
      <trkpt lat="45.65578" lon="6.52356">
        <ele>1920</ele>
        <time>2025-03-29T09:38:02Z</time>
      </trkpt>
      <trkpt lat="45.65578" lon="6.52351">
        <ele>1920</ele>
        <time>2025-03-29T09:38:08Z</time>
      </trkpt>
      <trkpt lat="45.65577" lon="6.52346">
        <ele>1921</ele>
        <time>2025-03-29T09:38:13Z</time>
      </trkpt>
      <trkpt lat="45.65575" lon="6.52341">
        <ele>1921</ele>
        <time>2025-03-29T09:38:19Z</time>
      </trkpt>
      <trkpt lat="45.65575" lon="6.52336">
        <ele>1922</ele>
        <time>2025-03-29T09:38:24Z</time>
      </trkpt>
      <trkpt lat="45.65574" lon="6.52316">
        <ele>1924</ele>
        <time>2025-03-29T09:38:47Z</time>
      </trkpt>
      <trkpt lat="45.65571" lon="6.52311">
        <ele>1924</ele>
        <time>2025-03-29T09:38:53Z</time>
      </trkpt>
      <trkpt lat="45.65569" lon="6.52313">
        <ele>1927</ele>
        <time>2025-03-29T09:39:55Z</time>
      </trkpt>
      <trkpt lat="45.65581" lon="6.52359">
        <ele>1920</ele>
        <time>2025-03-29T09:40:14Z</time>
      </trkpt>
      <trkpt lat="45.65583" lon="6.52362">
        <ele>1919</ele>
        <time>2025-03-29T09:40:18Z</time>
      </trkpt>
      <trkpt lat="45.65585" lon="6.52366">
        <ele>1917</ele>
        <time>2025-03-29T09:40:24Z</time>
      </trkpt>
      <trkpt lat="45.65587" lon="6.5237">
        <ele>1916</ele>
        <time>2025-03-29T09:40:26Z</time>
      </trkpt>
      <trkpt lat="45.65595" lon="6.52369">
        <ele>1914</ele>
        <time>2025-03-29T09:40:31Z</time>
      </trkpt>
      <trkpt lat="45.65606" lon="6.52356">
        <ele>1912</ele>
        <time>2025-03-29T09:40:37Z</time>
      </trkpt>
      <trkpt lat="45.6561" lon="6.5235">
        <ele>1910</ele>
        <time>2025-03-29T09:40:40Z</time>
      </trkpt>
      <trkpt lat="45.65614" lon="6.52345">
        <ele>1910</ele>
        <time>2025-03-29T09:41:18Z</time>
      </trkpt>
      <trkpt lat="45.65618" lon="6.52337">
        <ele>1909</ele>
        <time>2025-03-29T09:41:22Z</time>
      </trkpt>
      <trkpt lat="45.65618" lon="6.52317">
        <ele>1907</ele>
        <time>2025-03-29T09:41:46Z</time>
      </trkpt>
      <trkpt lat="45.6562" lon="6.52289">
        <ele>1906</ele>
        <time>2025-03-29T09:42:02Z</time>
      </trkpt>
      <trkpt lat="45.65619" lon="6.52279">
        <ele>1905</ele>
        <time>2025-03-29T09:42:07Z</time>
      </trkpt>
      <trkpt lat="45.65617" lon="6.52275">
        <ele>1904</ele>
        <time>2025-03-29T09:42:13Z</time>
      </trkpt>
      <trkpt lat="45.65613" lon="6.52272">
        <ele>1904</ele>
        <time>2025-03-29T09:42:27Z</time>
      </trkpt>
      <trkpt lat="45.65606" lon="6.52271">
        <ele>1903</ele>
        <time>2025-03-29T09:42:35Z</time>
      </trkpt>
      <trkpt lat="45.65601" lon="6.52271">
        <ele>1902</ele>
        <time>2025-03-29T09:42:39Z</time>
      </trkpt>
      <trkpt lat="45.65599" lon="6.52268">
        <ele>1901</ele>
        <time>2025-03-29T09:42:58Z</time>
      </trkpt>
      <trkpt lat="45.65591" lon="6.52253">
        <ele>1901</ele>
        <time>2025-03-29T09:43:07Z</time>
      </trkpt>
      <trkpt lat="45.65582" lon="6.52216">
        <ele>1900</ele>
        <time>2025-03-29T09:43:24Z</time>
      </trkpt>
      <trkpt lat="45.6558" lon="6.52211">
        <ele>1900</ele>
        <time>2025-03-29T09:43:30Z</time>
      </trkpt>
      <trkpt lat="45.65578" lon="6.52207">
        <ele>1900</ele>
        <time>2025-03-29T09:43:34Z</time>
      </trkpt>
      <trkpt lat="45.65566" lon="6.52179">
        <ele>1903</ele>
        <time>2025-03-29T09:44:04Z</time>
      </trkpt>
      <trkpt lat="45.65565" lon="6.52175">
        <ele>1904</ele>
        <time>2025-03-29T09:44:08Z</time>
      </trkpt>
      <trkpt lat="45.65563" lon="6.52151">
        <ele>1904</ele>
        <time>2025-03-29T09:44:29Z</time>
      </trkpt>
      <trkpt lat="45.65563" lon="6.52141">
        <ele>1905</ele>
        <time>2025-03-29T09:44:38Z</time>
      </trkpt>
      <trkpt lat="45.6556" lon="6.52145">
        <ele>1905</ele>
        <time>2025-03-29T09:45:08Z</time>
      </trkpt>
      <trkpt lat="45.6555" lon="6.52164">
        <ele>1905</ele>
        <time>2025-03-29T09:45:29Z</time>
      </trkpt>
      <trkpt lat="45.65548" lon="6.52159">
        <ele>1906</ele>
        <time>2025-03-29T09:45:41Z</time>
      </trkpt>
      <trkpt lat="45.65546" lon="6.52154">
        <ele>1906</ele>
        <time>2025-03-29T09:45:47Z</time>
      </trkpt>
      <trkpt lat="45.65545" lon="6.52148">
        <ele>1907</ele>
        <time>2025-03-29T09:45:53Z</time>
      </trkpt>
      <trkpt lat="45.65545" lon="6.52143">
        <ele>1908</ele>
        <time>2025-03-29T09:46:00Z</time>
      </trkpt>
      <trkpt lat="45.65545" lon="6.52137">
        <ele>1909</ele>
        <time>2025-03-29T09:46:04Z</time>
      </trkpt>
      <trkpt lat="45.65544" lon="6.52131">
        <ele>1911</ele>
        <time>2025-03-29T09:46:11Z</time>
      </trkpt>
      <trkpt lat="45.65543" lon="6.52125">
        <ele>1912</ele>
        <time>2025-03-29T09:46:16Z</time>
      </trkpt>
      <trkpt lat="45.65543" lon="6.52121">
        <ele>1913</ele>
        <time>2025-03-29T09:46:20Z</time>
      </trkpt>
      <trkpt lat="45.65544" lon="6.52116">
        <ele>1913</ele>
        <time>2025-03-29T09:46:24Z</time>
      </trkpt>
      <trkpt lat="45.65544" lon="6.52111">
        <ele>1913</ele>
        <time>2025-03-29T09:46:30Z</time>
      </trkpt>
      <trkpt lat="45.65544" lon="6.52104">
        <ele>1914</ele>
        <time>2025-03-29T09:46:40Z</time>
      </trkpt>
      <trkpt lat="45.65545" lon="6.52099">
        <ele>1915</ele>
        <time>2025-03-29T09:46:45Z</time>
      </trkpt>
      <trkpt lat="45.65547" lon="6.52093">
        <ele>1917</ele>
        <time>2025-03-29T09:46:52Z</time>
      </trkpt>
      <trkpt lat="45.65542" lon="6.52079">
        <ele>1920</ele>
        <time>2025-03-29T09:47:07Z</time>
      </trkpt>
      <trkpt lat="45.65539" lon="6.52079">
        <ele>1920</ele>
        <time>2025-03-29T09:47:11Z</time>
      </trkpt>
      <trkpt lat="45.65532" lon="6.52066">
        <ele>1922</ele>
        <time>2025-03-29T09:47:24Z</time>
      </trkpt>
      <trkpt lat="45.65529" lon="6.52061">
        <ele>1922</ele>
        <time>2025-03-29T09:47:29Z</time>
      </trkpt>
      <trkpt lat="45.65528" lon="6.52057">
        <ele>1922</ele>
        <time>2025-03-29T09:47:35Z</time>
      </trkpt>
      <trkpt lat="45.65522" lon="6.5205">
        <ele>1922</ele>
        <time>2025-03-29T09:47:42Z</time>
      </trkpt>
      <trkpt lat="45.65508" lon="6.52035">
        <ele>1924</ele>
        <time>2025-03-29T09:48:03Z</time>
      </trkpt>
      <trkpt lat="45.65501" lon="6.52031">
        <ele>1924</ele>
        <time>2025-03-29T09:48:11Z</time>
      </trkpt>
      <trkpt lat="45.65495" lon="6.5202">
        <ele>1925</ele>
        <time>2025-03-29T09:48:20Z</time>
      </trkpt>
      <trkpt lat="45.65492" lon="6.52017">
        <ele>1925</ele>
        <time>2025-03-29T09:48:25Z</time>
      </trkpt>
      <trkpt lat="45.6549" lon="6.52016">
        <ele>1925</ele>
        <time>2025-03-29T09:49:16Z</time>
      </trkpt>
      <trkpt lat="45.65481" lon="6.52015">
        <ele>1927</ele>
        <time>2025-03-29T09:49:27Z</time>
      </trkpt>
      <trkpt lat="45.65474" lon="6.52012">
        <ele>1928</ele>
        <time>2025-03-29T09:49:35Z</time>
      </trkpt>
      <trkpt lat="45.65456" lon="6.52011">
        <ele>1931</ele>
        <time>2025-03-29T09:49:59Z</time>
      </trkpt>
      <trkpt lat="45.65453" lon="6.52011">
        <ele>1931</ele>
        <time>2025-03-29T09:50:04Z</time>
      </trkpt>
      <trkpt lat="45.6545" lon="6.52012">
        <ele>1930</ele>
        <time>2025-03-29T09:50:08Z</time>
      </trkpt>
      <trkpt lat="45.65431" lon="6.5201">
        <ele>1931</ele>
        <time>2025-03-29T09:50:38Z</time>
      </trkpt>
      <trkpt lat="45.65415" lon="6.52008">
        <ele>1932</ele>
        <time>2025-03-29T09:51:28Z</time>
      </trkpt>
      <trkpt lat="45.65412" lon="6.52009">
        <ele>1932</ele>
        <time>2025-03-29T09:51:44Z</time>
      </trkpt>
      <trkpt lat="45.65382" lon="6.51995">
        <ele>1931</ele>
        <time>2025-03-29T09:52:02Z</time>
      </trkpt>
      <trkpt lat="45.6534" lon="6.5196">
        <ele>1927</ele>
        <time>2025-03-29T09:52:33Z</time>
      </trkpt>
      <trkpt lat="45.65305" lon="6.51936">
        <ele>1925</ele>
        <time>2025-03-29T09:53:05Z</time>
      </trkpt>
      <trkpt lat="45.6527" lon="6.51918">
        <ele>1925</ele>
        <time>2025-03-29T09:53:39Z</time>
      </trkpt>
      <trkpt lat="45.65235" lon="6.51894">
        <ele>1925</ele>
        <time>2025-03-29T09:54:11Z</time>
      </trkpt>
      <trkpt lat="45.65227" lon="6.5189">
        <ele>1926</ele>
        <time>2025-03-29T09:54:23Z</time>
      </trkpt>
      <trkpt lat="45.65224" lon="6.51888">
        <ele>1926</ele>
        <time>2025-03-29T09:54:28Z</time>
      </trkpt>
      <trkpt lat="45.65214" lon="6.51879">
        <ele>1926</ele>
        <time>2025-03-29T09:54:44Z</time>
      </trkpt>
      <trkpt lat="45.65211" lon="6.51879">
        <ele>1926</ele>
        <time>2025-03-29T09:54:48Z</time>
      </trkpt>
      <trkpt lat="45.65204" lon="6.51876">
        <ele>1927</ele>
        <time>2025-03-29T09:54:56Z</time>
      </trkpt>
      <trkpt lat="45.65187" lon="6.51868">
        <ele>1927</ele>
        <time>2025-03-29T09:55:31Z</time>
      </trkpt>
      <trkpt lat="45.65184" lon="6.51868">
        <ele>1927</ele>
        <time>2025-03-29T09:55:35Z</time>
      </trkpt>
      <trkpt lat="45.6518" lon="6.51867">
        <ele>1928</ele>
        <time>2025-03-29T09:55:39Z</time>
      </trkpt>
      <trkpt lat="45.65163" lon="6.5185">
        <ele>1927</ele>
        <time>2025-03-29T09:55:55Z</time>
      </trkpt>
      <trkpt lat="45.65158" lon="6.51847">
        <ele>1927</ele>
        <time>2025-03-29T09:56:00Z</time>
      </trkpt>
      <trkpt lat="45.65134" lon="6.51827">
        <ele>1928</ele>
        <time>2025-03-29T09:56:32Z</time>
      </trkpt>
      <trkpt lat="45.65133" lon="6.51825">
        <ele>1928</ele>
        <time>2025-03-29T09:59:24Z</time>
      </trkpt>
      <trkpt lat="45.65118" lon="6.51818">
        <ele>1928</ele>
        <time>2025-03-29T09:59:42Z</time>
      </trkpt>
      <trkpt lat="45.65111" lon="6.51815">
        <ele>1928</ele>
        <time>2025-03-29T09:59:49Z</time>
      </trkpt>
      <trkpt lat="45.65098" lon="6.51808">
        <ele>1929</ele>
        <time>2025-03-29T10:00:05Z</time>
      </trkpt>
      <trkpt lat="45.65092" lon="6.51803">
        <ele>1929</ele>
        <time>2025-03-29T10:00:11Z</time>
      </trkpt>
      <trkpt lat="45.65068" lon="6.5179">
        <ele>1930</ele>
        <time>2025-03-29T10:00:43Z</time>
      </trkpt>
      <trkpt lat="45.65042" lon="6.51772">
        <ele>1930</ele>
        <time>2025-03-29T10:01:14Z</time>
      </trkpt>
      <trkpt lat="45.6503" lon="6.51764">
        <ele>1931</ele>
        <time>2025-03-29T10:01:29Z</time>
      </trkpt>
      <trkpt lat="45.65013" lon="6.51754">
        <ele>1931</ele>
        <time>2025-03-29T10:01:48Z</time>
      </trkpt>
      <trkpt lat="45.64988" lon="6.51751">
        <ele>1934</ele>
        <time>2025-03-29T10:02:20Z</time>
      </trkpt>
      <trkpt lat="45.64971" lon="6.51751">
        <ele>1937</ele>
        <time>2025-03-29T10:02:41Z</time>
      </trkpt>
      <trkpt lat="45.64965" lon="6.51754">
        <ele>1938</ele>
        <time>2025-03-29T10:02:49Z</time>
      </trkpt>
      <trkpt lat="45.64962" lon="6.51755">
        <ele>1939</ele>
        <time>2025-03-29T10:02:52Z</time>
      </trkpt>
      <trkpt lat="45.64956" lon="6.51761">
        <ele>1940</ele>
        <time>2025-03-29T10:03:03Z</time>
      </trkpt>
      <trkpt lat="45.64955" lon="6.51762">
        <ele>1941</ele>
        <time>2025-03-29T10:03:20Z</time>
      </trkpt>
      <trkpt lat="45.64955" lon="6.51764">
        <ele>1940</ele>
        <time>2025-03-29T10:03:59Z</time>
      </trkpt>
      <trkpt lat="45.64954" lon="6.51765">
        <ele>1941</ele>
        <time>2025-03-29T10:07:24Z</time>
      </trkpt>
      <trkpt lat="45.64953" lon="6.51768">
        <ele>1941</ele>
        <time>2025-03-29T10:09:11Z</time>
      </trkpt>
      <trkpt lat="45.64951" lon="6.51777">
        <ele>1942</ele>
        <time>2025-03-29T10:09:23Z</time>
      </trkpt>
      <trkpt lat="45.64951" lon="6.51781">
        <ele>1943</ele>
        <time>2025-03-29T10:09:27Z</time>
      </trkpt>
      <trkpt lat="45.64952" lon="6.51785">
        <ele>1944</ele>
        <time>2025-03-29T10:09:33Z</time>
      </trkpt>
      <trkpt lat="45.64956" lon="6.51787">
        <ele>1947</ele>
        <time>2025-03-29T10:09:47Z</time>
      </trkpt>
      <trkpt lat="45.64956" lon="6.51784">
        <ele>1947</ele>
        <time>2025-03-29T10:17:08Z</time>
      </trkpt>
      <trkpt lat="45.64951" lon="6.51785">
        <ele>1947</ele>
        <time>2025-03-29T10:20:10Z</time>
      </trkpt>
      <trkpt lat="45.64947" lon="6.51782">
        <ele>1947</ele>
        <time>2025-03-29T10:20:14Z</time>
      </trkpt>
      <trkpt lat="45.64948" lon="6.51774">
        <ele>1946</ele>
        <time>2025-03-29T10:20:16Z</time>
      </trkpt>
      <trkpt lat="45.6495" lon="6.51764">
        <ele>1945</ele>
        <time>2025-03-29T10:20:19Z</time>
      </trkpt>
      <trkpt lat="45.64942" lon="6.51761">
        <ele>1944</ele>
        <time>2025-03-29T10:20:21Z</time>
      </trkpt>
      <trkpt lat="45.6494" lon="6.51753">
        <ele>1942</ele>
        <time>2025-03-29T10:20:23Z</time>
      </trkpt>
      <trkpt lat="45.64933" lon="6.51748">
        <ele>1940</ele>
        <time>2025-03-29T10:20:25Z</time>
      </trkpt>
      <trkpt lat="45.64927" lon="6.51736">
        <ele>1938</ele>
        <time>2025-03-29T10:20:28Z</time>
      </trkpt>
      <trkpt lat="45.64924" lon="6.51726">
        <ele>1936</ele>
        <time>2025-03-29T10:20:30Z</time>
      </trkpt>
      <trkpt lat="45.6492" lon="6.51718">
        <ele>1934</ele>
        <time>2025-03-29T10:20:32Z</time>
      </trkpt>
      <trkpt lat="45.64914" lon="6.5169">
        <ele>1929</ele>
        <time>2025-03-29T10:20:38Z</time>
      </trkpt>
      <trkpt lat="45.6491" lon="6.51682">
        <ele>1925</ele>
        <time>2025-03-29T10:20:40Z</time>
      </trkpt>
      <trkpt lat="45.6491" lon="6.51669">
        <ele>1921</ele>
        <time>2025-03-29T10:20:42Z</time>
      </trkpt>
      <trkpt lat="45.64906" lon="6.5166">
        <ele>1917</ele>
        <time>2025-03-29T10:20:44Z</time>
      </trkpt>
      <trkpt lat="45.64899" lon="6.51659">
        <ele>1914</ele>
        <time>2025-03-29T10:20:46Z</time>
      </trkpt>
      <trkpt lat="45.64892" lon="6.51658">
        <ele>1912</ele>
        <time>2025-03-29T10:20:48Z</time>
      </trkpt>
      <trkpt lat="45.64888" lon="6.51652">
        <ele>1906</ele>
        <time>2025-03-29T10:26:06Z</time>
      </trkpt>
      <trkpt lat="45.64883" lon="6.51631">
        <ele>1901</ele>
        <time>2025-03-29T10:26:10Z</time>
      </trkpt>
      <trkpt lat="45.6488" lon="6.51611">
        <ele>1899</ele>
        <time>2025-03-29T10:26:13Z</time>
      </trkpt>
      <trkpt lat="45.64874" lon="6.51604">
        <ele>1897</ele>
        <time>2025-03-29T10:26:15Z</time>
      </trkpt>
      <trkpt lat="45.6487" lon="6.51591">
        <ele>1895</ele>
        <time>2025-03-29T10:26:17Z</time>
      </trkpt>
      <trkpt lat="45.64868" lon="6.51575">
        <ele>1892</ele>
        <time>2025-03-29T10:26:20Z</time>
      </trkpt>
      <trkpt lat="45.64862" lon="6.51565">
        <ele>1890</ele>
        <time>2025-03-29T10:26:22Z</time>
      </trkpt>
      <trkpt lat="45.64844" lon="6.51532">
        <ele>1884</ele>
        <time>2025-03-29T10:26:28Z</time>
      </trkpt>
      <trkpt lat="45.64839" lon="6.51521">
        <ele>1882</ele>
        <time>2025-03-29T10:26:30Z</time>
      </trkpt>
      <trkpt lat="45.64837" lon="6.51508">
        <ele>1880</ele>
        <time>2025-03-29T10:26:32Z</time>
      </trkpt>
      <trkpt lat="45.64833" lon="6.51496">
        <ele>1878</ele>
        <time>2025-03-29T10:26:34Z</time>
      </trkpt>
      <trkpt lat="45.64825" lon="6.51488">
        <ele>1874</ele>
        <time>2025-03-29T10:26:36Z</time>
      </trkpt>
      <trkpt lat="45.64822" lon="6.51479">
        <ele>1871</ele>
        <time>2025-03-29T10:26:38Z</time>
      </trkpt>
      <trkpt lat="45.64822" lon="6.51465">
        <ele>1868</ele>
        <time>2025-03-29T10:26:40Z</time>
      </trkpt>
      <trkpt lat="45.64821" lon="6.51454">
        <ele>1865</ele>
        <time>2025-03-29T10:26:42Z</time>
      </trkpt>
      <trkpt lat="45.64816" lon="6.51444">
        <ele>1863</ele>
        <time>2025-03-29T10:26:44Z</time>
      </trkpt>
      <trkpt lat="45.64814" lon="6.51434">
        <ele>1860</ele>
        <time>2025-03-29T10:26:46Z</time>
      </trkpt>
      <trkpt lat="45.64814" lon="6.51416">
        <ele>1855</ele>
        <time>2025-03-29T10:26:49Z</time>
      </trkpt>
      <trkpt lat="45.64813" lon="6.51404">
        <ele>1852</ele>
        <time>2025-03-29T10:26:51Z</time>
      </trkpt>
      <trkpt lat="45.64813" lon="6.51393">
        <ele>1848</ele>
        <time>2025-03-29T10:26:53Z</time>
      </trkpt>
      <trkpt lat="45.64811" lon="6.51384">
        <ele>1846</ele>
        <time>2025-03-29T10:26:55Z</time>
      </trkpt>
      <trkpt lat="45.64803" lon="6.5137">
        <ele>1843</ele>
        <time>2025-03-29T10:26:58Z</time>
      </trkpt>
      <trkpt lat="45.64796" lon="6.51361">
        <ele>1840</ele>
        <time>2025-03-29T10:27:00Z</time>
      </trkpt>
      <trkpt lat="45.64789" lon="6.51354">
        <ele>1837</ele>
        <time>2025-03-29T10:27:02Z</time>
      </trkpt>
      <trkpt lat="45.64782" lon="6.51346">
        <ele>1834</ele>
        <time>2025-03-29T10:27:04Z</time>
      </trkpt>
      <trkpt lat="45.64776" lon="6.51338">
        <ele>1832</ele>
        <time>2025-03-29T10:27:06Z</time>
      </trkpt>
      <trkpt lat="45.6477" lon="6.5133">
        <ele>1830</ele>
        <time>2025-03-29T10:27:08Z</time>
      </trkpt>
      <trkpt lat="45.6477" lon="6.51321">
        <ele>1827</ele>
        <time>2025-03-29T10:27:10Z</time>
      </trkpt>
      <trkpt lat="45.64776" lon="6.51314">
        <ele>1823</ele>
        <time>2025-03-29T10:27:12Z</time>
      </trkpt>
      <trkpt lat="45.6477" lon="6.51305">
        <ele>1821</ele>
        <time>2025-03-29T10:27:14Z</time>
      </trkpt>
      <trkpt lat="45.64773" lon="6.51299">
        <ele>1819</ele>
        <time>2025-03-29T10:27:16Z</time>
      </trkpt>
      <trkpt lat="45.64776" lon="6.51291">
        <ele>1816</ele>
        <time>2025-03-29T10:27:18Z</time>
      </trkpt>
      <trkpt lat="45.64776" lon="6.51283">
        <ele>1814</ele>
        <time>2025-03-29T10:27:20Z</time>
      </trkpt>
      <trkpt lat="45.64774" lon="6.51276">
        <ele>1813</ele>
        <time>2025-03-29T10:27:22Z</time>
      </trkpt>
      <trkpt lat="45.6477" lon="6.51265">
        <ele>1810</ele>
        <time>2025-03-29T10:27:24Z</time>
      </trkpt>
      <trkpt lat="45.64746" lon="6.51257">
        <ele>1804</ele>
        <time>2025-03-29T10:27:33Z</time>
      </trkpt>
      <trkpt lat="45.64746" lon="6.51252">
        <ele>1803</ele>
        <time>2025-03-29T10:27:57Z</time>
      </trkpt>
      <trkpt lat="45.64755" lon="6.51248">
        <ele>1801</ele>
        <time>2025-03-29T10:27:59Z</time>
      </trkpt>
      <trkpt lat="45.64759" lon="6.51247">
        <ele>1800</ele>
        <time>2025-03-29T10:28:01Z</time>
      </trkpt>
      <trkpt lat="45.64764" lon="6.51239">
        <ele>1797</ele>
        <time>2025-03-29T10:28:03Z</time>
      </trkpt>
      <trkpt lat="45.64773" lon="6.51232">
        <ele>1795</ele>
        <time>2025-03-29T10:28:05Z</time>
      </trkpt>
      <trkpt lat="45.6478" lon="6.51221">
        <ele>1793</ele>
        <time>2025-03-29T10:28:07Z</time>
      </trkpt>
      <trkpt lat="45.64789" lon="6.51207">
        <ele>1791</ele>
        <time>2025-03-29T10:28:11Z</time>
      </trkpt>
      <trkpt lat="45.64795" lon="6.512">
        <ele>1789</ele>
        <time>2025-03-29T10:28:13Z</time>
      </trkpt>
      <trkpt lat="45.64798" lon="6.51199">
        <ele>1787</ele>
        <time>2025-03-29T10:28:31Z</time>
      </trkpt>
      <trkpt lat="45.648" lon="6.51195">
        <ele>1786</ele>
        <time>2025-03-29T10:28:33Z</time>
      </trkpt>
      <trkpt lat="45.64796" lon="6.51187">
        <ele>1784</ele>
        <time>2025-03-29T10:28:35Z</time>
      </trkpt>
      <trkpt lat="45.64786" lon="6.51184">
        <ele>1781</ele>
        <time>2025-03-29T10:28:37Z</time>
      </trkpt>
      <trkpt lat="45.64771" lon="6.51181">
        <ele>1779</ele>
        <time>2025-03-29T10:28:41Z</time>
      </trkpt>
      <trkpt lat="45.64768" lon="6.51181">
        <ele>1779</ele>
        <time>2025-03-29T10:28:43Z</time>
      </trkpt>
      <trkpt lat="45.64762" lon="6.5118">
        <ele>1777</ele>
        <time>2025-03-29T10:28:47Z</time>
      </trkpt>
      <trkpt lat="45.64758" lon="6.51181">
        <ele>1776</ele>
        <time>2025-03-29T10:29:25Z</time>
      </trkpt>
      <trkpt lat="45.6476" lon="6.51182">
        <ele>1771</ele>
        <time>2025-03-29T10:32:23Z</time>
      </trkpt>
      <trkpt lat="45.64756" lon="6.51175">
        <ele>1771</ele>
        <time>2025-03-29T10:33:45Z</time>
      </trkpt>
      <trkpt lat="45.64754" lon="6.51183">
        <ele>1770</ele>
        <time>2025-03-29T10:34:23Z</time>
      </trkpt>
      <trkpt lat="45.64757" lon="6.5119">
        <ele>1769</ele>
        <time>2025-03-29T10:36:23Z</time>
      </trkpt>
      <trkpt lat="45.64761" lon="6.51185">
        <ele>1769</ele>
        <time>2025-03-29T10:37:03Z</time>
      </trkpt>
      <trkpt lat="45.64759" lon="6.51191">
        <ele>1767</ele>
        <time>2025-03-29T10:40:28Z</time>
      </trkpt>
      <trkpt lat="45.64754" lon="6.51184">
        <ele>1767</ele>
        <time>2025-03-29T10:40:56Z</time>
      </trkpt>
      <trkpt lat="45.64752" lon="6.51184">
        <ele>1766</ele>
        <time>2025-03-29T10:51:49Z</time>
      </trkpt>
      <trkpt lat="45.64758" lon="6.51187">
        <ele>1765</ele>
        <time>2025-03-29T10:53:12Z</time>
      </trkpt>
      <trkpt lat="45.64758" lon="6.51184">
        <ele>1758</ele>
        <time>2025-03-29T10:57:05Z</time>
      </trkpt>
      <trkpt lat="45.64761" lon="6.51184">
        <ele>1758</ele>
        <time>2025-03-29T10:57:50Z</time>
      </trkpt>
      <trkpt lat="45.64764" lon="6.51185">
        <ele>1757</ele>
        <time>2025-03-29T11:00:54Z</time>
      </trkpt>
      <trkpt lat="45.64768" lon="6.51184">
        <ele>1760</ele>
        <time>2025-03-29T11:02:30Z</time>
      </trkpt>
      <trkpt lat="45.6477" lon="6.51182">
        <ele>1764</ele>
        <time>2025-03-29T11:03:09Z</time>
      </trkpt>
      <trkpt lat="45.64773" lon="6.51185">
        <ele>1768</ele>
        <time>2025-03-29T11:03:31Z</time>
      </trkpt>
      <trkpt lat="45.6478" lon="6.51185">
        <ele>1771</ele>
        <time>2025-03-29T11:03:52Z</time>
      </trkpt>
      <trkpt lat="45.6479" lon="6.51186">
        <ele>1772</ele>
        <time>2025-03-29T11:04:09Z</time>
      </trkpt>
      <trkpt lat="45.6481" lon="6.51189">
        <ele>1776</ele>
        <time>2025-03-29T11:04:39Z</time>
      </trkpt>
      <trkpt lat="45.64813" lon="6.51192">
        <ele>1777</ele>
        <time>2025-03-29T11:04:48Z</time>
      </trkpt>
      <trkpt lat="45.64819" lon="6.51193">
        <ele>1778</ele>
        <time>2025-03-29T11:04:59Z</time>
      </trkpt>
      <trkpt lat="45.64825" lon="6.51195">
        <ele>1780</ele>
        <time>2025-03-29T11:05:09Z</time>
      </trkpt>
      <trkpt lat="45.6483" lon="6.51195">
        <ele>1781</ele>
        <time>2025-03-29T11:05:16Z</time>
      </trkpt>
      <trkpt lat="45.64845" lon="6.51203">
        <ele>1786</ele>
        <time>2025-03-29T11:05:45Z</time>
      </trkpt>
      <trkpt lat="45.64845" lon="6.51218">
        <ele>1791</ele>
        <time>2025-03-29T11:06:06Z</time>
      </trkpt>
      <trkpt lat="45.64843" lon="6.51222">
        <ele>1791</ele>
        <time>2025-03-29T11:06:11Z</time>
      </trkpt>
      <trkpt lat="45.64827" lon="6.51241">
        <ele>1796</ele>
        <time>2025-03-29T11:06:43Z</time>
      </trkpt>
      <trkpt lat="45.64821" lon="6.51252">
        <ele>1797</ele>
        <time>2025-03-29T11:06:57Z</time>
      </trkpt>
      <trkpt lat="45.64825" lon="6.51254">
        <ele>1798</ele>
        <time>2025-03-29T11:07:04Z</time>
      </trkpt>
      <trkpt lat="45.64829" lon="6.51256">
        <ele>1800</ele>
        <time>2025-03-29T11:07:10Z</time>
      </trkpt>
      <trkpt lat="45.64838" lon="6.51264">
        <ele>1803</ele>
        <time>2025-03-29T11:07:30Z</time>
      </trkpt>
      <trkpt lat="45.64841" lon="6.51267">
        <ele>1803</ele>
        <time>2025-03-29T11:07:35Z</time>
      </trkpt>
      <trkpt lat="45.6484" lon="6.51271">
        <ele>1803</ele>
        <time>2025-03-29T11:07:40Z</time>
      </trkpt>
      <trkpt lat="45.64837" lon="6.51274">
        <ele>1804</ele>
        <time>2025-03-29T11:07:44Z</time>
      </trkpt>
      <trkpt lat="45.64834" lon="6.51278">
        <ele>1806</ele>
        <time>2025-03-29T11:07:49Z</time>
      </trkpt>
      <trkpt lat="45.64832" lon="6.5128">
        <ele>1807</ele>
        <time>2025-03-29T11:07:53Z</time>
      </trkpt>
      <trkpt lat="45.64824" lon="6.51289">
        <ele>1809</ele>
        <time>2025-03-29T11:08:09Z</time>
      </trkpt>
      <trkpt lat="45.64821" lon="6.51292">
        <ele>1810</ele>
        <time>2025-03-29T11:08:13Z</time>
      </trkpt>
      <trkpt lat="45.64831" lon="6.51299">
        <ele>1812</ele>
        <time>2025-03-29T11:08:28Z</time>
      </trkpt>
      <trkpt lat="45.64836" lon="6.51305">
        <ele>1813</ele>
        <time>2025-03-29T11:08:39Z</time>
      </trkpt>
      <trkpt lat="45.64837" lon="6.5131">
        <ele>1815</ele>
        <time>2025-03-29T11:08:47Z</time>
      </trkpt>
      <trkpt lat="45.64835" lon="6.51314">
        <ele>1818</ele>
        <time>2025-03-29T11:08:53Z</time>
      </trkpt>
      <trkpt lat="45.64832" lon="6.51316">
        <ele>1819</ele>
        <time>2025-03-29T11:08:57Z</time>
      </trkpt>
      <trkpt lat="45.64822" lon="6.51345">
        <ele>1821</ele>
        <time>2025-03-29T11:09:28Z</time>
      </trkpt>
      <trkpt lat="45.6482" lon="6.5135">
        <ele>1821</ele>
        <time>2025-03-29T11:09:32Z</time>
      </trkpt>
      <trkpt lat="45.64815" lon="6.51364">
        <ele>1823</ele>
        <time>2025-03-29T11:09:44Z</time>
      </trkpt>
      <trkpt lat="45.64814" lon="6.51369">
        <ele>1824</ele>
        <time>2025-03-29T11:09:48Z</time>
      </trkpt>
      <trkpt lat="45.64811" lon="6.51373">
        <ele>1824</ele>
        <time>2025-03-29T11:09:53Z</time>
      </trkpt>
      <trkpt lat="45.64808" lon="6.51376">
        <ele>1825</ele>
        <time>2025-03-29T11:10:00Z</time>
      </trkpt>
      <trkpt lat="45.64801" lon="6.51379">
        <ele>1826</ele>
        <time>2025-03-29T11:10:09Z</time>
      </trkpt>
      <trkpt lat="45.64799" lon="6.5138">
        <ele>1827</ele>
        <time>2025-03-29T11:10:13Z</time>
      </trkpt>
      <trkpt lat="45.64777" lon="6.51377">
        <ele>1831</ele>
        <time>2025-03-29T11:10:47Z</time>
      </trkpt>
      <trkpt lat="45.64771" lon="6.51377">
        <ele>1832</ele>
        <time>2025-03-29T11:10:58Z</time>
      </trkpt>
      <trkpt lat="45.64773" lon="6.51381">
        <ele>1832</ele>
        <time>2025-03-29T11:11:06Z</time>
      </trkpt>
      <trkpt lat="45.64776" lon="6.51389">
        <ele>1834</ele>
        <time>2025-03-29T11:11:16Z</time>
      </trkpt>
      <trkpt lat="45.64779" lon="6.51393">
        <ele>1835</ele>
        <time>2025-03-29T11:11:20Z</time>
      </trkpt>
      <trkpt lat="45.64781" lon="6.514">
        <ele>1836</ele>
        <time>2025-03-29T11:11:27Z</time>
      </trkpt>
      <trkpt lat="45.64783" lon="6.51402">
        <ele>1837</ele>
        <time>2025-03-29T11:11:31Z</time>
      </trkpt>
      <trkpt lat="45.64786" lon="6.51406">
        <ele>1837</ele>
        <time>2025-03-29T11:11:36Z</time>
      </trkpt>
      <trkpt lat="45.64788" lon="6.5141">
        <ele>1838</ele>
        <time>2025-03-29T11:11:43Z</time>
      </trkpt>
      <trkpt lat="45.64781" lon="6.51414">
        <ele>1839</ele>
        <time>2025-03-29T11:11:51Z</time>
      </trkpt>
      <trkpt lat="45.64762" lon="6.51412">
        <ele>1843</ele>
        <time>2025-03-29T11:12:21Z</time>
      </trkpt>
      <trkpt lat="45.6476" lon="6.51413">
        <ele>1843</ele>
        <time>2025-03-29T11:12:25Z</time>
      </trkpt>
      <trkpt lat="45.64757" lon="6.51415">
        <ele>1844</ele>
        <time>2025-03-29T11:12:30Z</time>
      </trkpt>
      <trkpt lat="45.64754" lon="6.51417">
        <ele>1844</ele>
        <time>2025-03-29T11:12:34Z</time>
      </trkpt>
      <trkpt lat="45.64753" lon="6.51421">
        <ele>1846</ele>
        <time>2025-03-29T11:12:40Z</time>
      </trkpt>
      <trkpt lat="45.64763" lon="6.51448">
        <ele>1847</ele>
        <time>2025-03-29T11:13:07Z</time>
      </trkpt>
      <trkpt lat="45.64764" lon="6.51452">
        <ele>1848</ele>
        <time>2025-03-29T11:13:11Z</time>
      </trkpt>
      <trkpt lat="45.64763" lon="6.51462">
        <ele>1848</ele>
        <time>2025-03-29T11:13:20Z</time>
      </trkpt>
      <trkpt lat="45.64755" lon="6.51477">
        <ele>1850</ele>
        <time>2025-03-29T11:13:38Z</time>
      </trkpt>
      <trkpt lat="45.64754" lon="6.51492">
        <ele>1852</ele>
        <time>2025-03-29T11:13:52Z</time>
      </trkpt>
      <trkpt lat="45.64755" lon="6.515">
        <ele>1853</ele>
        <time>2025-03-29T11:14:01Z</time>
      </trkpt>
      <trkpt lat="45.64754" lon="6.51503">
        <ele>1854</ele>
        <time>2025-03-29T11:14:05Z</time>
      </trkpt>
      <trkpt lat="45.64754" lon="6.51508">
        <ele>1857</ele>
        <time>2025-03-29T11:14:11Z</time>
      </trkpt>
      <trkpt lat="45.64756" lon="6.51518">
        <ele>1858</ele>
        <time>2025-03-29T11:14:21Z</time>
      </trkpt>
      <trkpt lat="45.64755" lon="6.51522">
        <ele>1859</ele>
        <time>2025-03-29T11:14:25Z</time>
      </trkpt>
      <trkpt lat="45.64754" lon="6.51527">
        <ele>1860</ele>
        <time>2025-03-29T11:14:30Z</time>
      </trkpt>
      <trkpt lat="45.64751" lon="6.51531">
        <ele>1860</ele>
        <time>2025-03-29T11:14:36Z</time>
      </trkpt>
      <trkpt lat="45.6475" lon="6.51536">
        <ele>1861</ele>
        <time>2025-03-29T11:14:41Z</time>
      </trkpt>
      <trkpt lat="45.64752" lon="6.5154">
        <ele>1861</ele>
        <time>2025-03-29T11:14:45Z</time>
      </trkpt>
      <trkpt lat="45.64755" lon="6.51541">
        <ele>1862</ele>
        <time>2025-03-29T11:14:50Z</time>
      </trkpt>
      <trkpt lat="45.64758" lon="6.51541">
        <ele>1862</ele>
        <time>2025-03-29T11:14:54Z</time>
      </trkpt>
      <trkpt lat="45.64759" lon="6.51545">
        <ele>1863</ele>
        <time>2025-03-29T11:14:58Z</time>
      </trkpt>
      <trkpt lat="45.64761" lon="6.51548">
        <ele>1863</ele>
        <time>2025-03-29T11:15:02Z</time>
      </trkpt>
      <trkpt lat="45.64763" lon="6.51553">
        <ele>1864</ele>
        <time>2025-03-29T11:15:08Z</time>
      </trkpt>
      <trkpt lat="45.64764" lon="6.51557">
        <ele>1864</ele>
        <time>2025-03-29T11:15:14Z</time>
      </trkpt>
      <trkpt lat="45.64765" lon="6.51562">
        <ele>1866</ele>
        <time>2025-03-29T11:15:19Z</time>
      </trkpt>
      <trkpt lat="45.64767" lon="6.51565">
        <ele>1867</ele>
        <time>2025-03-29T11:15:24Z</time>
      </trkpt>
      <trkpt lat="45.64768" lon="6.51569">
        <ele>1868</ele>
        <time>2025-03-29T11:15:28Z</time>
      </trkpt>
      <trkpt lat="45.64769" lon="6.51574">
        <ele>1868</ele>
        <time>2025-03-29T11:15:33Z</time>
      </trkpt>
      <trkpt lat="45.6477" lon="6.51577">
        <ele>1869</ele>
        <time>2025-03-29T11:15:37Z</time>
      </trkpt>
      <trkpt lat="45.64767" lon="6.51581">
        <ele>1869</ele>
        <time>2025-03-29T11:15:47Z</time>
      </trkpt>
      <trkpt lat="45.64765" lon="6.51582">
        <ele>1871</ele>
        <time>2025-03-29T11:15:51Z</time>
      </trkpt>
      <trkpt lat="45.64762" lon="6.51581">
        <ele>1871</ele>
        <time>2025-03-29T11:15:55Z</time>
      </trkpt>
      <trkpt lat="45.6476" lon="6.51581">
        <ele>1872</ele>
        <time>2025-03-29T11:15:59Z</time>
      </trkpt>
      <trkpt lat="45.64757" lon="6.51582">
        <ele>1872</ele>
        <time>2025-03-29T11:16:04Z</time>
      </trkpt>
      <trkpt lat="45.64753" lon="6.51582">
        <ele>1872</ele>
        <time>2025-03-29T11:16:11Z</time>
      </trkpt>
      <trkpt lat="45.64741" lon="6.51586">
        <ele>1874</ele>
        <time>2025-03-29T11:16:29Z</time>
      </trkpt>
      <trkpt lat="45.64736" lon="6.51586">
        <ele>1876</ele>
        <time>2025-03-29T11:16:37Z</time>
      </trkpt>
      <trkpt lat="45.64734" lon="6.51586">
        <ele>1876</ele>
        <time>2025-03-29T11:16:41Z</time>
      </trkpt>
      <trkpt lat="45.64725" lon="6.5159">
        <ele>1879</ele>
        <time>2025-03-29T11:16:57Z</time>
      </trkpt>
      <trkpt lat="45.64722" lon="6.51589">
        <ele>1880</ele>
        <time>2025-03-29T11:17:03Z</time>
      </trkpt>
      <trkpt lat="45.64717" lon="6.51587">
        <ele>1880</ele>
        <time>2025-03-29T11:17:12Z</time>
      </trkpt>
      <trkpt lat="45.64719" lon="6.51592">
        <ele>1881</ele>
        <time>2025-03-29T11:17:35Z</time>
      </trkpt>
      <trkpt lat="45.64724" lon="6.51601">
        <ele>1885</ele>
        <time>2025-03-29T11:17:46Z</time>
      </trkpt>
      <trkpt lat="45.64729" lon="6.51607">
        <ele>1884</ele>
        <time>2025-03-29T11:17:55Z</time>
      </trkpt>
      <trkpt lat="45.64731" lon="6.51611">
        <ele>1884</ele>
        <time>2025-03-29T11:18:01Z</time>
      </trkpt>
      <trkpt lat="45.64731" lon="6.51616">
        <ele>1885</ele>
        <time>2025-03-29T11:18:05Z</time>
      </trkpt>
      <trkpt lat="45.64732" lon="6.5162">
        <ele>1885</ele>
        <time>2025-03-29T11:18:09Z</time>
      </trkpt>
      <trkpt lat="45.64727" lon="6.51623">
        <ele>1888</ele>
        <time>2025-03-29T11:18:20Z</time>
      </trkpt>
      <trkpt lat="45.64721" lon="6.51628">
        <ele>1889</ele>
        <time>2025-03-29T11:18:29Z</time>
      </trkpt>
      <trkpt lat="45.64716" lon="6.51635">
        <ele>1890</ele>
        <time>2025-03-29T11:18:40Z</time>
      </trkpt>
      <trkpt lat="45.64716" lon="6.51639">
        <ele>1891</ele>
        <time>2025-03-29T11:18:44Z</time>
      </trkpt>
      <trkpt lat="45.64718" lon="6.51642">
        <ele>1892</ele>
        <time>2025-03-29T11:18:48Z</time>
      </trkpt>
      <trkpt lat="45.64721" lon="6.5165">
        <ele>1893</ele>
        <time>2025-03-29T11:18:58Z</time>
      </trkpt>
      <trkpt lat="45.6472" lon="6.51655">
        <ele>1893</ele>
        <time>2025-03-29T11:19:04Z</time>
      </trkpt>
      <trkpt lat="45.6472" lon="6.5166">
        <ele>1894</ele>
        <time>2025-03-29T11:19:09Z</time>
      </trkpt>
      <trkpt lat="45.64713" lon="6.51668">
        <ele>1897</ele>
        <time>2025-03-29T11:19:23Z</time>
      </trkpt>
      <trkpt lat="45.64708" lon="6.51674">
        <ele>1899</ele>
        <time>2025-03-29T11:19:31Z</time>
      </trkpt>
      <trkpt lat="45.64705" lon="6.51682">
        <ele>1901</ele>
        <time>2025-03-29T11:19:39Z</time>
      </trkpt>
      <trkpt lat="45.64705" lon="6.51685">
        <ele>1901</ele>
        <time>2025-03-29T11:19:41Z</time>
      </trkpt>
      <trkpt lat="45.64709" lon="6.51694">
        <ele>1901</ele>
        <time>2025-03-29T11:19:52Z</time>
      </trkpt>
      <trkpt lat="45.64712" lon="6.51696">
        <ele>1901</ele>
        <time>2025-03-29T11:19:56Z</time>
      </trkpt>
      <trkpt lat="45.64713" lon="6.517">
        <ele>1902</ele>
        <time>2025-03-29T11:20:01Z</time>
      </trkpt>
      <trkpt lat="45.64717" lon="6.51701">
        <ele>1902</ele>
        <time>2025-03-29T11:20:05Z</time>
      </trkpt>
      <trkpt lat="45.64718" lon="6.51705">
        <ele>1903</ele>
        <time>2025-03-29T11:20:10Z</time>
      </trkpt>
      <trkpt lat="45.64719" lon="6.51708">
        <ele>1903</ele>
        <time>2025-03-29T11:20:14Z</time>
      </trkpt>
      <trkpt lat="45.64719" lon="6.51712">
        <ele>1903</ele>
        <time>2025-03-29T11:20:20Z</time>
      </trkpt>
      <trkpt lat="45.6471" lon="6.51718">
        <ele>1906</ele>
        <time>2025-03-29T11:20:36Z</time>
      </trkpt>
      <trkpt lat="45.64707" lon="6.51718">
        <ele>1906</ele>
        <time>2025-03-29T11:20:41Z</time>
      </trkpt>
      <trkpt lat="45.64703" lon="6.51723">
        <ele>1908</ele>
        <time>2025-03-29T11:20:50Z</time>
      </trkpt>
      <trkpt lat="45.64697" lon="6.51726">
        <ele>1910</ele>
        <time>2025-03-29T11:20:59Z</time>
      </trkpt>
      <trkpt lat="45.64695" lon="6.51727">
        <ele>1910</ele>
        <time>2025-03-29T11:21:03Z</time>
      </trkpt>
      <trkpt lat="45.64692" lon="6.51726">
        <ele>1910</ele>
        <time>2025-03-29T11:21:07Z</time>
      </trkpt>
      <trkpt lat="45.64689" lon="6.51724">
        <ele>1911</ele>
        <time>2025-03-29T11:21:13Z</time>
      </trkpt>
      <trkpt lat="45.64687" lon="6.51723">
        <ele>1911</ele>
        <time>2025-03-29T11:21:17Z</time>
      </trkpt>
      <trkpt lat="45.64679" lon="6.51722">
        <ele>1912</ele>
        <time>2025-03-29T11:21:30Z</time>
      </trkpt>
      <trkpt lat="45.64669" lon="6.51723">
        <ele>1917</ele>
        <time>2025-03-29T11:21:48Z</time>
      </trkpt>
      <trkpt lat="45.64674" lon="6.5173">
        <ele>1917</ele>
        <time>2025-03-29T11:22:06Z</time>
      </trkpt>
      <trkpt lat="45.64675" lon="6.51734">
        <ele>1917</ele>
        <time>2025-03-29T11:22:10Z</time>
      </trkpt>
      <trkpt lat="45.64678" lon="6.51739">
        <ele>1917</ele>
        <time>2025-03-29T11:22:17Z</time>
      </trkpt>
      <trkpt lat="45.6468" lon="6.51749">
        <ele>1918</ele>
        <time>2025-03-29T11:22:31Z</time>
      </trkpt>
      <trkpt lat="45.64681" lon="6.51753">
        <ele>1919</ele>
        <time>2025-03-29T11:22:35Z</time>
      </trkpt>
      <trkpt lat="45.64682" lon="6.51757">
        <ele>1919</ele>
        <time>2025-03-29T11:22:39Z</time>
      </trkpt>
      <trkpt lat="45.64686" lon="6.51763">
        <ele>1920</ele>
        <time>2025-03-29T11:22:49Z</time>
      </trkpt>
      <trkpt lat="45.64686" lon="6.51769">
        <ele>1921</ele>
        <time>2025-03-29T11:22:55Z</time>
      </trkpt>
      <trkpt lat="45.64684" lon="6.51782">
        <ele>1924</ele>
        <time>2025-03-29T11:23:08Z</time>
      </trkpt>
      <trkpt lat="45.64685" lon="6.51798">
        <ele>1925</ele>
        <time>2025-03-29T11:23:25Z</time>
      </trkpt>
      <trkpt lat="45.64686" lon="6.51803">
        <ele>1927</ele>
        <time>2025-03-29T11:23:31Z</time>
      </trkpt>
      <trkpt lat="45.64691" lon="6.51821">
        <ele>1931</ele>
        <time>2025-03-29T11:24:52Z</time>
      </trkpt>
      <trkpt lat="45.64693" lon="6.51824">
        <ele>1931</ele>
        <time>2025-03-29T11:24:56Z</time>
      </trkpt>
      <trkpt lat="45.64695" lon="6.51846">
        <ele>1930</ele>
        <time>2025-03-29T11:25:17Z</time>
      </trkpt>
      <trkpt lat="45.64692" lon="6.51856">
        <ele>1931</ele>
        <time>2025-03-29T11:25:26Z</time>
      </trkpt>
      <trkpt lat="45.64693" lon="6.51861">
        <ele>1933</ele>
        <time>2025-03-29T11:25:30Z</time>
      </trkpt>
      <trkpt lat="45.64695" lon="6.51864">
        <ele>1933</ele>
        <time>2025-03-29T11:25:35Z</time>
      </trkpt>
      <trkpt lat="45.64706" lon="6.51862">
        <ele>1933</ele>
        <time>2025-03-29T11:25:47Z</time>
      </trkpt>
      <trkpt lat="45.64708" lon="6.51865">
        <ele>1934</ele>
        <time>2025-03-29T11:25:51Z</time>
      </trkpt>
      <trkpt lat="45.64709" lon="6.51871">
        <ele>1934</ele>
        <time>2025-03-29T11:25:57Z</time>
      </trkpt>
      <trkpt lat="45.64711" lon="6.51876">
        <ele>1934</ele>
        <time>2025-03-29T11:26:02Z</time>
      </trkpt>
      <trkpt lat="45.64715" lon="6.51876">
        <ele>1934</ele>
        <time>2025-03-29T11:26:06Z</time>
      </trkpt>
      <trkpt lat="45.64718" lon="6.51875">
        <ele>1934</ele>
        <time>2025-03-29T11:26:11Z</time>
      </trkpt>
      <trkpt lat="45.64723" lon="6.51871">
        <ele>1935</ele>
        <time>2025-03-29T11:26:20Z</time>
      </trkpt>
      <trkpt lat="45.64726" lon="6.5187">
        <ele>1936</ele>
        <time>2025-03-29T11:26:25Z</time>
      </trkpt>
      <trkpt lat="45.64729" lon="6.51883">
        <ele>1936</ele>
        <time>2025-03-29T11:26:37Z</time>
      </trkpt>
      <trkpt lat="45.64728" lon="6.51887">
        <ele>1937</ele>
        <time>2025-03-29T11:26:43Z</time>
      </trkpt>
      <trkpt lat="45.64726" lon="6.51891">
        <ele>1938</ele>
        <time>2025-03-29T11:26:48Z</time>
      </trkpt>
      <trkpt lat="45.64725" lon="6.51896">
        <ele>1939</ele>
        <time>2025-03-29T11:26:52Z</time>
      </trkpt>
      <trkpt lat="45.64726" lon="6.51915">
        <ele>1942</ele>
        <time>2025-03-29T11:27:10Z</time>
      </trkpt>
      <trkpt lat="45.64725" lon="6.51919">
        <ele>1943</ele>
        <time>2025-03-29T11:27:14Z</time>
      </trkpt>
      <trkpt lat="45.64724" lon="6.51928">
        <ele>1944</ele>
        <time>2025-03-29T11:27:22Z</time>
      </trkpt>
      <trkpt lat="45.6472" lon="6.51938">
        <ele>1945</ele>
        <time>2025-03-29T11:27:32Z</time>
      </trkpt>
      <trkpt lat="45.64718" lon="6.51942">
        <ele>1947</ele>
        <time>2025-03-29T11:27:35Z</time>
      </trkpt>
      <trkpt lat="45.64717" lon="6.51946">
        <ele>1947</ele>
        <time>2025-03-29T11:27:42Z</time>
      </trkpt>
      <trkpt lat="45.64719" lon="6.51956">
        <ele>1948</ele>
        <time>2025-03-29T11:27:53Z</time>
      </trkpt>
      <trkpt lat="45.64726" lon="6.51971">
        <ele>1944</ele>
        <time>2025-03-29T11:28:11Z</time>
      </trkpt>
      <trkpt lat="45.64729" lon="6.51974">
        <ele>1946</ele>
        <time>2025-03-29T11:28:20Z</time>
      </trkpt>
      <trkpt lat="45.64735" lon="6.51977">
        <ele>1947</ele>
        <time>2025-03-29T11:28:24Z</time>
      </trkpt>
      <trkpt lat="45.64738" lon="6.51974">
        <ele>1947</ele>
        <time>2025-03-29T11:28:33Z</time>
      </trkpt>
      <trkpt lat="45.64742" lon="6.51972">
        <ele>1948</ele>
        <time>2025-03-29T11:28:38Z</time>
      </trkpt>
      <trkpt lat="45.64746" lon="6.5197">
        <ele>1949</ele>
        <time>2025-03-29T11:28:44Z</time>
      </trkpt>
      <trkpt lat="45.6475" lon="6.5197">
        <ele>1951</ele>
        <time>2025-03-29T11:28:52Z</time>
      </trkpt>
      <trkpt lat="45.64754" lon="6.51967">
        <ele>1952</ele>
        <time>2025-03-29T11:28:58Z</time>
      </trkpt>
      <trkpt lat="45.64759" lon="6.5196">
        <ele>1953</ele>
        <time>2025-03-29T11:29:11Z</time>
      </trkpt>
      <trkpt lat="45.6476" lon="6.51957">
        <ele>1953</ele>
        <time>2025-03-29T11:29:16Z</time>
      </trkpt>
      <trkpt lat="45.64774" lon="6.51942">
        <ele>1957</ele>
        <time>2025-03-29T11:29:43Z</time>
      </trkpt>
      <trkpt lat="45.64781" lon="6.51937">
        <ele>1958</ele>
        <time>2025-03-29T11:29:52Z</time>
      </trkpt>
      <trkpt lat="45.64785" lon="6.5195">
        <ele>1959</ele>
        <time>2025-03-29T11:30:09Z</time>
      </trkpt>
      <trkpt lat="45.64788" lon="6.51953">
        <ele>1959</ele>
        <time>2025-03-29T11:30:15Z</time>
      </trkpt>
      <trkpt lat="45.64793" lon="6.51949">
        <ele>1961</ele>
        <time>2025-03-29T11:30:22Z</time>
      </trkpt>
      <trkpt lat="45.6479" lon="6.51966">
        <ele>1964</ele>
        <time>2025-03-29T11:30:55Z</time>
      </trkpt>
      <trkpt lat="45.64789" lon="6.5197">
        <ele>1965</ele>
        <time>2025-03-29T11:30:59Z</time>
      </trkpt>
      <trkpt lat="45.64789" lon="6.51978">
        <ele>1966</ele>
        <time>2025-03-29T11:31:07Z</time>
      </trkpt>
      <trkpt lat="45.64788" lon="6.51986">
        <ele>1966</ele>
        <time>2025-03-29T11:31:15Z</time>
      </trkpt>
      <trkpt lat="45.64788" lon="6.51991">
        <ele>1966</ele>
        <time>2025-03-29T11:31:21Z</time>
      </trkpt>
      <trkpt lat="45.64789" lon="6.51999">
        <ele>1967</ele>
        <time>2025-03-29T11:31:54Z</time>
      </trkpt>
      <trkpt lat="45.64787" lon="6.52011">
        <ele>1968</ele>
        <time>2025-03-29T11:32:08Z</time>
      </trkpt>
      <trkpt lat="45.64784" lon="6.52025">
        <ele>1972</ele>
        <time>2025-03-29T11:32:24Z</time>
      </trkpt>
      <trkpt lat="45.64783" lon="6.52028">
        <ele>1972</ele>
        <time>2025-03-29T11:32:27Z</time>
      </trkpt>
      <trkpt lat="45.64779" lon="6.52035">
        <ele>1973</ele>
        <time>2025-03-29T11:32:37Z</time>
      </trkpt>
      <trkpt lat="45.64776" lon="6.52038">
        <ele>1975</ele>
        <time>2025-03-29T11:32:41Z</time>
      </trkpt>
      <trkpt lat="45.64774" lon="6.5204">
        <ele>1975</ele>
        <time>2025-03-29T11:32:45Z</time>
      </trkpt>
      <trkpt lat="45.64772" lon="6.5204">
        <ele>1975</ele>
        <time>2025-03-29T11:32:49Z</time>
      </trkpt>
      <trkpt lat="45.6477" lon="6.52041">
        <ele>1977</ele>
        <time>2025-03-29T11:32:56Z</time>
      </trkpt>
      <trkpt lat="45.64771" lon="6.52045">
        <ele>1978</ele>
        <time>2025-03-29T11:33:07Z</time>
      </trkpt>
      <trkpt lat="45.64773" lon="6.52049">
        <ele>1980</ele>
        <time>2025-03-29T11:33:14Z</time>
      </trkpt>
      <trkpt lat="45.64776" lon="6.52051">
        <ele>1981</ele>
        <time>2025-03-29T11:33:20Z</time>
      </trkpt>
      <trkpt lat="45.64779" lon="6.52051">
        <ele>1980</ele>
        <time>2025-03-29T11:33:28Z</time>
      </trkpt>
      <trkpt lat="45.64779" lon="6.52055">
        <ele>1980</ele>
        <time>2025-03-29T11:33:50Z</time>
      </trkpt>
      <trkpt lat="45.64777" lon="6.52057">
        <ele>1981</ele>
        <time>2025-03-29T11:33:54Z</time>
      </trkpt>
      <trkpt lat="45.64775" lon="6.52061">
        <ele>1983</ele>
        <time>2025-03-29T11:33:59Z</time>
      </trkpt>
      <trkpt lat="45.64772" lon="6.52063">
        <ele>1987</ele>
        <time>2025-03-29T11:34:05Z</time>
      </trkpt>
      <trkpt lat="45.64772" lon="6.52066">
        <ele>1987</ele>
        <time>2025-03-29T11:34:09Z</time>
      </trkpt>
      <trkpt lat="45.6477" lon="6.52069">
        <ele>1987</ele>
        <time>2025-03-29T11:34:13Z</time>
      </trkpt>
      <trkpt lat="45.64768" lon="6.52081">
        <ele>1985</ele>
        <time>2025-03-29T11:34:39Z</time>
      </trkpt>
      <trkpt lat="45.64771" lon="6.52091">
        <ele>1984</ele>
        <time>2025-03-29T11:34:57Z</time>
      </trkpt>
      <trkpt lat="45.64771" lon="6.52102">
        <ele>1986</ele>
        <time>2025-03-29T11:35:09Z</time>
      </trkpt>
      <trkpt lat="45.64773" lon="6.52103">
        <ele>1988</ele>
        <time>2025-03-29T11:35:20Z</time>
      </trkpt>
      <trkpt lat="45.64776" lon="6.52103">
        <ele>1990</ele>
        <time>2025-03-29T11:35:27Z</time>
      </trkpt>
      <trkpt lat="45.64778" lon="6.52105">
        <ele>1991</ele>
        <time>2025-03-29T11:35:32Z</time>
      </trkpt>
      <trkpt lat="45.64781" lon="6.52107">
        <ele>1991</ele>
        <time>2025-03-29T11:35:38Z</time>
      </trkpt>
      <trkpt lat="45.64784" lon="6.52106">
        <ele>1991</ele>
        <time>2025-03-29T11:35:42Z</time>
      </trkpt>
      <trkpt lat="45.6479" lon="6.52098">
        <ele>1994</ele>
        <time>2025-03-29T11:35:56Z</time>
      </trkpt>
      <trkpt lat="45.64792" lon="6.52094">
        <ele>1994</ele>
        <time>2025-03-29T11:36:01Z</time>
      </trkpt>
      <trkpt lat="45.64795" lon="6.52091">
        <ele>1994</ele>
        <time>2025-03-29T11:36:08Z</time>
      </trkpt>
      <trkpt lat="45.648" lon="6.52086">
        <ele>1997</ele>
        <time>2025-03-29T11:36:19Z</time>
      </trkpt>
      <trkpt lat="45.64801" lon="6.52083">
        <ele>1998</ele>
        <time>2025-03-29T11:36:25Z</time>
      </trkpt>
      <trkpt lat="45.64805" lon="6.52081">
        <ele>1999</ele>
        <time>2025-03-29T11:36:29Z</time>
      </trkpt>
      <trkpt lat="45.64808" lon="6.52081">
        <ele>2000</ele>
        <time>2025-03-29T11:36:35Z</time>
      </trkpt>
      <trkpt lat="45.64815" lon="6.52078">
        <ele>2002</ele>
        <time>2025-03-29T11:36:46Z</time>
      </trkpt>
      <trkpt lat="45.64822" lon="6.52073">
        <ele>2004</ele>
        <time>2025-03-29T11:36:59Z</time>
      </trkpt>
      <trkpt lat="45.64827" lon="6.52069">
        <ele>2005</ele>
        <time>2025-03-29T11:37:09Z</time>
      </trkpt>
      <trkpt lat="45.64825" lon="6.52074">
        <ele>2005</ele>
        <time>2025-03-29T11:37:36Z</time>
      </trkpt>
      <trkpt lat="45.64825" lon="6.52079">
        <ele>2006</ele>
        <time>2025-03-29T11:37:41Z</time>
      </trkpt>
      <trkpt lat="45.64823" lon="6.52087">
        <ele>2008</ele>
        <time>2025-03-29T11:37:48Z</time>
      </trkpt>
      <trkpt lat="45.64823" lon="6.52091">
        <ele>2009</ele>
        <time>2025-03-29T11:37:54Z</time>
      </trkpt>
      <trkpt lat="45.64821" lon="6.52096">
        <ele>2010</ele>
        <time>2025-03-29T11:37:58Z</time>
      </trkpt>
      <trkpt lat="45.64822" lon="6.52099">
        <ele>2010</ele>
        <time>2025-03-29T11:38:02Z</time>
      </trkpt>
      <trkpt lat="45.64823" lon="6.52117">
        <ele>2009</ele>
        <time>2025-03-29T11:38:23Z</time>
      </trkpt>
      <trkpt lat="45.64823" lon="6.52121">
        <ele>2010</ele>
        <time>2025-03-29T11:38:28Z</time>
      </trkpt>
      <trkpt lat="45.64823" lon="6.52123">
        <ele>2010</ele>
        <time>2025-03-29T11:38:32Z</time>
      </trkpt>
      <trkpt lat="45.64823" lon="6.52127">
        <ele>2010</ele>
        <time>2025-03-29T11:38:35Z</time>
      </trkpt>
      <trkpt lat="45.64819" lon="6.52135">
        <ele>2014</ele>
        <time>2025-03-29T11:38:47Z</time>
      </trkpt>
      <trkpt lat="45.64822" lon="6.52135">
        <ele>2014</ele>
        <time>2025-03-29T11:38:57Z</time>
      </trkpt>
      <trkpt lat="45.64824" lon="6.52133">
        <ele>2014</ele>
        <time>2025-03-29T11:39:01Z</time>
      </trkpt>
      <trkpt lat="45.64828" lon="6.5213">
        <ele>2014</ele>
        <time>2025-03-29T11:39:06Z</time>
      </trkpt>
      <trkpt lat="45.64831" lon="6.5213">
        <ele>2015</ele>
        <time>2025-03-29T11:41:55Z</time>
      </trkpt>
      <trkpt lat="45.64834" lon="6.52128">
        <ele>2015</ele>
        <time>2025-03-29T11:42:08Z</time>
      </trkpt>
      <trkpt lat="45.64837" lon="6.52126">
        <ele>2017</ele>
        <time>2025-03-29T11:42:42Z</time>
      </trkpt>
      <trkpt lat="45.64841" lon="6.52123">
        <ele>2017</ele>
        <time>2025-03-29T11:42:49Z</time>
      </trkpt>
      <trkpt lat="45.64847" lon="6.52118">
        <ele>2018</ele>
        <time>2025-03-29T11:43:00Z</time>
      </trkpt>
      <trkpt lat="45.64857" lon="6.52101">
        <ele>2022</ele>
        <time>2025-03-29T11:43:21Z</time>
      </trkpt>
      <trkpt lat="45.64863" lon="6.52088">
        <ele>2025</ele>
        <time>2025-03-29T11:43:38Z</time>
      </trkpt>
      <trkpt lat="45.64864" lon="6.52096">
        <ele>2027</ele>
        <time>2025-03-29T11:43:58Z</time>
      </trkpt>
      <trkpt lat="45.6487" lon="6.5211">
        <ele>2028</ele>
        <time>2025-03-29T11:44:18Z</time>
      </trkpt>
      <trkpt lat="45.64871" lon="6.52114">
        <ele>2028</ele>
        <time>2025-03-29T11:44:22Z</time>
      </trkpt>
      <trkpt lat="45.64871" lon="6.52118">
        <ele>2028</ele>
        <time>2025-03-29T11:44:27Z</time>
      </trkpt>
      <trkpt lat="45.64871" lon="6.52122">
        <ele>2030</ele>
        <time>2025-03-29T11:44:33Z</time>
      </trkpt>
      <trkpt lat="45.6487" lon="6.52127">
        <ele>2030</ele>
        <time>2025-03-29T11:44:38Z</time>
      </trkpt>
      <trkpt lat="45.64873" lon="6.52125">
        <ele>2031</ele>
        <time>2025-03-29T11:44:56Z</time>
      </trkpt>
      <trkpt lat="45.64876" lon="6.52122">
        <ele>2031</ele>
        <time>2025-03-29T11:45:02Z</time>
      </trkpt>
      <trkpt lat="45.64879" lon="6.52119">
        <ele>2033</ele>
        <time>2025-03-29T11:45:07Z</time>
      </trkpt>
      <trkpt lat="45.64883" lon="6.52106">
        <ele>2037</ele>
        <time>2025-03-29T11:45:23Z</time>
      </trkpt>
      <trkpt lat="45.64889" lon="6.52092">
        <ele>2040</ele>
        <time>2025-03-29T11:45:41Z</time>
      </trkpt>
      <trkpt lat="45.6489" lon="6.52087">
        <ele>2042</ele>
        <time>2025-03-29T11:45:47Z</time>
      </trkpt>
      <trkpt lat="45.64893" lon="6.52082">
        <ele>2042</ele>
        <time>2025-03-29T11:45:52Z</time>
      </trkpt>
      <trkpt lat="45.64893" lon="6.52077">
        <ele>2043</ele>
        <time>2025-03-29T11:45:58Z</time>
      </trkpt>
      <trkpt lat="45.64896" lon="6.5207">
        <ele>2043</ele>
        <time>2025-03-29T11:46:07Z</time>
      </trkpt>
      <trkpt lat="45.64897" lon="6.52066">
        <ele>2044</ele>
        <time>2025-03-29T11:46:12Z</time>
      </trkpt>
      <trkpt lat="45.64899" lon="6.52061">
        <ele>2045</ele>
        <time>2025-03-29T11:46:18Z</time>
      </trkpt>
      <trkpt lat="45.64901" lon="6.52066">
        <ele>2046</ele>
        <time>2025-03-29T11:46:34Z</time>
      </trkpt>
      <trkpt lat="45.64906" lon="6.5208">
        <ele>2047</ele>
        <time>2025-03-29T11:46:52Z</time>
      </trkpt>
      <trkpt lat="45.64916" lon="6.52102">
        <ele>2049</ele>
        <time>2025-03-29T11:47:25Z</time>
      </trkpt>
      <trkpt lat="45.64918" lon="6.5212">
        <ele>2052</ele>
        <time>2025-03-29T11:47:47Z</time>
      </trkpt>
      <trkpt lat="45.64918" lon="6.52126">
        <ele>2052</ele>
        <time>2025-03-29T11:47:53Z</time>
      </trkpt>
      <trkpt lat="45.64921" lon="6.5213">
        <ele>2054</ele>
        <time>2025-03-29T11:47:59Z</time>
      </trkpt>
      <trkpt lat="45.64926" lon="6.52152">
        <ele>2057</ele>
        <time>2025-03-29T11:48:30Z</time>
      </trkpt>
      <trkpt lat="45.64928" lon="6.52158">
        <ele>2058</ele>
        <time>2025-03-29T11:48:38Z</time>
      </trkpt>
      <trkpt lat="45.64931" lon="6.5216">
        <ele>2058</ele>
        <time>2025-03-29T11:48:44Z</time>
      </trkpt>
      <trkpt lat="45.64932" lon="6.52163">
        <ele>2059</ele>
        <time>2025-03-29T11:48:50Z</time>
      </trkpt>
      <trkpt lat="45.64936" lon="6.5217">
        <ele>2060</ele>
        <time>2025-03-29T11:48:59Z</time>
      </trkpt>
      <trkpt lat="45.64937" lon="6.52174">
        <ele>2061</ele>
        <time>2025-03-29T11:49:06Z</time>
      </trkpt>
      <trkpt lat="45.64939" lon="6.52178">
        <ele>2062</ele>
        <time>2025-03-29T11:49:13Z</time>
      </trkpt>
      <trkpt lat="45.64941" lon="6.5217">
        <ele>2068</ele>
        <time>2025-03-29T11:49:39Z</time>
      </trkpt>
      <trkpt lat="45.64944" lon="6.52162">
        <ele>2070</ele>
        <time>2025-03-29T11:49:48Z</time>
      </trkpt>
      <trkpt lat="45.64946" lon="6.52149">
        <ele>2072</ele>
        <time>2025-03-29T11:50:06Z</time>
      </trkpt>
      <trkpt lat="45.64954" lon="6.52124">
        <ele>2077</ele>
        <time>2025-03-29T11:50:36Z</time>
      </trkpt>
      <trkpt lat="45.64955" lon="6.52122">
        <ele>2078</ele>
        <time>2025-03-29T11:50:40Z</time>
      </trkpt>
      <trkpt lat="45.64957" lon="6.5213">
        <ele>2079</ele>
        <time>2025-03-29T11:51:01Z</time>
      </trkpt>
      <trkpt lat="45.64958" lon="6.52135">
        <ele>2078</ele>
        <time>2025-03-29T11:51:07Z</time>
      </trkpt>
      <trkpt lat="45.64963" lon="6.52155">
        <ele>2080</ele>
        <time>2025-03-29T11:51:32Z</time>
      </trkpt>
      <trkpt lat="45.64964" lon="6.5216">
        <ele>2081</ele>
        <time>2025-03-29T11:51:38Z</time>
      </trkpt>
      <trkpt lat="45.64965" lon="6.52181">
        <ele>2085</ele>
        <time>2025-03-29T11:52:02Z</time>
      </trkpt>
      <trkpt lat="45.64966" lon="6.52187">
        <ele>2085</ele>
        <time>2025-03-29T11:52:09Z</time>
      </trkpt>
      <trkpt lat="45.64967" lon="6.52193">
        <ele>2085</ele>
        <time>2025-03-29T11:52:16Z</time>
      </trkpt>
      <trkpt lat="45.64967" lon="6.52198">
        <ele>2086</ele>
        <time>2025-03-29T11:52:22Z</time>
      </trkpt>
      <trkpt lat="45.64968" lon="6.52202">
        <ele>2086</ele>
        <time>2025-03-29T11:52:28Z</time>
      </trkpt>
      <trkpt lat="45.64966" lon="6.52206">
        <ele>2089</ele>
        <time>2025-03-29T11:53:29Z</time>
      </trkpt>
      <trkpt lat="45.64968" lon="6.52215">
        <ele>2090</ele>
        <time>2025-03-29T11:53:39Z</time>
      </trkpt>
      <trkpt lat="45.64967" lon="6.52227">
        <ele>2092</ele>
        <time>2025-03-29T11:53:50Z</time>
      </trkpt>
      <trkpt lat="45.64968" lon="6.52232">
        <ele>2093</ele>
        <time>2025-03-29T11:53:56Z</time>
      </trkpt>
      <trkpt lat="45.64968" lon="6.52244">
        <ele>2095</ele>
        <time>2025-03-29T11:54:10Z</time>
      </trkpt>
      <trkpt lat="45.64968" lon="6.5225">
        <ele>2096</ele>
        <time>2025-03-29T11:54:17Z</time>
      </trkpt>
      <trkpt lat="45.6497" lon="6.52251">
        <ele>2098</ele>
        <time>2025-03-29T11:55:06Z</time>
      </trkpt>
      <trkpt lat="45.64978" lon="6.52242">
        <ele>2101</ele>
        <time>2025-03-29T11:55:19Z</time>
      </trkpt>
      <trkpt lat="45.64984" lon="6.52233">
        <ele>2103</ele>
        <time>2025-03-29T11:55:34Z</time>
      </trkpt>
      <trkpt lat="45.64989" lon="6.5222">
        <ele>2105</ele>
        <time>2025-03-29T11:55:52Z</time>
      </trkpt>
      <trkpt lat="45.6499" lon="6.52217">
        <ele>2105</ele>
        <time>2025-03-29T11:55:56Z</time>
      </trkpt>
      <trkpt lat="45.64993" lon="6.52208">
        <ele>2106</ele>
        <time>2025-03-29T11:56:07Z</time>
      </trkpt>
      <trkpt lat="45.64995" lon="6.52205">
        <ele>2107</ele>
        <time>2025-03-29T11:56:14Z</time>
      </trkpt>
      <trkpt lat="45.64995" lon="6.52203">
        <ele>2111</ele>
        <time>2025-03-29T11:56:52Z</time>
      </trkpt>
      <trkpt lat="45.64997" lon="6.52206">
        <ele>2111</ele>
        <time>2025-03-29T11:56:59Z</time>
      </trkpt>
      <trkpt lat="45.64999" lon="6.52215">
        <ele>2111</ele>
        <time>2025-03-29T11:57:19Z</time>
      </trkpt>
      <trkpt lat="45.65001" lon="6.52225">
        <ele>2113</ele>
        <time>2025-03-29T11:57:35Z</time>
      </trkpt>
      <trkpt lat="45.65004" lon="6.52224">
        <ele>2114</ele>
        <time>2025-03-29T11:58:20Z</time>
      </trkpt>
      <trkpt lat="45.65005" lon="6.5222">
        <ele>2115</ele>
        <time>2025-03-29T11:58:27Z</time>
      </trkpt>
      <trkpt lat="45.65006" lon="6.52217">
        <ele>2117</ele>
        <time>2025-03-29T11:58:47Z</time>
      </trkpt>
      <trkpt lat="45.65009" lon="6.52207">
        <ele>2118</ele>
        <time>2025-03-29T11:59:30Z</time>
      </trkpt>
      <trkpt lat="45.6501" lon="6.52206">
        <ele>2120</ele>
        <time>2025-03-29T11:59:45Z</time>
      </trkpt>
      <trkpt lat="45.65011" lon="6.52201">
        <ele>2120</ele>
        <time>2025-03-29T12:00:17Z</time>
      </trkpt>
      <trkpt lat="45.65012" lon="6.52197">
        <ele>2121</ele>
        <time>2025-03-29T12:00:37Z</time>
      </trkpt>
      <trkpt lat="45.65014" lon="6.52194">
        <ele>2123</ele>
        <time>2025-03-29T12:01:17Z</time>
      </trkpt>
      <trkpt lat="45.65016" lon="6.52188">
        <ele>2126</ele>
        <time>2025-03-29T12:01:35Z</time>
      </trkpt>
      <trkpt lat="45.65017" lon="6.52185">
        <ele>2127</ele>
        <time>2025-03-29T12:01:39Z</time>
      </trkpt>
      <trkpt lat="45.65018" lon="6.52182">
        <ele>2129</ele>
        <time>2025-03-29T12:09:47Z</time>
      </trkpt>
      <trkpt lat="45.65019" lon="6.52185">
        <ele>2129</ele>
        <time>2025-03-29T12:10:09Z</time>
      </trkpt>
      <trkpt lat="45.65021" lon="6.52188">
        <ele>2130</ele>
        <time>2025-03-29T12:10:16Z</time>
      </trkpt>
      <trkpt lat="45.6502" lon="6.52192">
        <ele>2130</ele>
        <time>2025-03-29T12:10:27Z</time>
      </trkpt>
      <trkpt lat="45.6502" lon="6.52195">
        <ele>2131</ele>
        <time>2025-03-29T12:10:31Z</time>
      </trkpt>
      <trkpt lat="45.65021" lon="6.52198">
        <ele>2130</ele>
        <time>2025-03-29T12:10:38Z</time>
      </trkpt>
      <trkpt lat="45.65023" lon="6.52201">
        <ele>2130</ele>
        <time>2025-03-29T12:10:48Z</time>
      </trkpt>
      <trkpt lat="45.65023" lon="6.52204">
        <ele>2131</ele>
        <time>2025-03-29T12:10:52Z</time>
      </trkpt>
      <trkpt lat="45.65024" lon="6.52207">
        <ele>2132</ele>
        <time>2025-03-29T12:10:56Z</time>
      </trkpt>
      <trkpt lat="45.65025" lon="6.52209">
        <ele>2132</ele>
        <time>2025-03-29T12:11:00Z</time>
      </trkpt>
      <trkpt lat="45.65025" lon="6.52213">
        <ele>2133</ele>
        <time>2025-03-29T12:11:12Z</time>
      </trkpt>
      <trkpt lat="45.65025" lon="6.52216">
        <ele>2135</ele>
        <time>2025-03-29T12:13:57Z</time>
      </trkpt>
      <trkpt lat="45.65027" lon="6.52217">
        <ele>2135</ele>
        <time>2025-03-29T12:14:18Z</time>
      </trkpt>
      <trkpt lat="45.65028" lon="6.5222">
        <ele>2138</ele>
        <time>2025-03-29T12:14:29Z</time>
      </trkpt>
      <trkpt lat="45.65031" lon="6.52224">
        <ele>2140</ele>
        <time>2025-03-29T12:14:45Z</time>
      </trkpt>
      <trkpt lat="45.65032" lon="6.52226">
        <ele>2140</ele>
        <time>2025-03-29T12:14:51Z</time>
      </trkpt>
      <trkpt lat="45.65032" lon="6.5223">
        <ele>2141</ele>
        <time>2025-03-29T12:14:55Z</time>
      </trkpt>
      <trkpt lat="45.65032" lon="6.52234">
        <ele>2141</ele>
        <time>2025-03-29T12:15:01Z</time>
      </trkpt>
      <trkpt lat="45.65032" lon="6.52238">
        <ele>2142</ele>
        <time>2025-03-29T12:15:07Z</time>
      </trkpt>
      <trkpt lat="45.65034" lon="6.52239">
        <ele>2144</ele>
        <time>2025-03-29T12:15:17Z</time>
      </trkpt>
      <trkpt lat="45.65036" lon="6.52238">
        <ele>2145</ele>
        <time>2025-03-29T12:15:31Z</time>
      </trkpt>
      <trkpt lat="45.65037" lon="6.52243">
        <ele>2147</ele>
        <time>2025-03-29T12:15:38Z</time>
      </trkpt>
      <trkpt lat="45.65039" lon="6.52245">
        <ele>2148</ele>
        <time>2025-03-29T12:15:47Z</time>
      </trkpt>
      <trkpt lat="45.6504" lon="6.52247">
        <ele>2150</ele>
        <time>2025-03-29T12:15:59Z</time>
      </trkpt>
      <trkpt lat="45.65041" lon="6.52251">
        <ele>2151</ele>
        <time>2025-03-29T12:16:09Z</time>
      </trkpt>
      <trkpt lat="45.65041" lon="6.52255">
        <ele>2151</ele>
        <time>2025-03-29T12:16:13Z</time>
      </trkpt>
      <trkpt lat="45.65041" lon="6.52259">
        <ele>2151</ele>
        <time>2025-03-29T12:16:17Z</time>
      </trkpt>
      <trkpt lat="45.65041" lon="6.52263">
        <ele>2151</ele>
        <time>2025-03-29T12:16:21Z</time>
      </trkpt>
      <trkpt lat="45.65041" lon="6.52266">
        <ele>2151</ele>
        <time>2025-03-29T12:16:26Z</time>
      </trkpt>
      <trkpt lat="45.65042" lon="6.52268">
        <ele>2152</ele>
        <time>2025-03-29T12:16:33Z</time>
      </trkpt>
      <trkpt lat="45.65044" lon="6.52277">
        <ele>2153</ele>
        <time>2025-03-29T12:16:44Z</time>
      </trkpt>
      <trkpt lat="45.65044" lon="6.52281">
        <ele>2153</ele>
        <time>2025-03-29T12:16:52Z</time>
      </trkpt>
      <trkpt lat="45.65046" lon="6.52285">
        <ele>2157</ele>
        <time>2025-03-29T12:17:04Z</time>
      </trkpt>
      <trkpt lat="45.65047" lon="6.5229">
        <ele>2158</ele>
        <time>2025-03-29T12:17:11Z</time>
      </trkpt>
      <trkpt lat="45.65048" lon="6.52293">
        <ele>2159</ele>
        <time>2025-03-29T12:17:18Z</time>
      </trkpt>
      <trkpt lat="45.6505" lon="6.52291">
        <ele>2159</ele>
        <time>2025-03-29T12:17:24Z</time>
      </trkpt>
      <trkpt lat="45.65051" lon="6.52294">
        <ele>2162</ele>
        <time>2025-03-29T12:17:31Z</time>
      </trkpt>
      <trkpt lat="45.65052" lon="6.52298">
        <ele>2163</ele>
        <time>2025-03-29T12:17:41Z</time>
      </trkpt>
      <trkpt lat="45.65055" lon="6.523">
        <ele>2164</ele>
        <time>2025-03-29T12:17:49Z</time>
      </trkpt>
      <trkpt lat="45.65054" lon="6.52304">
        <ele>2165</ele>
        <time>2025-03-29T12:17:55Z</time>
      </trkpt>
      <trkpt lat="45.65055" lon="6.52307">
        <ele>2166</ele>
        <time>2025-03-29T12:18:00Z</time>
      </trkpt>
      <trkpt lat="45.65057" lon="6.52311">
        <ele>2167</ele>
        <time>2025-03-29T12:18:12Z</time>
      </trkpt>
      <trkpt lat="45.65057" lon="6.52314">
        <ele>2167</ele>
        <time>2025-03-29T12:18:18Z</time>
      </trkpt>
      <trkpt lat="45.65058" lon="6.5232">
        <ele>2168</ele>
        <time>2025-03-29T12:18:34Z</time>
      </trkpt>
      <trkpt lat="45.65059" lon="6.52323">
        <ele>2168</ele>
        <time>2025-03-29T12:18:38Z</time>
      </trkpt>
      <trkpt lat="45.6506" lon="6.52325">
        <ele>2169</ele>
        <time>2025-03-29T12:18:42Z</time>
      </trkpt>
      <trkpt lat="45.65062" lon="6.52327">
        <ele>2170</ele>
        <time>2025-03-29T12:18:49Z</time>
      </trkpt>
      <trkpt lat="45.65064" lon="6.52329">
        <ele>2171</ele>
        <time>2025-03-29T12:18:56Z</time>
      </trkpt>
      <trkpt lat="45.65066" lon="6.52331">
        <ele>2172</ele>
        <time>2025-03-29T12:19:03Z</time>
      </trkpt>
      <trkpt lat="45.6507" lon="6.52333">
        <ele>2174</ele>
        <time>2025-03-29T12:19:13Z</time>
      </trkpt>
      <trkpt lat="45.65072" lon="6.52335">
        <ele>2175</ele>
        <time>2025-03-29T12:19:56Z</time>
      </trkpt>
      <trkpt lat="45.65074" lon="6.52338">
        <ele>2177</ele>
        <time>2025-03-29T12:26:53Z</time>
      </trkpt>
      <trkpt lat="45.65074" lon="6.52343">
        <ele>2177</ele>
        <time>2025-03-29T12:26:57Z</time>
      </trkpt>
      <trkpt lat="45.65072" lon="6.52344">
        <ele>2176</ele>
        <time>2025-03-29T12:28:21Z</time>
      </trkpt>
      <trkpt lat="45.65068" lon="6.52351">
        <ele>2175</ele>
        <time>2025-03-29T12:29:02Z</time>
      </trkpt>
      <trkpt lat="45.65078" lon="6.52372">
        <ele>2170</ele>
        <time>2025-03-29T12:29:10Z</time>
      </trkpt>
      <trkpt lat="45.65092" lon="6.52388">
        <ele>2166</ele>
        <time>2025-03-29T12:29:18Z</time>
      </trkpt>
      <trkpt lat="45.65093" lon="6.52391">
        <ele>2165</ele>
        <time>2025-03-29T12:29:20Z</time>
      </trkpt>
      <trkpt lat="45.65092" lon="6.52396">
        <ele>2165</ele>
        <time>2025-03-29T12:29:22Z</time>
      </trkpt>
      <trkpt lat="45.65087" lon="6.52398">
        <ele>2161</ele>
        <time>2025-03-29T12:29:26Z</time>
      </trkpt>
      <trkpt lat="45.65088" lon="6.52408">
        <ele>2158</ele>
        <time>2025-03-29T12:29:31Z</time>
      </trkpt>
      <trkpt lat="45.65091" lon="6.52414">
        <ele>2157</ele>
        <time>2025-03-29T12:29:33Z</time>
      </trkpt>
      <trkpt lat="45.65094" lon="6.52417">
        <ele>2155</ele>
        <time>2025-03-29T12:29:35Z</time>
      </trkpt>
      <trkpt lat="45.65095" lon="6.52428">
        <ele>2150</ele>
        <time>2025-03-29T12:29:40Z</time>
      </trkpt>
      <trkpt lat="45.6509" lon="6.5243">
        <ele>2149</ele>
        <time>2025-03-29T12:29:42Z</time>
      </trkpt>
      <trkpt lat="45.6508" lon="6.52434">
        <ele>2144</ele>
        <time>2025-03-29T12:29:51Z</time>
      </trkpt>
      <trkpt lat="45.65081" lon="6.52439">
        <ele>2142</ele>
        <time>2025-03-29T12:29:54Z</time>
      </trkpt>
      <trkpt lat="45.65085" lon="6.52442">
        <ele>2140</ele>
        <time>2025-03-29T12:29:56Z</time>
      </trkpt>
      <trkpt lat="45.65099" lon="6.52452">
        <ele>2135</ele>
        <time>2025-03-29T12:30:02Z</time>
      </trkpt>
      <trkpt lat="45.65109" lon="6.52455">
        <ele>2134</ele>
        <time>2025-03-29T12:30:06Z</time>
      </trkpt>
      <trkpt lat="45.6511" lon="6.52459">
        <ele>2134</ele>
        <time>2025-03-29T12:30:08Z</time>
      </trkpt>
      <trkpt lat="45.65109" lon="6.52464">
        <ele>2133</ele>
        <time>2025-03-29T12:30:41Z</time>
      </trkpt>
      <trkpt lat="45.65108" lon="6.52469">
        <ele>2131</ele>
        <time>2025-03-29T12:30:43Z</time>
      </trkpt>
      <trkpt lat="45.65116" lon="6.52474">
        <ele>2128</ele>
        <time>2025-03-29T12:30:47Z</time>
      </trkpt>
      <trkpt lat="45.65118" lon="6.52477">
        <ele>2126</ele>
        <time>2025-03-29T12:30:49Z</time>
      </trkpt>
      <trkpt lat="45.65115" lon="6.52483">
        <ele>2126</ele>
        <time>2025-03-29T12:30:51Z</time>
      </trkpt>
      <trkpt lat="45.65113" lon="6.52485">
        <ele>2123</ele>
        <time>2025-03-29T12:30:57Z</time>
      </trkpt>
      <trkpt lat="45.65111" lon="6.52489">
        <ele>2121</ele>
        <time>2025-03-29T12:31:19Z</time>
      </trkpt>
      <trkpt lat="45.65109" lon="6.52492">
        <ele>2119</ele>
        <time>2025-03-29T12:31:26Z</time>
      </trkpt>
      <trkpt lat="45.65095" lon="6.52503">
        <ele>2115</ele>
        <time>2025-03-29T12:31:32Z</time>
      </trkpt>
      <trkpt lat="45.65062" lon="6.5252">
        <ele>2107</ele>
        <time>2025-03-29T12:31:48Z</time>
      </trkpt>
      <trkpt lat="45.6507" lon="6.52534">
        <ele>2102</ele>
        <time>2025-03-29T12:32:01Z</time>
      </trkpt>
      <trkpt lat="45.65079" lon="6.52543">
        <ele>2099</ele>
        <time>2025-03-29T12:32:03Z</time>
      </trkpt>
      <trkpt lat="45.65089" lon="6.52542">
        <ele>2097</ele>
        <time>2025-03-29T12:32:05Z</time>
      </trkpt>
      <trkpt lat="45.65097" lon="6.52546">
        <ele>2095</ele>
        <time>2025-03-29T12:32:07Z</time>
      </trkpt>
      <trkpt lat="45.65103" lon="6.52557">
        <ele>2094</ele>
        <time>2025-03-29T12:32:10Z</time>
      </trkpt>
      <trkpt lat="45.65105" lon="6.52561">
        <ele>2092</ele>
        <time>2025-03-29T12:33:51Z</time>
      </trkpt>
      <trkpt lat="45.65114" lon="6.52564">
        <ele>2091</ele>
        <time>2025-03-29T12:33:54Z</time>
      </trkpt>
      <trkpt lat="45.65121" lon="6.52568">
        <ele>2090</ele>
        <time>2025-03-29T12:33:56Z</time>
      </trkpt>
      <trkpt lat="45.65128" lon="6.52572">
        <ele>2089</ele>
        <time>2025-03-29T12:33:58Z</time>
      </trkpt>
      <trkpt lat="45.65139" lon="6.52583">
        <ele>2086</ele>
        <time>2025-03-29T12:34:01Z</time>
      </trkpt>
      <trkpt lat="45.65147" lon="6.52591">
        <ele>2083</ele>
        <time>2025-03-29T12:34:03Z</time>
      </trkpt>
      <trkpt lat="45.65156" lon="6.52597">
        <ele>2081</ele>
        <time>2025-03-29T12:34:05Z</time>
      </trkpt>
      <trkpt lat="45.65166" lon="6.52606">
        <ele>2078</ele>
        <time>2025-03-29T12:34:07Z</time>
      </trkpt>
      <trkpt lat="45.65207" lon="6.52657">
        <ele>2071</ele>
        <time>2025-03-29T12:34:18Z</time>
      </trkpt>
      <trkpt lat="45.65214" lon="6.52668">
        <ele>2069</ele>
        <time>2025-03-29T12:34:20Z</time>
      </trkpt>
      <trkpt lat="45.65232" lon="6.52687">
        <ele>2065</ele>
        <time>2025-03-29T12:34:24Z</time>
      </trkpt>
      <trkpt lat="45.6524" lon="6.52698">
        <ele>2064</ele>
        <time>2025-03-29T12:34:26Z</time>
      </trkpt>
      <trkpt lat="45.65247" lon="6.5271">
        <ele>2061</ele>
        <time>2025-03-29T12:34:28Z</time>
      </trkpt>
      <trkpt lat="45.65256" lon="6.5272">
        <ele>2057</ele>
        <time>2025-03-29T12:34:30Z</time>
      </trkpt>
      <trkpt lat="45.65266" lon="6.52728">
        <ele>2052</ele>
        <time>2025-03-29T12:34:32Z</time>
      </trkpt>
      <trkpt lat="45.65274" lon="6.5274">
        <ele>2048</ele>
        <time>2025-03-29T12:34:34Z</time>
      </trkpt>
      <trkpt lat="45.65287" lon="6.52747">
        <ele>2045</ele>
        <time>2025-03-29T12:34:36Z</time>
      </trkpt>
      <trkpt lat="45.653" lon="6.5276">
        <ele>2041</ele>
        <time>2025-03-29T12:34:39Z</time>
      </trkpt>
      <trkpt lat="45.65311" lon="6.52771">
        <ele>2038</ele>
        <time>2025-03-29T12:34:41Z</time>
      </trkpt>
      <trkpt lat="45.6532" lon="6.52782">
        <ele>2035</ele>
        <time>2025-03-29T12:34:43Z</time>
      </trkpt>
      <trkpt lat="45.6533" lon="6.52789">
        <ele>2032</ele>
        <time>2025-03-29T12:34:45Z</time>
      </trkpt>
      <trkpt lat="45.65347" lon="6.52806">
        <ele>2029</ele>
        <time>2025-03-29T12:34:48Z</time>
      </trkpt>
      <trkpt lat="45.65356" lon="6.52818">
        <ele>2026</ele>
        <time>2025-03-29T12:34:50Z</time>
      </trkpt>
      <trkpt lat="45.65371" lon="6.52832">
        <ele>2022</ele>
        <time>2025-03-29T12:34:54Z</time>
      </trkpt>
      <trkpt lat="45.65379" lon="6.52836">
        <ele>2020</ele>
        <time>2025-03-29T12:35:01Z</time>
      </trkpt>
      <trkpt lat="45.6539" lon="6.52842">
        <ele>2017</ele>
        <time>2025-03-29T12:35:03Z</time>
      </trkpt>
      <trkpt lat="45.65394" lon="6.52827">
        <ele>2016</ele>
        <time>2025-03-29T12:35:05Z</time>
      </trkpt>
      <trkpt lat="45.65389" lon="6.52795">
        <ele>2013</ele>
        <time>2025-03-29T12:35:09Z</time>
      </trkpt>
      <trkpt lat="45.65388" lon="6.52776">
        <ele>2011</ele>
        <time>2025-03-29T12:35:11Z</time>
      </trkpt>
      <trkpt lat="45.65387" lon="6.52758">
        <ele>2008</ele>
        <time>2025-03-29T12:35:13Z</time>
      </trkpt>
      <trkpt lat="45.65388" lon="6.52739">
        <ele>2005</ele>
        <time>2025-03-29T12:35:15Z</time>
      </trkpt>
      <trkpt lat="45.65389" lon="6.52727">
        <ele>2003</ele>
        <time>2025-03-29T12:35:17Z</time>
      </trkpt>
      <trkpt lat="45.65389" lon="6.52723">
        <ele>1999</ele>
        <time>2025-03-29T12:35:26Z</time>
      </trkpt>
      <trkpt lat="45.65391" lon="6.52697">
        <ele>1996</ele>
        <time>2025-03-29T12:35:30Z</time>
      </trkpt>
      <trkpt lat="45.65393" lon="6.5267">
        <ele>1992</ele>
        <time>2025-03-29T12:35:33Z</time>
      </trkpt>
      <trkpt lat="45.65401" lon="6.52652">
        <ele>1990</ele>
        <time>2025-03-29T12:35:35Z</time>
      </trkpt>
      <trkpt lat="45.65413" lon="6.52617">
        <ele>1986</ele>
        <time>2025-03-29T12:35:39Z</time>
      </trkpt>
      <trkpt lat="45.65414" lon="6.52556">
        <ele>1981</ele>
        <time>2025-03-29T12:35:46Z</time>
      </trkpt>
      <trkpt lat="45.65422" lon="6.52524">
        <ele>1977</ele>
        <time>2025-03-29T12:35:50Z</time>
      </trkpt>
      <trkpt lat="45.6543" lon="6.52517">
        <ele>1976</ele>
        <time>2025-03-29T12:35:52Z</time>
      </trkpt>
      <trkpt lat="45.65439" lon="6.52511">
        <ele>1974</ele>
        <time>2025-03-29T12:35:54Z</time>
      </trkpt>
      <trkpt lat="45.6547" lon="6.52511">
        <ele>1969</ele>
        <time>2025-03-29T12:36:00Z</time>
      </trkpt>
      <trkpt lat="45.6548" lon="6.52514">
        <ele>1966</ele>
        <time>2025-03-29T12:36:02Z</time>
      </trkpt>
      <trkpt lat="45.65492" lon="6.52517">
        <ele>1963</ele>
        <time>2025-03-29T12:36:04Z</time>
      </trkpt>
      <trkpt lat="45.65503" lon="6.52517">
        <ele>1960</ele>
        <time>2025-03-29T12:36:06Z</time>
      </trkpt>
      <trkpt lat="45.65513" lon="6.52522">
        <ele>1955</ele>
        <time>2025-03-29T12:36:08Z</time>
      </trkpt>
      <trkpt lat="45.65533" lon="6.52526">
        <ele>1949</ele>
        <time>2025-03-29T12:36:11Z</time>
      </trkpt>
      <trkpt lat="45.65546" lon="6.52527">
        <ele>1944</ele>
        <time>2025-03-29T12:36:13Z</time>
      </trkpt>
      <trkpt lat="45.6558" lon="6.52553">
        <ele>1925</ele>
        <time>2025-03-29T12:36:20Z</time>
      </trkpt>
      <trkpt lat="45.65596" lon="6.52581">
        <ele>1910</ele>
        <time>2025-03-29T12:36:24Z</time>
      </trkpt>
      <trkpt lat="45.65609" lon="6.52593">
        <ele>1903</ele>
        <time>2025-03-29T12:36:26Z</time>
      </trkpt>
      <trkpt lat="45.65623" lon="6.52617">
        <ele>1895</ele>
        <time>2025-03-29T12:36:29Z</time>
      </trkpt>
      <trkpt lat="45.65634" lon="6.52633">
        <ele>1889</ele>
        <time>2025-03-29T12:36:31Z</time>
      </trkpt>
      <trkpt lat="45.65641" lon="6.52648">
        <ele>1883</ele>
        <time>2025-03-29T12:36:33Z</time>
      </trkpt>
      <trkpt lat="45.65649" lon="6.52654">
        <ele>1879</ele>
        <time>2025-03-29T12:36:35Z</time>
      </trkpt>
      <trkpt lat="45.65651" lon="6.52656">
        <ele>1878</ele>
        <time>2025-03-29T12:36:37Z</time>
      </trkpt>
      <trkpt lat="45.65652" lon="6.52671">
        <ele>1875</ele>
        <time>2025-03-29T12:37:00Z</time>
      </trkpt>
      <trkpt lat="45.6566" lon="6.52685">
        <ele>1872</ele>
        <time>2025-03-29T12:37:02Z</time>
      </trkpt>
      <trkpt lat="45.65676" lon="6.52704">
        <ele>1867</ele>
        <time>2025-03-29T12:37:05Z</time>
      </trkpt>
      <trkpt lat="45.65689" lon="6.52719">
        <ele>1862</ele>
        <time>2025-03-29T12:37:07Z</time>
      </trkpt>
      <trkpt lat="45.65698" lon="6.52741">
        <ele>1857</ele>
        <time>2025-03-29T12:37:09Z</time>
      </trkpt>
      <trkpt lat="45.65708" lon="6.52763">
        <ele>1853</ele>
        <time>2025-03-29T12:37:11Z</time>
      </trkpt>
      <trkpt lat="45.65714" lon="6.52795">
        <ele>1850</ele>
        <time>2025-03-29T12:37:14Z</time>
      </trkpt>
      <trkpt lat="45.65718" lon="6.52814">
        <ele>1847</ele>
        <time>2025-03-29T12:37:16Z</time>
      </trkpt>
      <trkpt lat="45.65725" lon="6.52831">
        <ele>1845</ele>
        <time>2025-03-29T12:37:18Z</time>
      </trkpt>
      <trkpt lat="45.65732" lon="6.52852">
        <ele>1841</ele>
        <time>2025-03-29T12:37:20Z</time>
      </trkpt>
      <trkpt lat="45.65747" lon="6.52866">
        <ele>1837</ele>
        <time>2025-03-29T12:37:22Z</time>
      </trkpt>
      <trkpt lat="45.65762" lon="6.5288">
        <ele>1832</ele>
        <time>2025-03-29T12:37:24Z</time>
      </trkpt>
      <trkpt lat="45.65773" lon="6.52896">
        <ele>1828</ele>
        <time>2025-03-29T12:37:26Z</time>
      </trkpt>
      <trkpt lat="45.65782" lon="6.52917">
        <ele>1823</ele>
        <time>2025-03-29T12:37:28Z</time>
      </trkpt>
      <trkpt lat="45.65791" lon="6.52937">
        <ele>1819</ele>
        <time>2025-03-29T12:37:30Z</time>
      </trkpt>
      <trkpt lat="45.65794" lon="6.52956">
        <ele>1815</ele>
        <time>2025-03-29T12:37:32Z</time>
      </trkpt>
      <trkpt lat="45.65803" lon="6.52976">
        <ele>1811</ele>
        <time>2025-03-29T12:37:34Z</time>
      </trkpt>
      <trkpt lat="45.65813" lon="6.52992">
        <ele>1806</ele>
        <time>2025-03-29T12:37:36Z</time>
      </trkpt>
      <trkpt lat="45.65821" lon="6.53006">
        <ele>1800</ele>
        <time>2025-03-29T12:37:38Z</time>
      </trkpt>
      <trkpt lat="45.65832" lon="6.53022">
        <ele>1794</ele>
        <time>2025-03-29T12:37:40Z</time>
      </trkpt>
      <trkpt lat="45.65846" lon="6.53048">
        <ele>1786</ele>
        <time>2025-03-29T12:37:43Z</time>
      </trkpt>
      <trkpt lat="45.65859" lon="6.53063">
        <ele>1780</ele>
        <time>2025-03-29T12:37:45Z</time>
      </trkpt>
      <trkpt lat="45.65876" lon="6.53076">
        <ele>1773</ele>
        <time>2025-03-29T12:37:47Z</time>
      </trkpt>
      <trkpt lat="45.6589" lon="6.53094">
        <ele>1767</ele>
        <time>2025-03-29T12:37:49Z</time>
      </trkpt>
      <trkpt lat="45.65909" lon="6.53119">
        <ele>1762</ele>
        <time>2025-03-29T12:37:52Z</time>
      </trkpt>
      <trkpt lat="45.65919" lon="6.53139">
        <ele>1756</ele>
        <time>2025-03-29T12:37:54Z</time>
      </trkpt>
      <trkpt lat="45.65929" lon="6.53155">
        <ele>1752</ele>
        <time>2025-03-29T12:37:56Z</time>
      </trkpt>
      <trkpt lat="45.65944" lon="6.53173">
        <ele>1747</ele>
        <time>2025-03-29T12:37:59Z</time>
      </trkpt>
      <trkpt lat="45.65956" lon="6.53182">
        <ele>1741</ele>
        <time>2025-03-29T12:38:01Z</time>
      </trkpt>
      <trkpt lat="45.65968" lon="6.53191">
        <ele>1735</ele>
        <time>2025-03-29T12:38:03Z</time>
      </trkpt>
      <trkpt lat="45.6598" lon="6.53205">
        <ele>1728</ele>
        <time>2025-03-29T12:38:05Z</time>
      </trkpt>
      <trkpt lat="45.66002" lon="6.5323">
        <ele>1712</ele>
        <time>2025-03-29T12:38:09Z</time>
      </trkpt>
      <trkpt lat="45.66017" lon="6.53246">
        <ele>1704</ele>
        <time>2025-03-29T12:38:11Z</time>
      </trkpt>
      <trkpt lat="45.66037" lon="6.53262">
        <ele>1696</ele>
        <time>2025-03-29T12:38:13Z</time>
      </trkpt>
      <trkpt lat="45.66056" lon="6.53276">
        <ele>1686</ele>
        <time>2025-03-29T12:38:15Z</time>
      </trkpt>
      <trkpt lat="45.66077" lon="6.53294">
        <ele>1677</ele>
        <time>2025-03-29T12:38:17Z</time>
      </trkpt>
      <trkpt lat="45.66102" lon="6.53307">
        <ele>1668</ele>
        <time>2025-03-29T12:38:19Z</time>
      </trkpt>
      <trkpt lat="45.66122" lon="6.53332">
        <ele>1661</ele>
        <time>2025-03-29T12:38:21Z</time>
      </trkpt>
      <trkpt lat="45.66143" lon="6.53347">
        <ele>1657</ele>
        <time>2025-03-29T12:38:23Z</time>
      </trkpt>
      <trkpt lat="45.66163" lon="6.53363">
        <ele>1654</ele>
        <time>2025-03-29T12:38:25Z</time>
      </trkpt>
      <trkpt lat="45.66197" lon="6.53379">
        <ele>1649</ele>
        <time>2025-03-29T12:38:28Z</time>
      </trkpt>
      <trkpt lat="45.66218" lon="6.53388">
        <ele>1646</ele>
        <time>2025-03-29T12:38:30Z</time>
      </trkpt>
      <trkpt lat="45.6625" lon="6.5339">
        <ele>1643</ele>
        <time>2025-03-29T12:38:34Z</time>
      </trkpt>
      <trkpt lat="45.66259" lon="6.53382">
        <ele>1641</ele>
        <time>2025-03-29T12:38:37Z</time>
      </trkpt>
      <trkpt lat="45.66261" lon="6.53384">
        <ele>1638</ele>
        <time>2025-03-29T12:39:16Z</time>
      </trkpt>
      <trkpt lat="45.66268" lon="6.53389">
        <ele>1637</ele>
        <time>2025-03-29T12:39:18Z</time>
      </trkpt>
      <trkpt lat="45.66279" lon="6.53396">
        <ele>1635</ele>
        <time>2025-03-29T12:39:20Z</time>
      </trkpt>
      <trkpt lat="45.66298" lon="6.53402">
        <ele>1632</ele>
        <time>2025-03-29T12:39:23Z</time>
      </trkpt>
      <trkpt lat="45.66323" lon="6.53417">
        <ele>1627</ele>
        <time>2025-03-29T12:39:27Z</time>
      </trkpt>
      <trkpt lat="45.66331" lon="6.5343">
        <ele>1625</ele>
        <time>2025-03-29T12:39:29Z</time>
      </trkpt>
      <trkpt lat="45.66342" lon="6.53449">
        <ele>1621</ele>
        <time>2025-03-29T12:39:32Z</time>
      </trkpt>
      <trkpt lat="45.66353" lon="6.53461">
        <ele>1616</ele>
        <time>2025-03-29T12:39:34Z</time>
      </trkpt>
      <trkpt lat="45.66363" lon="6.53477">
        <ele>1612</ele>
        <time>2025-03-29T12:39:36Z</time>
      </trkpt>
      <trkpt lat="45.66375" lon="6.53494">
        <ele>1608</ele>
        <time>2025-03-29T12:39:38Z</time>
      </trkpt>
      <trkpt lat="45.66379" lon="6.53499">
        <ele>1606</ele>
        <time>2025-03-29T12:39:40Z</time>
      </trkpt>
      <trkpt lat="45.66381" lon="6.53506">
        <ele>1600</ele>
        <time>2025-03-29T12:40:10Z</time>
      </trkpt>
      <trkpt lat="45.66389" lon="6.53517">
        <ele>1597</ele>
        <time>2025-03-29T12:40:12Z</time>
      </trkpt>
      <trkpt lat="45.66401" lon="6.53522">
        <ele>1594</ele>
        <time>2025-03-29T12:40:14Z</time>
      </trkpt>
      <trkpt lat="45.66417" lon="6.53535">
        <ele>1589</ele>
        <time>2025-03-29T12:40:17Z</time>
      </trkpt>
      <trkpt lat="45.66425" lon="6.53547">
        <ele>1585</ele>
        <time>2025-03-29T12:40:19Z</time>
      </trkpt>
      <trkpt lat="45.66441" lon="6.53566">
        <ele>1579</ele>
        <time>2025-03-29T12:40:22Z</time>
      </trkpt>
      <trkpt lat="45.66454" lon="6.53573">
        <ele>1574</ele>
        <time>2025-03-29T12:40:24Z</time>
      </trkpt>
      <trkpt lat="45.66465" lon="6.53583">
        <ele>1568</ele>
        <time>2025-03-29T12:40:26Z</time>
      </trkpt>
      <trkpt lat="45.66478" lon="6.5359">
        <ele>1563</ele>
        <time>2025-03-29T12:40:28Z</time>
      </trkpt>
      <trkpt lat="45.66492" lon="6.53596">
        <ele>1558</ele>
        <time>2025-03-29T12:40:30Z</time>
      </trkpt>
      <trkpt lat="45.66502" lon="6.53614">
        <ele>1554</ele>
        <time>2025-03-29T12:40:32Z</time>
      </trkpt>
      <trkpt lat="45.66514" lon="6.53618">
        <ele>1550</ele>
        <time>2025-03-29T12:40:34Z</time>
      </trkpt>
      <trkpt lat="45.66526" lon="6.53629">
        <ele>1547</ele>
        <time>2025-03-29T12:40:36Z</time>
      </trkpt>
      <trkpt lat="45.6654" lon="6.53635">
        <ele>1542</ele>
        <time>2025-03-29T12:40:38Z</time>
      </trkpt>
      <trkpt lat="45.66552" lon="6.53645">
        <ele>1538</ele>
        <time>2025-03-29T12:40:40Z</time>
      </trkpt>
      <trkpt lat="45.66568" lon="6.53642">
        <ele>1534</ele>
        <time>2025-03-29T12:40:42Z</time>
      </trkpt>
      <trkpt lat="45.66583" lon="6.53635">
        <ele>1530</ele>
        <time>2025-03-29T12:40:44Z</time>
      </trkpt>
      <trkpt lat="45.66583" lon="6.53602">
        <ele>1527</ele>
        <time>2025-03-29T12:40:47Z</time>
      </trkpt>
      <trkpt lat="45.66574" lon="6.53584">
        <ele>1525</ele>
        <time>2025-03-29T12:40:49Z</time>
      </trkpt>
      <trkpt lat="45.66567" lon="6.53563">
        <ele>1523</ele>
        <time>2025-03-29T12:40:51Z</time>
      </trkpt>
      <trkpt lat="45.66559" lon="6.53528">
        <ele>1521</ele>
        <time>2025-03-29T12:40:54Z</time>
      </trkpt>
      <trkpt lat="45.66556" lon="6.53499">
        <ele>1519</ele>
        <time>2025-03-29T12:40:56Z</time>
      </trkpt>
      <trkpt lat="45.66561" lon="6.53476">
        <ele>1517</ele>
        <time>2025-03-29T12:40:58Z</time>
      </trkpt>
      <trkpt lat="45.66563" lon="6.53453">
        <ele>1514</ele>
        <time>2025-03-29T12:41:00Z</time>
      </trkpt>
      <trkpt lat="45.66579" lon="6.53426">
        <ele>1512</ele>
        <time>2025-03-29T12:41:03Z</time>
      </trkpt>
      <trkpt lat="45.66589" lon="6.53412">
        <ele>1509</ele>
        <time>2025-03-29T12:41:05Z</time>
      </trkpt>
      <trkpt lat="45.66593" lon="6.53396">
        <ele>1506</ele>
        <time>2025-03-29T12:41:07Z</time>
      </trkpt>
      <trkpt lat="45.66605" lon="6.53392">
        <ele>1503</ele>
        <time>2025-03-29T12:41:09Z</time>
      </trkpt>
      <trkpt lat="45.66608" lon="6.53375">
        <ele>1499</ele>
        <time>2025-03-29T12:41:11Z</time>
      </trkpt>
      <trkpt lat="45.66608" lon="6.53357">
        <ele>1496</ele>
        <time>2025-03-29T12:41:13Z</time>
      </trkpt>
      <trkpt lat="45.66616" lon="6.53343">
        <ele>1492</ele>
        <time>2025-03-29T12:41:15Z</time>
      </trkpt>
      <trkpt lat="45.6663" lon="6.53335">
        <ele>1488</ele>
        <time>2025-03-29T12:41:17Z</time>
      </trkpt>
      <trkpt lat="45.6664" lon="6.5333">
        <ele>1484</ele>
        <time>2025-03-29T12:41:19Z</time>
      </trkpt>
      <trkpt lat="45.66651" lon="6.53324">
        <ele>1481</ele>
        <time>2025-03-29T12:41:21Z</time>
      </trkpt>
      <trkpt lat="45.66661" lon="6.53325">
        <ele>1478</ele>
        <time>2025-03-29T12:41:23Z</time>
      </trkpt>
      <trkpt lat="45.66665" lon="6.53338">
        <ele>1475</ele>
        <time>2025-03-29T12:41:25Z</time>
      </trkpt>
      <trkpt lat="45.66675" lon="6.53345">
        <ele>1472</ele>
        <time>2025-03-29T12:41:27Z</time>
      </trkpt>
      <trkpt lat="45.66683" lon="6.53359">
        <ele>1469</ele>
        <time>2025-03-29T12:41:29Z</time>
      </trkpt>
      <trkpt lat="45.66695" lon="6.53374">
        <ele>1465</ele>
        <time>2025-03-29T12:41:32Z</time>
      </trkpt>
      <trkpt lat="45.66709" lon="6.53375">
        <ele>1460</ele>
        <time>2025-03-29T12:41:34Z</time>
      </trkpt>
      <trkpt lat="45.6672" lon="6.53381">
        <ele>1456</ele>
        <time>2025-03-29T12:41:36Z</time>
      </trkpt>
      <trkpt lat="45.66731" lon="6.53386">
        <ele>1453</ele>
        <time>2025-03-29T12:41:38Z</time>
      </trkpt>
      <trkpt lat="45.66747" lon="6.53374">
        <ele>1449</ele>
        <time>2025-03-29T12:41:41Z</time>
      </trkpt>
      <trkpt lat="45.66761" lon="6.5338">
        <ele>1445</ele>
        <time>2025-03-29T12:41:43Z</time>
      </trkpt>
      <trkpt lat="45.66767" lon="6.53357">
        <ele>1442</ele>
        <time>2025-03-29T12:41:45Z</time>
      </trkpt>
      <trkpt lat="45.66772" lon="6.5334">
        <ele>1439</ele>
        <time>2025-03-29T12:41:47Z</time>
      </trkpt>
      <trkpt lat="45.66772" lon="6.53325">
        <ele>1436</ele>
        <time>2025-03-29T12:41:49Z</time>
      </trkpt>
      <trkpt lat="45.66771" lon="6.53309">
        <ele>1433</ele>
        <time>2025-03-29T12:41:51Z</time>
      </trkpt>
      <trkpt lat="45.66769" lon="6.5329">
        <ele>1430</ele>
        <time>2025-03-29T12:41:53Z</time>
      </trkpt>
      <trkpt lat="45.66768" lon="6.53275">
        <ele>1427</ele>
        <time>2025-03-29T12:41:55Z</time>
      </trkpt>
      <trkpt lat="45.66769" lon="6.53259">
        <ele>1423</ele>
        <time>2025-03-29T12:41:57Z</time>
      </trkpt>
      <trkpt lat="45.66764" lon="6.53238">
        <ele>1412</ele>
        <time>2025-03-29T12:42:40Z</time>
      </trkpt>
      <trkpt lat="45.66763" lon="6.53221">
        <ele>1409</ele>
        <time>2025-03-29T12:42:42Z</time>
      </trkpt>
      <trkpt lat="45.66763" lon="6.53207">
        <ele>1406</ele>
        <time>2025-03-29T12:42:44Z</time>
      </trkpt>
      <trkpt lat="45.66769" lon="6.53191">
        <ele>1403</ele>
        <time>2025-03-29T12:42:46Z</time>
      </trkpt>
      <trkpt lat="45.66781" lon="6.53182">
        <ele>1400</ele>
        <time>2025-03-29T12:42:48Z</time>
      </trkpt>
      <trkpt lat="45.66791" lon="6.53173">
        <ele>1395</ele>
        <time>2025-03-29T12:42:50Z</time>
      </trkpt>
      <trkpt lat="45.66803" lon="6.53169">
        <ele>1392</ele>
        <time>2025-03-29T12:42:52Z</time>
      </trkpt>
      <trkpt lat="45.66812" lon="6.53157">
        <ele>1388</ele>
        <time>2025-03-29T12:42:54Z</time>
      </trkpt>
      <trkpt lat="45.66824" lon="6.5316">
        <ele>1384</ele>
        <time>2025-03-29T12:42:56Z</time>
      </trkpt>
      <trkpt lat="45.66833" lon="6.53166">
        <ele>1380</ele>
        <time>2025-03-29T12:42:58Z</time>
      </trkpt>
      <trkpt lat="45.66844" lon="6.53167">
        <ele>1374</ele>
        <time>2025-03-29T12:43:00Z</time>
      </trkpt>
      <trkpt lat="45.66852" lon="6.53173">
        <ele>1369</ele>
        <time>2025-03-29T12:43:02Z</time>
      </trkpt>
      <trkpt lat="45.66866" lon="6.53178">
        <ele>1364</ele>
        <time>2025-03-29T12:43:05Z</time>
      </trkpt>
      <trkpt lat="45.66877" lon="6.53171">
        <ele>1358</ele>
        <time>2025-03-29T12:43:07Z</time>
      </trkpt>
      <trkpt lat="45.66889" lon="6.53183">
        <ele>1355</ele>
        <time>2025-03-29T12:43:09Z</time>
      </trkpt>
      <trkpt lat="45.66894" lon="6.53204">
        <ele>1350</ele>
        <time>2025-03-29T12:43:12Z</time>
      </trkpt>
      <trkpt lat="45.669" lon="6.53215">
        <ele>1347</ele>
        <time>2025-03-29T12:43:14Z</time>
      </trkpt>
      <trkpt lat="45.66909" lon="6.5322">
        <ele>1344</ele>
        <time>2025-03-29T12:43:16Z</time>
      </trkpt>
      <trkpt lat="45.66917" lon="6.53237">
        <ele>1340</ele>
        <time>2025-03-29T12:43:18Z</time>
      </trkpt>
      <trkpt lat="45.6692" lon="6.53258">
        <ele>1337</ele>
        <time>2025-03-29T12:43:20Z</time>
      </trkpt>
      <trkpt lat="45.66932" lon="6.53254">
        <ele>1333</ele>
        <time>2025-03-29T12:43:22Z</time>
      </trkpt>
      <trkpt lat="45.66945" lon="6.53262">
        <ele>1328</ele>
        <time>2025-03-29T12:43:24Z</time>
      </trkpt>
      <trkpt lat="45.66951" lon="6.53283">
        <ele>1325</ele>
        <time>2025-03-29T12:43:26Z</time>
      </trkpt>
      <trkpt lat="45.66964" lon="6.53284">
        <ele>1320</ele>
        <time>2025-03-29T12:43:28Z</time>
      </trkpt>
      <trkpt lat="45.66978" lon="6.53288">
        <ele>1316</ele>
        <time>2025-03-29T12:43:30Z</time>
      </trkpt>
      <trkpt lat="45.66993" lon="6.53299">
        <ele>1312</ele>
        <time>2025-03-29T12:43:32Z</time>
      </trkpt>
      <trkpt lat="45.67005" lon="6.5331">
        <ele>1308</ele>
        <time>2025-03-29T12:43:34Z</time>
      </trkpt>
      <trkpt lat="45.67023" lon="6.53314">
        <ele>1304</ele>
        <time>2025-03-29T12:43:36Z</time>
      </trkpt>
      <trkpt lat="45.67033" lon="6.53333">
        <ele>1301</ele>
        <time>2025-03-29T12:43:38Z</time>
      </trkpt>
      <trkpt lat="45.67039" lon="6.53365">
        <ele>1296</ele>
        <time>2025-03-29T12:43:41Z</time>
      </trkpt>
      <trkpt lat="45.67044" lon="6.53385">
        <ele>1293</ele>
        <time>2025-03-29T12:43:43Z</time>
      </trkpt>
      <trkpt lat="45.67042" lon="6.53404">
        <ele>1290</ele>
        <time>2025-03-29T12:43:45Z</time>
      </trkpt>
      <trkpt lat="45.67048" lon="6.53421">
        <ele>1287</ele>
        <time>2025-03-29T12:43:47Z</time>
      </trkpt>
      <trkpt lat="45.67049" lon="6.5345">
        <ele>1284</ele>
        <time>2025-03-29T12:43:50Z</time>
      </trkpt>
      <trkpt lat="45.67051" lon="6.5347">
        <ele>1282</ele>
        <time>2025-03-29T12:43:52Z</time>
      </trkpt>
      <trkpt lat="45.6705" lon="6.5349">
        <ele>1280</ele>
        <time>2025-03-29T12:43:54Z</time>
      </trkpt>
      <trkpt lat="45.67045" lon="6.53508">
        <ele>1278</ele>
        <time>2025-03-29T12:43:56Z</time>
      </trkpt>
      <trkpt lat="45.67043" lon="6.53525">
        <ele>1276</ele>
        <time>2025-03-29T12:43:58Z</time>
      </trkpt>
      <trkpt lat="45.67049" lon="6.53538">
        <ele>1274</ele>
        <time>2025-03-29T12:44:02Z</time>
      </trkpt>
      <trkpt lat="45.67052" lon="6.53538">
        <ele>1272</ele>
        <time>2025-03-29T12:44:06Z</time>
      </trkpt>
      <trkpt lat="45.67055" lon="6.53542">
        <ele>1272</ele>
        <time>2025-03-29T12:44:23Z</time>
      </trkpt>
      <trkpt lat="45.67058" lon="6.53547">
        <ele>1271</ele>
        <time>2025-03-29T12:44:25Z</time>
      </trkpt>
      <trkpt lat="45.67059" lon="6.53561">
        <ele>1270</ele>
        <time>2025-03-29T12:44:28Z</time>
      </trkpt>
      <trkpt lat="45.67051" lon="6.53578">
        <ele>1268</ele>
        <time>2025-03-29T12:44:32Z</time>
      </trkpt>
      <trkpt lat="45.67048" lon="6.53588">
        <ele>1269</ele>
        <time>2025-03-29T12:44:35Z</time>
      </trkpt>
      <trkpt lat="45.67036" lon="6.5362">
        <ele>1267</ele>
        <time>2025-03-29T12:44:47Z</time>
      </trkpt>
      <trkpt lat="45.67032" lon="6.53698">
        <ele>1262</ele>
        <time>2025-03-29T12:45:01Z</time>
      </trkpt>
      <trkpt lat="45.6704" lon="6.53711">
        <ele>1260</ele>
        <time>2025-03-29T12:45:03Z</time>
      </trkpt>
      <trkpt lat="45.67046" lon="6.53734">
        <ele>1259</ele>
        <time>2025-03-29T12:45:06Z</time>
      </trkpt>
      <trkpt lat="45.6705" lon="6.53749">
        <ele>1257</ele>
        <time>2025-03-29T12:45:08Z</time>
      </trkpt>
      <trkpt lat="45.67059" lon="6.53767">
        <ele>1254</ele>
        <time>2025-03-29T12:45:10Z</time>
      </trkpt>
      <trkpt lat="45.67065" lon="6.53789">
        <ele>1251</ele>
        <time>2025-03-29T12:45:12Z</time>
      </trkpt>
      <trkpt lat="45.6708" lon="6.53822">
        <ele>1247</ele>
        <time>2025-03-29T12:45:15Z</time>
      </trkpt>
      <trkpt lat="45.67085" lon="6.53843">
        <ele>1244</ele>
        <time>2025-03-29T12:45:17Z</time>
      </trkpt>
      <trkpt lat="45.67096" lon="6.53884">
        <ele>1241</ele>
        <time>2025-03-29T12:45:21Z</time>
      </trkpt>
      <trkpt lat="45.67101" lon="6.53913">
        <ele>1238</ele>
        <time>2025-03-29T12:45:24Z</time>
      </trkpt>
      <trkpt lat="45.67117" lon="6.53962">
        <ele>1233</ele>
        <time>2025-03-29T12:45:30Z</time>
      </trkpt>
      <trkpt lat="45.67122" lon="6.53997">
        <ele>1229</ele>
        <time>2025-03-29T12:45:34Z</time>
      </trkpt>
      <trkpt lat="45.67129" lon="6.54011">
        <ele>1228</ele>
        <time>2025-03-29T12:45:36Z</time>
      </trkpt>
      <trkpt lat="45.6713" lon="6.54031">
        <ele>1226</ele>
        <time>2025-03-29T12:45:38Z</time>
      </trkpt>
      <trkpt lat="45.67129" lon="6.54051">
        <ele>1224</ele>
        <time>2025-03-29T12:45:40Z</time>
      </trkpt>
      <trkpt lat="45.67129" lon="6.54071">
        <ele>1222</ele>
        <time>2025-03-29T12:45:42Z</time>
      </trkpt>
      <trkpt lat="45.67108" lon="6.54128">
        <ele>1218</ele>
        <time>2025-03-29T12:45:50Z</time>
      </trkpt>
      <trkpt lat="45.67107" lon="6.54138">
        <ele>1218</ele>
        <time>2025-03-29T12:45:53Z</time>
      </trkpt>
      <trkpt lat="45.67108" lon="6.54141">
        <ele>1217</ele>
        <time>2025-03-29T12:45:55Z</time>
      </trkpt>
      <trkpt lat="45.67114" lon="6.5415">
        <ele>1217</ele>
        <time>2025-03-29T12:46:21Z</time>
      </trkpt>
      <trkpt lat="45.67116" lon="6.54153">
        <ele>1216</ele>
        <time>2025-03-29T12:46:23Z</time>
      </trkpt>
      <trkpt lat="45.67118" lon="6.54224">
        <ele>1213</ele>
        <time>2025-03-29T12:46:47Z</time>
      </trkpt>
      <trkpt lat="45.67117" lon="6.54233">
        <ele>1212</ele>
        <time>2025-03-29T12:46:51Z</time>
      </trkpt>
      <trkpt lat="45.67116" lon="6.54237">
        <ele>1212</ele>
        <time>2025-03-29T12:46:53Z</time>
      </trkpt>
      <trkpt lat="45.67118" lon="6.54244">
        <ele>1212</ele>
        <time>2025-03-29T12:46:56Z</time>
      </trkpt>
      <trkpt lat="45.67118" lon="6.5425">
        <ele>1212</ele>
        <time>2025-03-29T12:46:58Z</time>
      </trkpt>
      <trkpt lat="45.67116" lon="6.54253">
        <ele>1213</ele>
        <time>2025-03-29T12:47:00Z</time>
      </trkpt>
      <trkpt lat="45.67112" lon="6.54266">
        <ele>1214</ele>
        <time>2025-03-29T12:47:06Z</time>
      </trkpt>
      <trkpt lat="45.6711" lon="6.54269">
        <ele>1212</ele>
        <time>2025-03-29T12:47:25Z</time>
      </trkpt>
      <trkpt lat="45.67099" lon="6.54286">
        <ele>1211</ele>
        <time>2025-03-29T12:47:55Z</time>
      </trkpt>
      <trkpt lat="45.67093" lon="6.54294">
        <ele>1212</ele>
        <time>2025-03-29T12:47:59Z</time>
      </trkpt>
      <trkpt lat="45.67073" lon="6.54309">
        <ele>1213</ele>
        <time>2025-03-29T12:48:10Z</time>
      </trkpt>
      <trkpt lat="45.67058" lon="6.54327">
        <ele>1214</ele>
        <time>2025-03-29T12:48:19Z</time>
      </trkpt>
      <trkpt lat="45.67055" lon="6.54332">
        <ele>1214</ele>
        <time>2025-03-29T12:48:21Z</time>
      </trkpt>
      <trkpt lat="45.67044" lon="6.54346">
        <ele>1214</ele>
        <time>2025-03-29T12:48:29Z</time>
      </trkpt>
      <trkpt lat="45.6704" lon="6.54349">
        <ele>1215</ele>
        <time>2025-03-29T12:48:31Z</time>
      </trkpt>
      <trkpt lat="45.67039" lon="6.54351">
        <ele>1214</ele>
        <time>2025-03-29T12:48:35Z</time>
      </trkpt>
      <trkpt lat="45.67037" lon="6.54353">
        <ele>1215</ele>
        <time>2025-03-29T12:48:50Z</time>
      </trkpt>
      <trkpt lat="45.67034" lon="6.54354">
        <ele>1215</ele>
        <time>2025-03-29T12:48:55Z</time>
      </trkpt>
      <trkpt lat="45.67032" lon="6.54355">
        <ele>1216</ele>
        <time>2025-03-29T12:48:59Z</time>
      </trkpt>
      <trkpt lat="45.67029" lon="6.54357">
        <ele>1217</ele>
        <time>2025-03-29T12:49:04Z</time>
      </trkpt>
      <trkpt lat="45.67027" lon="6.54359">
        <ele>1217</ele>
        <time>2025-03-29T12:49:08Z</time>
      </trkpt>
      <trkpt lat="45.67021" lon="6.54363">
        <ele>1216</ele>
        <time>2025-03-29T12:49:29Z</time>
      </trkpt>
      <trkpt lat="45.67019" lon="6.54362">
        <ele>1216</ele>
        <time>2025-03-29T12:54:22Z</time>
      </trkpt>
      <trkpt lat="45.67015" lon="6.54362">
        <ele>1215</ele>
        <time>2025-03-29T12:56:38Z</time>
      </trkpt>
      <trkpt lat="45.67008" lon="6.54358">
        <ele>1216</ele>
        <time>2025-03-29T12:56:47Z</time>
      </trkpt>
      <trkpt lat="45.67003" lon="6.54357">
        <ele>1216</ele>
        <time>2025-03-29T12:56:53Z</time>
      </trkpt>
      <trkpt lat="45.67001" lon="6.54358">
        <ele>1216</ele>
        <time>2025-03-29T12:57:04Z</time>
      </trkpt>
      <trkpt lat="45.67" lon="6.54358">
        <ele>1216</ele>
        <time>2025-03-29T12:57:06Z</time>
      </trkpt>
      <trkpt lat="45.66978" lon="6.54353">
        <ele>1218</ele>
        <time>2025-03-29T12:57:25Z</time>
      </trkpt>
      <trkpt lat="45.6697" lon="6.54356">
        <ele>1216</ele>
        <time>2025-03-29T12:57:32Z</time>
      </trkpt>
      <trkpt lat="45.6696" lon="6.5436">
        <ele>1216</ele>
        <time>2025-03-29T12:57:41Z</time>
      </trkpt>
      <trkpt lat="45.66954" lon="6.54364">
        <ele>1217</ele>
        <time>2025-03-29T12:57:47Z</time>
      </trkpt>
      <trkpt lat="45.66947" lon="6.54364">
        <ele>1216</ele>
        <time>2025-03-29T12:57:53Z</time>
      </trkpt>
      <trkpt lat="45.66929" lon="6.54361">
        <ele>1217</ele>
        <time>2025-03-29T12:58:10Z</time>
      </trkpt>
      <trkpt lat="45.66906" lon="6.54368">
        <ele>1218</ele>
        <time>2025-03-29T12:58:30Z</time>
      </trkpt>
      <trkpt lat="45.669" lon="6.54374">
        <ele>1218</ele>
        <time>2025-03-29T12:58:36Z</time>
      </trkpt>
      <trkpt lat="45.66873" lon="6.54386">
        <ele>1223</ele>
        <time>2025-03-29T12:59:17Z</time>
      </trkpt>
      <trkpt lat="45.66868" lon="6.54388">
        <ele>1224</ele>
        <time>2025-03-29T12:59:21Z</time>
      </trkpt>
      <trkpt lat="45.66846" lon="6.54396">
        <ele>1224</ele>
        <time>2025-03-29T12:59:41Z</time>
      </trkpt>
      <trkpt lat="45.66808" lon="6.54421">
        <ele>1227</ele>
        <time>2025-03-29T13:00:16Z</time>
      </trkpt>
      <trkpt lat="45.66786" lon="6.54443">
        <ele>1231</ele>
        <time>2025-03-29T13:00:36Z</time>
      </trkpt>
      <trkpt lat="45.66777" lon="6.54452">
        <ele>1232</ele>
        <time>2025-03-29T13:00:47Z</time>
      </trkpt>
      <trkpt lat="45.66774" lon="6.54455">
        <ele>1231</ele>
        <time>2025-03-29T13:00:51Z</time>
      </trkpt>
      <trkpt lat="45.66749" lon="6.54488">
        <ele>1233</ele>
        <time>2025-03-29T13:01:23Z</time>
      </trkpt>
      <trkpt lat="45.66747" lon="6.54491">
        <ele>1233</ele>
        <time>2025-03-29T13:01:25Z</time>
      </trkpt>
      <trkpt lat="45.66745" lon="6.54493">
        <ele>1233</ele>
        <time>2025-03-29T13:01:27Z</time>
      </trkpt>
      <trkpt lat="45.6671" lon="6.54515">
        <ele>1234</ele>
        <time>2025-03-29T13:02:00Z</time>
      </trkpt>
      <trkpt lat="45.66705" lon="6.54517">
        <ele>1234</ele>
        <time>2025-03-29T13:02:04Z</time>
      </trkpt>
      <trkpt lat="45.66679" lon="6.54537">
        <ele>1233</ele>
        <time>2025-03-29T13:02:34Z</time>
      </trkpt>
      <trkpt lat="45.66675" lon="6.54539">
        <ele>1233</ele>
        <time>2025-03-29T13:02:38Z</time>
      </trkpt>
      <trkpt lat="45.66673" lon="6.5454">
        <ele>1234</ele>
        <time>2025-03-29T13:02:40Z</time>
      </trkpt>
      <trkpt lat="45.6665" lon="6.5456">
        <ele>1233</ele>
        <time>2025-03-29T13:03:13Z</time>
      </trkpt>
      <trkpt lat="45.66628" lon="6.54584">
        <ele>1234</ele>
        <time>2025-03-29T13:03:45Z</time>
      </trkpt>
      <trkpt lat="45.66626" lon="6.54586">
        <ele>1234</ele>
        <time>2025-03-29T13:03:48Z</time>
      </trkpt>
      <trkpt lat="45.66623" lon="6.54593">
        <ele>1233</ele>
        <time>2025-03-29T13:03:54Z</time>
      </trkpt>
      <trkpt lat="45.66623" lon="6.54595">
        <ele>1233</ele>
        <time>2025-03-29T13:03:56Z</time>
      </trkpt>
      <trkpt lat="45.66619" lon="6.546">
        <ele>1233</ele>
        <time>2025-03-29T13:04:02Z</time>
      </trkpt>
      <trkpt lat="45.66614" lon="6.5462">
        <ele>1234</ele>
        <time>2025-03-29T13:04:17Z</time>
      </trkpt>
      <trkpt lat="45.66614" lon="6.54623">
        <ele>1234</ele>
        <time>2025-03-29T13:04:19Z</time>
      </trkpt>
      <trkpt lat="45.66607" lon="6.5465">
        <ele>1236</ele>
        <time>2025-03-29T13:04:45Z</time>
      </trkpt>
      <trkpt lat="45.66595" lon="6.54671">
        <ele>1242</ele>
        <time>2025-03-29T13:05:11Z</time>
      </trkpt>
      <trkpt lat="45.66592" lon="6.54675">
        <ele>1243</ele>
        <time>2025-03-29T13:05:15Z</time>
      </trkpt>
      <trkpt lat="45.66588" lon="6.54679">
        <ele>1243</ele>
        <time>2025-03-29T13:05:21Z</time>
      </trkpt>
      <trkpt lat="45.66584" lon="6.54685">
        <ele>1243</ele>
        <time>2025-03-29T13:05:28Z</time>
      </trkpt>
      <trkpt lat="45.66578" lon="6.5469">
        <ele>1245</ele>
        <time>2025-03-29T13:05:36Z</time>
      </trkpt>
      <trkpt lat="45.66568" lon="6.54703">
        <ele>1248</ele>
        <time>2025-03-29T13:05:53Z</time>
      </trkpt>
      <trkpt lat="45.66565" lon="6.54706">
        <ele>1250</ele>
        <time>2025-03-29T13:05:57Z</time>
      </trkpt>
      <trkpt lat="45.6656" lon="6.54712">
        <ele>1251</ele>
        <time>2025-03-29T13:06:06Z</time>
      </trkpt>
      <trkpt lat="45.66558" lon="6.54714">
        <ele>1252</ele>
        <time>2025-03-29T13:06:09Z</time>
      </trkpt>
      <trkpt lat="45.66557" lon="6.54716">
        <ele>1252</ele>
        <time>2025-03-29T13:06:11Z</time>
      </trkpt>
      <trkpt lat="45.66555" lon="6.54716">
        <ele>1252</ele>
        <time>2025-03-29T13:06:13Z</time>
      </trkpt>
      <trkpt lat="45.66553" lon="6.54719">
        <ele>1253</ele>
        <time>2025-03-29T13:06:17Z</time>
      </trkpt>
      <trkpt lat="45.66549" lon="6.54723">
        <ele>1254</ele>
        <time>2025-03-29T13:06:23Z</time>
      </trkpt>
      <trkpt lat="45.66529" lon="6.54744">
        <ele>1261</ele>
        <time>2025-03-29T13:06:56Z</time>
      </trkpt>
      <trkpt lat="45.66527" lon="6.54746">
        <ele>1262</ele>
        <time>2025-03-29T13:07:00Z</time>
      </trkpt>
      <trkpt lat="45.66504" lon="6.54762">
        <ele>1267</ele>
        <time>2025-03-29T13:07:33Z</time>
      </trkpt>
      <trkpt lat="45.66502" lon="6.54762">
        <ele>1267</ele>
        <time>2025-03-29T13:07:35Z</time>
      </trkpt>
      <trkpt lat="45.665" lon="6.54762">
        <ele>1267</ele>
        <time>2025-03-29T13:07:39Z</time>
      </trkpt>
      <trkpt lat="45.66495" lon="6.54766">
        <ele>1269</ele>
        <time>2025-03-29T13:07:46Z</time>
      </trkpt>
      <trkpt lat="45.6649" lon="6.54771">
        <ele>1270</ele>
        <time>2025-03-29T13:07:54Z</time>
      </trkpt>
      <trkpt lat="45.66484" lon="6.54772">
        <ele>1271</ele>
        <time>2025-03-29T13:08:00Z</time>
      </trkpt>
      <trkpt lat="45.66479" lon="6.54775">
        <ele>1272</ele>
        <time>2025-03-29T13:08:08Z</time>
      </trkpt>
      <trkpt lat="45.66477" lon="6.54777">
        <ele>1272</ele>
        <time>2025-03-29T13:08:11Z</time>
      </trkpt>
      <trkpt lat="45.66475" lon="6.5478">
        <ele>1273</ele>
        <time>2025-03-29T13:08:15Z</time>
      </trkpt>
      <trkpt lat="45.66465" lon="6.54785">
        <ele>1273</ele>
        <time>2025-03-29T13:08:27Z</time>
      </trkpt>
      <trkpt lat="45.66457" lon="6.54788">
        <ele>1275</ele>
        <time>2025-03-29T13:08:37Z</time>
      </trkpt>
      <trkpt lat="45.66448" lon="6.54794">
        <ele>1278</ele>
        <time>2025-03-29T13:08:51Z</time>
      </trkpt>
      <trkpt lat="45.66443" lon="6.54803">
        <ele>1278</ele>
        <time>2025-03-29T13:09:00Z</time>
      </trkpt>
      <trkpt lat="45.66438" lon="6.54812">
        <ele>1280</ele>
        <time>2025-03-29T13:09:14Z</time>
      </trkpt>
      <trkpt lat="45.66437" lon="6.54814">
        <ele>1281</ele>
        <time>2025-03-29T13:09:18Z</time>
      </trkpt>
      <trkpt lat="45.66435" lon="6.54817">
        <ele>1281</ele>
        <time>2025-03-29T13:09:22Z</time>
      </trkpt>
      <trkpt lat="45.66432" lon="6.54828">
        <ele>1284</ele>
        <time>2025-03-29T13:09:36Z</time>
      </trkpt>
      <trkpt lat="45.66429" lon="6.54834">
        <ele>1286</ele>
        <time>2025-03-29T13:09:43Z</time>
      </trkpt>
      <trkpt lat="45.66427" lon="6.54836">
        <ele>1286</ele>
        <time>2025-03-29T13:09:47Z</time>
      </trkpt>
      <trkpt lat="45.66424" lon="6.54844">
        <ele>1287</ele>
        <time>2025-03-29T13:09:56Z</time>
      </trkpt>
      <trkpt lat="45.66422" lon="6.54848">
        <ele>1288</ele>
        <time>2025-03-29T13:10:01Z</time>
      </trkpt>
      <trkpt lat="45.6642" lon="6.5485">
        <ele>1289</ele>
        <time>2025-03-29T13:10:05Z</time>
      </trkpt>
      <trkpt lat="45.66418" lon="6.54853">
        <ele>1290</ele>
        <time>2025-03-29T13:10:09Z</time>
      </trkpt>
      <trkpt lat="45.66417" lon="6.54858">
        <ele>1293</ele>
        <time>2025-03-29T13:10:15Z</time>
      </trkpt>
      <trkpt lat="45.66418" lon="6.54864">
        <ele>1293</ele>
        <time>2025-03-29T13:10:21Z</time>
      </trkpt>
      <trkpt lat="45.66418" lon="6.54867">
        <ele>1295</ele>
        <time>2025-03-29T13:10:57Z</time>
      </trkpt>
      <trkpt lat="45.66421" lon="6.54871">
        <ele>1295</ele>
        <time>2025-03-29T13:11:19Z</time>
      </trkpt>
      <trkpt lat="45.66438" lon="6.54886">
        <ele>1300</ele>
        <time>2025-03-29T13:11:51Z</time>
      </trkpt>
      <trkpt lat="45.66442" lon="6.54887">
        <ele>1301</ele>
        <time>2025-03-29T13:11:55Z</time>
      </trkpt>
      <trkpt lat="45.66446" lon="6.54887">
        <ele>1302</ele>
        <time>2025-03-29T13:11:59Z</time>
      </trkpt>
      <trkpt lat="45.66454" lon="6.5489">
        <ele>1303</ele>
        <time>2025-03-29T13:12:07Z</time>
      </trkpt>
    </trkseg>
  </trk>
</gpx>